GFSWCAN_850_thetae_000.txt.gz
Theta_e
313 313 312 312 311 310 309 308 308 308 308 308 308 307 309 312 316 318 318 316 322 322 321 322 321 322 321 321 326 321 322 323 324 316 320 324 321 322 321 318 317 317 318 315 318 317 318 315 315 316 317 315 314 312
314 313 312 312 311 310 310 308 308 308 307 307 308 308 308 310 314 317 323 317 318 322 321 319 320 320 320 320 322 321 320 322 322 324 321 323 316 314 321 321 316 320 321 322 319 319 316 315 315 315 315 314 312 310
308 312 312 312 311 310 310 310 309 308 308 307 308 308 308 309 311 316 322 317 318 320 321 317 318 317 318 319 321 321 321 320 320 321 315 313 313 315 315 321 319 316 315 322 319 317 315 315 314 314 313 312 311 310
307 308 310 311 311 311 311 310 310 310 309 309 308 308 308 309 310 313 318 317 322 318 318 323 320 317 315 315 317 319 320 320 321 318 312 309 312 318 317 318 321 319 316 317 317 316 315 315 314 313 312 310 310 309
303 305 307 309 310 311 311 310 310 311 311 310 310 309 308 308 309 312 314 316 319 322 318 323 319 319 315 316 319 318 318 317 320 316 308 313 319 321 319 317 320 316 315 318 319 316 316 315 312 310 310 310 309 308
302 303 305 306 308 309 310 311 311 310 311 311 311 310 310 309 310 312 320 315 316 318 319 319 320 318 317 319 321 320 319 319 320 319 314 317 318 318 315 316 315 314 313 314 314 315 314 313 311 310 308 307 305 303
300 301 301 304 306 307 308 309 310 311 310 310 311 311 312 311 313 320 319 320 316 316 317 318 320 316 317 319 320 320 319 319 319 319 318 317 318 317 311 316 314 313 312 313 313 313 312 310 310 309 305 304 302 301
300 300 300 302 304 306 307 308 310 310 310 310 310 311 312 312 314 316 317 315 317 318 318 317 316 314 315 316 316 316 318 317 318 318 315 315 316 316 317 314 314 313 313 312 310 310 309 309 308 305 303 301 299 298
300 300 300 301 301 304 306 308 309 310 310 310 310 311 311 312 313 315 315 314 316 317 319 313 312 313 314 312 312 311 312 313 313 314 314 314 313 314 314 313 313 313 312 310 309 308 307 305 303 302 300 298 297 297
299 300 300 300 300 301 304 306 308 310 310 310 311 312 312 313 312 312 314 314 315 316 315 311 314 315 313 309 308 308 308 311 312 309 309 307 311 312 312 312 312 311 310 309 308 306 304 302 300 298 297 297 297 296
299 299 300 300 300 300 300 303 306 308 311 311 311 312 311 313 313 314 313 313 312 311 311 311 311 310 310 309 308 308 307 308 311 310 310 309 309 309 309 310 309 308 308 307 306 305 302 298 297 297 296 296 294 292
299 300 299 300 301 301 302 304 305 306 308 308 309 309 309 309 308 310 308 307 307 313 307 306 309 310 307 309 308 304 307 303 310 305 306 310 310 310 309 307 307 306 305 302 300 298 297 296 296 295 294 291 291 292
298 299 299 300 301 301 302 303 305 306 306 306 306 306 304 301 304 306 309 306 307 303 303 303 302 304 305 305 302 302 305 307 303 307 308 309 308 307 307 306 305 303 299 297 297 296 295 294 292 291 290 291 292 292
298 299 299 301 302 302 301 303 304 304 304 303 300 303 302 304 303 303 303 301 301 302 302 303 301 302 301 302 300 305 303 304 307 308 308 308 305 306 305 304 302 298 297 295 294 294 294 293 291 290 290 292 292 292
295 297 298 299 301 301 301 302 302 302 301 300 301 304 303 298 299 299 299 299 300 301 302 301 301 302 300 302 301 303 303 306 306 308 305 303 304 303 302 301 301 298 296 294 294 293 291 290 290 291 291 292 292 292
295 297 298 299 300 301 301 301 301 302 300 300 299 301 299 300 300 299 300 300 300 300 301 301 301 304 304 304 303 305 306 306 307 305 302 299 298 298 297 296 295 295 295 294 293 291 291 291 291 291 291 291 292 292
296 298 299 298 299 300 300 301 301 300 299 299 298 298 299 300 300 300 300 300 301 301 301 302 304 302 300 304 304 304 305 304 301 301 300 298 296 295 294 294 293 293 294 294 292 291 291 291 291 292 292 292 293 293
297 298 298 298 299 299 300 300 300 300 299 299 301 298 298 298 299 299 300 300 300 300 301 301 300 301 303 304 304 304 301 299 299 298 297 295 294 294 294 294 294 295 294 292 291 291 291 292 293 293 293 294 294 293
296 297 298 299 298 298 299 299 299 299 297 296 296 297 296 297 297 298 299 299 300 299 299 299 301 302 303 300 300 299 299 299 298 297 297 297 296 295 294 292 292 292 292 293 293 293 293 293 293 293 293 293 292 292
295 296 297 298 298 298 298 297 298 298 299 298 296 296 296 296 296 297 298 299 299 298 298 300 301 301 300 299 299 297 297 296 297 297 297 296 295 294 294 294 294 293 293 293 293 294 294 294 294 293 292 292 292 292
295 295 296 297 297 298 298 297 297 298 297 296 295 297 294 294 295 295 296 297 298 298 299 299 299 298 298 298 297 296 296 296 296 295 294 294 294 294 293 293 293 294 294 294 292 291 291 291 291 291 292 292 292 292
295 296 295 296 296 295 296 296 297 296 297 295 295 297 295 295 294 294 294 295 297 298 298 299 299 299 298 298 297 296 295 293 292 291 292 293 294 294 294 294 293 292 292 292 292 292 291 292 292 292 292 291 291 291
295 295 295 295 295 295 294 295 295 296 296 295 295 295 294 294 293 292 294 295 296 297 297 298 297 297 296 297 296 293 291 291 291 293 293 293 293 293 293 293 293 293 292 292 291 292 292 292 291 290 290 290 289 288
294 295 294 294 295 295 293 294 295 295 295 296 296 296 295 294 291 293 295 296 296 296 296 295 295 295 295 293 292 293 294 293 293 293 293 293 293 293 292 292 292 292 292 292 291 291 291 290 289 288 288 288 288 288
294 293 293 293 293 294 294 294 294 295 296 295 296 295 293 292 295 295 295 296 294 293 294 294 295 295 293 292 294 294 293 293 293 292 291 291 291 291 291 291 291 291 291 290 291 291 290 289 288 287 287 287 287 286
295 292 294 295 294 296 296 295 295 296 295 294 294 293 292 294 294 295 295 293 292 290 290 291 292 293 293 292 291 291 291 290 289 289 288 288 288 287 287 287 287 288 289 289 289 288 288 287 287 287 287 286 286 286
295 294 292 292 294 293 293 294 294 294 294 294 294 292 293 293 294 295 291 289 289 288 288 288 288 288 287 287 287 286 286 286 285 284 285 285 285 285 285 284 284 284 284 284 284 284 284 285 285 285 285 285 285 284
293 293 293 293 293 294 294 294 294 294 295 294 294 293 294 294 294 288 287 285 286 286 286 285 285 287 285 284 283 282 282 283 283 282 283 284 284 282 282 282 282 282 282 282 282 282 282 282 282 282 283 283 282 282
292 292 292 291 293 293 294 294 294 294 294 294 295 295 294 286 285 284 283 284 283 284 284 283 282 282 281 280 280 280 280 280 280 279 278 278 278 279 279 279 279 279 279 280 280 280 280 280 280 280 281 280 280 280
291 291 293 292 293 295 294 293 294 293 293 294 294 291 287 281 280 281 280 281 282 281 280 279 278 278 277 277 277 277 277 277 277 276 275 275 275 276 276 277 277 277 278 278 278 278 278 279 279 279 279 279 279 278
291 291 292 293 294 292 291 291 290 291 291 291 291 291 286 281 279 280 280 278 277 277 276 276 276 276 275 275 274 274 274 274 274 274 274 274 275 275 275 275 275 275 276 276 276 276 276 276 276 276 276 276 276 276
291 291 293 293 293 290 289 290 290 291 291 290 291 288 285 284 281 276 277 276 275 274 275 275 275 274 276 275 273 272 272 272 271 272 272 272 273 273 274 274 274 274 274 274 274 273 274 274 274 275 275 275 275 275
290 289 289 290 290 290 289 288 290 290 289 289 288 285 281 281 279 275 275 276 275 276 275 275 275 274 273 272 272 271 271 271 271 271 270 271 272 272 272 273 273 273 273 273 272 272 272 273 273 273 273 273 273 273

GFSWCAN_850_thetae_003.txt.gz
Theta_e
311 310 311 311 310 309 308 308 308 308 308 308 308 308 310 315 317 319 316 321 322 322 321 322 322 321 321 321 313 321 315 319 312 309 309 309 309 310 311 314 311 308 307 311 309 309 309 313 314 311 312 315 314 312
312 312 311 311 310 309 309 308 308 308 308 308 308 308 309 311 317 321 318 318 321 321 321 321 322 322 322 322 321 320 316 322 320 309 309 311 309 310 306 309 314 313 311 311 310 309 311 315 315 316 316 314 313 311
312 312 311 311 310 309 309 308 308 308 308 307 308 308 308 310 314 320 321 317 319 318 318 318 319 319 319 321 321 319 320 321 321 318 314 311 310 310 310 312 313 313 316 309 311 315 316 315 315 315 315 314 311 310
311 311 311 311 311 310 310 309 308 308 308 307 307 308 308 309 310 314 316 318 321 318 317 322 319 316 317 321 321 321 319 321 320 317 309 307 306 314 308 309 308 312 316 313 311 314 315 315 315 313 313 311 311 310
307 309 311 311 311 311 310 310 310 309 308 308 308 308 308 308 309 311 314 318 321 320 315 323 320 319 316 316 317 317 320 320 320 316 307 306 312 312 313 308 307 316 312 309 309 315 315 314 313 312 311 310 310 309
306 307 307 309 311 311 311 311 310 310 310 310 309 309 309 308 308 310 315 313 317 320 320 310 320 319 318 317 321 318 319 318 319 318 313 316 318 315 308 308 314 316 316 315 314 315 315 314 312 311 310 308 305 304
301 303 306 306 307 309 310 311 311 310 310 311 311 310 310 309 309 314 318 320 316 317 318 315 316 317 319 320 321 321 320 320 320 319 317 317 318 317 306 312 313 314 313 313 313 314 312 311 310 309 306 305 303 300
300 301 302 304 306 307 308 309 310 310 310 310 311 311 311 311 313 316 317 317 318 318 318 309 310 314 318 319 318 318 319 319 318 317 316 314 316 315 307 312 314 314 314 314 313 312 310 309 309 307 304 301 299 297
300 300 300 301 304 305 307 308 309 310 310 309 310 310 311 311 313 314 315 316 316 318 317 313 309 310 315 314 314 314 314 309 314 312 314 314 307 312 311 314 314 313 312 311 310 309 309 308 304 301 300 298 297 297
299 299 300 300 300 303 306 307 309 310 310 310 310 310 310 311 313 313 314 314 315 316 316 312 312 309 313 311 309 309 309 306 310 307 310 305 308 312 313 313 312 312 311 310 309 307 305 303 301 299 298 297 297 296
299 299 299 300 300 300 302 305 308 310 311 310 311 311 312 312 313 313 313 311 311 308 313 313 313 308 311 307 306 309 304 304 309 305 307 306 306 307 309 310 311 310 310 309 308 305 303 300 298 297 297 296 295 292
300 299 299 300 300 302 304 304 305 309 310 310 311 310 312 311 312 309 307 308 306 309 309 310 310 310 310 310 306 305 306 303 308 305 306 306 303 309 310 309 308 307 306 305 303 300 298 297 297 296 294 292 291 291
299 299 300 301 301 302 304 305 306 307 307 308 307 308 306 302 304 307 308 306 306 304 305 306 303 306 307 307 303 302 306 306 304 305 306 301 307 307 307 306 304 303 300 298 297 297 296 295 294 292 291 290 290 291
298 299 300 302 301 302 303 304 304 305 305 305 303 303 302 303 302 301 301 301 301 302 303 304 302 304 303 303 300 305 302 302 305 304 300 303 306 306 306 305 303 300 299 297 296 295 294 293 292 290 291 291 291 291
297 298 299 301 301 301 301 302 302 302 301 301 301 303 301 299 299 299 299 300 301 302 302 301 301 301 300 301 300 301 302 304 304 305 301 301 303 303 303 302 301 300 299 297 295 294 293 291 291 291 291 291 291 291
296 298 299 299 300 300 300 301 301 301 300 300 299 299 298 300 299 299 300 300 300 300 300 301 300 303 302 301 302 304 304 304 303 300 299 300 300 302 302 300 298 296 295 295 295 294 292 291 291 291 291 291 292 293
297 298 298 299 299 300 300 301 300 300 299 299 298 297 298 299 299 300 300 300 301 301 300 301 303 301 299 302 303 302 303 301 301 301 300 299 298 296 295 294 294 294 294 294 293 292 291 291 291 291 292 292 293 294
296 297 298 298 299 299 299 300 300 299 299 298 299 297 298 298 298 298 299 299 301 301 301 300 300 300 302 302 301 300 300 298 300 299 298 296 295 295 295 295 294 293 292 292 291 292 292 292 292 292 293 292 293 292
295 296 297 298 298 298 299 299 299 299 297 297 297 297 296 296 296 297 298 299 299 300 299 300 299 299 299 300 299 299 299 299 298 297 297 297 297 296 295 294 294 293 293 292 292 293 293 293 294 293 293 293 293 292
295 295 296 298 297 297 298 297 298 298 298 297 297 297 296 296 295 296 297 298 299 299 299 296 298 301 300 299 298 297 297 297 298 297 296 295 294 294 294 294 293 293 293 293 293 294 293 292 291 291 291 292 292 292
295 295 295 296 297 297 298 297 298 298 297 297 296 296 295 294 295 296 297 298 298 299 299 299 300 299 299 298 298 298 297 297 297 296 295 294 293 293 293 293 294 294 294 293 292 292 291 291 291 291 291 291 291 290
295 294 294 295 296 296 296 296 298 297 296 295 295 296 294 294 295 295 295 295 297 297 298 299 299 299 299 299 298 297 296 295 293 292 292 294 294 294 293 293 293 292 292 292 292 292 291 291 291 291 292 291 289 289
294 294 294 294 295 294 295 296 296 295 294 295 296 295 294 294 293 293 294 294 295 296 297 298 298 298 298 297 297 296 293 292 293 293 294 293 293 292 292 292 293 293 293 292 292 292 292 291 291 291 290 289 288 288
293 294 295 294 294 295 294 295 296 296 295 295 295 296 294 293 291 292 292 296 297 297 297 296 295 295 296 294 294 294 294 294 294 294 294 293 291 290 290 290 291 291 290 290 289 289 289 290 290 290 288 288 287 287
294 294 294 294 294 294 289 292 295 295 295 294 295 294 292 291 291 288 289 295 294 294 293 294 296 295 295 294 294 294 294 293 293 292 291 289 288 287 286 286 286 286 286 287 286 286 287 287 287 287 287 287 287 286
294 293 292 295 294 293 292 295 295 294 294 295 294 292 291 292 288 287 292 292 291 290 290 292 293 293 292 291 291 291 291 290 289 287 286 284 284 284 283 283 283 283 283 283 283 283 283 284 284 284 285 285 285 285
294 294 293 293 294 294 295 295 295 294 293 294 292 291 288 286 285 292 290 290 289 288 288 288 288 289 288 287 287 286 285 285 284 284 283 282 283 283 282 281 280 280 280 280 281 281 281 281 281 282 282 283 283 283
294 293 293 293 294 294 294 294 293 293 292 294 292 290 288 286 289 287 287 286 286 286 286 286 284 285 284 283 282 282 282 282 282 282 282 281 281 281 280 279 279 278 278 279 279 279 279 279 279 279 280 280 280 281
293 293 292 292 293 294 294 294 294 294 294 294 290 288 289 285 284 285 284 283 283 284 284 283 283 282 281 281 280 280 280 280 281 280 280 279 279 279 278 277 277 277 277 277 278 277 277 277 278 278 279 279 279 279
292 292 293 292 290 292 292 292 293 293 294 294 293 289 284 281 281 281 281 281 282 281 280 279 278 279 279 279 278 277 277 277 277 276 276 275 275 275 275 275 275 275 275 275 276 276 276 276 276 276 277 277 277 276
291 292 292 293 293 291 291 291 291 291 291 292 291 291 284 281 279 279 279 278 278 278 278 278 277 278 277 277 276 276 275 274 274 274 273 273 273 273 273 273 273 273 274 273 274 274 273 273 273 274 274 274 274 274
291 291 292 292 292 290 290 290 290 290 291 290 290 288 284 282 278 277 277 277 277 278 278 277 277 276 276 275 274 273 272 273 273 272 271 272 272 272 272 272 272 272 272 272 272 272 271 272 272 272 272 272 272 272
290 289 289 290 290 290 289 288 290 290 290 289 285 284 283 281 277 276 276 276 277 276 275 275 275 275 275 274 273 273 273 272 271 271 271 270 270 270 271 271 271 271 271 271 271 270 270 270 271 271 271 271 271 271

GFSWCAN_850_thetae_009.txt.gz
Theta_e
308 308 309 309 309 309 309 308 308 307 308 310 315 316 316 317 318 316 321 320 321 321 322 321 320 320 319 318 312 318 315 316 305 303 301 303 304 307 308 309 309 309 306 302 303 302 308 308 310 311 311 311 314 314
308 309 309 309 309 309 309 308 308 307 307 309 312 316 317 317 316 316 318 321 321 321 320 321 321 320 319 319 319 319 316 315 314 304 301 304 306 306 302 309 309 309 306 307 307 308 308 310 313 314 313 313 314 314
309 309 309 309 309 309 309 308 308 308 307 308 310 313 317 318 316 316 320 320 318 320 319 320 321 321 319 319 319 318 315 317 315 313 309 303 303 301 307 308 308 309 309 306 309 311 310 311 312 312 314 314 314 315
309 309 309 309 309 309 309 308 308 308 308 307 308 310 314 318 319 317 319 318 317 317 316 319 320 321 321 320 319 318 317 317 316 314 308 303 301 307 302 305 305 308 310 310 307 309 312 315 315 314 314 315 315 314
310 310 309 309 309 309 308 308 308 308 308 308 308 308 310 314 318 318 317 317 316 315 314 319 318 317 320 321 321 321 319 318 318 314 304 304 306 305 304 302 305 310 309 307 308 311 313 313 314 314 314 314 314 312
310 310 310 309 309 309 308 308 308 308 308 308 308 308 308 310 312 314 314 318 318 316 316 310 317 318 317 317 319 320 320 320 319 318 313 312 311 311 307 311 312 314 313 313 312 313 313 313 314 314 314 314 312 311
310 310 310 310 309 309 309 309 308 308 308 308 308 308 308 308 309 310 311 314 317 318 316 312 312 318 318 319 318 319 319 319 319 317 313 313 315 313 305 309 313 313 313 313 313 314 314 314 314 314 313 312 310 309
310 310 310 310 310 310 310 310 310 309 309 309 308 308 308 308 309 312 315 314 316 316 316 306 305 314 317 319 319 318 319 318 317 315 312 311 311 307 308 311 315 315 315 314 314 314 313 313 313 312 311 309 304 300
307 308 309 310 311 311 310 310 310 310 310 310 310 310 310 310 311 313 315 317 316 315 314 307 307 309 315 313 314 314 315 306 310 311 309 311 304 310 311 313 314 314 314 314 313 313 313 313 310 304 300 299 303 297
303 305 306 307 308 309 310 310 310 310 310 310 311 310 311 312 312 314 314 313 315 316 315 306 308 308 311 310 308 309 308 308 310 308 311 305 309 310 312 310 310 311 313 313 312 309 308 302 298 297 300 300 298 297
300 300 303 305 306 308 308 309 310 310 310 310 310 310 312 313 312 312 311 307 309 310 311 309 309 307 309 307 307 308 304 302 309 305 309 308 306 304 306 307 309 310 311 310 310 308 303 302 302 300 297 299 300 296
302 302 302 302 304 308 309 309 309 310 309 310 311 311 312 312 311 305 305 306 305 307 307 309 309 310 309 310 307 306 306 303 308 304 306 307 300 299 300 301 302 303 305 303 303 302 300 298 298 299 298 293 291 290
302 302 303 303 303 305 307 309 310 310 310 310 311 311 310 306 307 310 311 306 306 303 304 306 306 307 308 309 305 303 306 307 303 305 307 303 299 299 300 302 302 303 302 301 299 298 298 295 293 292 291 291 291 291
300 301 301 302 303 304 305 306 308 308 308 308 306 304 303 303 301 301 302 301 300 301 303 304 302 304 303 303 301 305 302 301 306 303 299 301 299 300 301 301 300 300 301 297 293 293 293 293 292 291 291 291 290 290
300 300 300 301 301 301 303 304 306 306 304 302 301 300 298 297 298 298 299 300 300 300 302 302 302 302 300 301 300 300 302 303 301 300 300 299 299 299 297 296 297 295 295 294 294 294 294 293 291 291 291 291 291 291
299 299 299 299 299 300 301 301 303 303 300 298 298 298 298 299 298 299 299 299 300 300 300 301 300 301 301 300 299 298 299 300 301 299 299 299 299 299 298 296 298 295 295 295 295 294 292 291 291 291 291 291 292 292
297 298 298 298 299 299 301 301 301 299 297 298 297 298 299 299 299 299 300 300 300 300 300 300 298 297 298 298 300 301 301 300 300 300 300 300 299 297 296 295 294 294 293 292 292 292 292 292 292 292 292 291 291 291
295 296 297 296 297 298 298 299 299 298 297 297 297 298 298 298 299 299 299 299 300 300 299 298 299 297 299 299 299 299 299 299 298 298 299 299 297 296 295 295 294 294 293 293 293 293 293 292 292 291 291 291 291 290
292 294 294 295 297 297 298 298 297 296 296 297 297 297 297 298 298 298 298 298 299 299 299 299 291 292 292 299 300 300 299 299 298 299 298 296 296 295 294 294 294 293 293 293 293 292 291 291 291 291 291 291 291 291
292 293 294 294 295 296 297 297 297 297 296 296 296 296 296 296 296 296 297 298 298 299 299 292 293 299 299 297 296 297 299 299 298 297 296 296 294 294 293 293 293 293 293 292 291 291 290 290 290 290 290 291 291 291
292 293 293 293 294 296 296 296 297 297 296 296 296 296 295 295 295 295 296 297 297 298 297 298 300 299 299 298 298 297 298 297 297 297 296 294 292 293 293 293 292 292 291 290 290 289 289 288 287 287 286 287 287 288
291 292 292 293 294 295 295 295 296 296 295 295 295 295 294 294 294 294 295 295 296 296 298 298 299 298 298 298 297 297 296 296 295 293 292 293 293 293 292 291 291 290 289 288 286 285 285 284 284 284 284 284 284 285
291 292 292 292 293 293 294 295 296 296 294 294 295 294 294 294 294 293 293 294 294 294 295 297 297 298 298 297 297 296 295 294 292 292 293 292 291 290 290 289 288 287 285 284 284 283 283 283 283 283 283 283 283 283
292 292 292 292 292 292 293 293 295 295 295 294 293 293 291 293 292 292 291 291 293 294 294 295 295 295 295 295 294 293 291 291 291 290 289 288 288 287 286 285 284 283 283 282 282 281 281 281 281 281 281 281 281 281
292 291 292 289 292 292 290 289 289 292 287 286 291 290 291 291 285 289 286 291 291 292 294 294 294 293 293 291 289 289 290 290 290 289 287 286 284 283 283 282 282 281 281 280 281 280 280 279 279 279 279 279 278 279
290 291 291 290 291 290 284 283 283 289 282 287 289 291 291 289 290 290 289 289 289 289 290 291 291 290 289 288 288 288 288 286 285 284 283 282 281 281 281 280 280 280 279 278 277 277 277 277 277 277 277 277 277 277
289 286 292 292 292 293 293 293 293 292 291 292 287 288 289 292 290 287 287 287 287 287 288 288 288 287 286 285 284 285 283 283 282 282 281 280 280 280 279 277 277 276 276 275 275 275 275 275 275 275 275 275 275 275
293 293 289 292 293 293 293 292 291 292 292 291 291 290 290 288 285 283 284 285 285 285 286 286 285 283 283 282 281 281 281 281 280 279 279 279 277 276 276 275 275 275 274 274 274 274 274 274 273 273 272 273 273 273
292 292 292 292 292 293 291 291 291 291 291 292 288 286 282 281 281 282 282 283 283 283 284 283 283 281 281 280 280 280 279 278 277 277 277 276 276 276 275 275 274 274 274 274 274 273 273 273 272 272 272 272 272 272
291 291 292 291 289 289 289 290 290 290 290 290 288 284 280 279 279 280 280 281 281 282 281 281 280 279 279 279 278 278 277 277 276 276 275 275 274 274 274 274 274 274 274 273 273 273 273 272 272 272 272 271 271 271
290 291 291 291 289 289 289 289 289 290 290 289 288 285 280 278 278 278 278 278 278 278 277 278 278 278 276 276 276 275 275 275 275 274 273 273 273 273 273 273 273 273 273 272 272 272 272 271 271 270 270 270 270 270
289 289 289 283 289 289 288 288 288 288 289 288 285 284 280 279 277 276 275 275 276 276 276 276 275 275 275 275 275 275 274 273 273 272 272 272 272 272 272 272 272 272 271 271 271 271 270 270 270 270 269 269 269 269
288 288 287 288 288 289 288 286 286 287 286 284 281 281 280 279 276 275 274 275 275 275 275 275 275 275 274 274 273 272 272 272 272 272 271 271 271 271 271 271 271 270 270 270 270 270 269 269 269 269 268 268 268 268

GFSWCAN_850_thetae_012.txt.gz
Theta_e
308 308 308 308 307 307 307 307 308 309 313 316 316 316 313 313 315 318 320 321 320 321 321 319 318 318 317 317 311 317 313 315 304 304 301 302 300 306 307 308 309 309 305 301 299 298 306 306 311 311 311 310 312 313
308 308 308 308 308 307 307 307 308 310 313 317 317 317 316 315 317 318 320 322 321 321 320 320 320 319 318 318 318 318 316 315 313 303 296 301 306 305 301 308 307 309 306 305 304 306 306 308 310 313 312 311 312 313
308 308 308 308 308 308 307 307 307 308 311 316 318 320 318 318 317 317 320 320 320 320 319 321 321 319 319 318 319 318 314 316 314 311 304 302 302 299 305 306 306 307 306 304 307 309 308 310 311 312 312 313 313 313
308 308 308 308 308 308 308 307 307 308 309 312 316 320 321 318 319 317 319 319 320 319 316 318 320 321 319 318 318 318 318 315 314 313 308 302 301 305 299 304 303 307 308 308 306 308 310 312 312 313 314 313 313 313
308 308 308 308 308 308 308 308 307 307 307 309 312 317 320 319 319 321 318 316 317 314 314 318 318 320 321 321 320 320 319 316 315 313 301 304 304 303 303 302 304 308 308 306 307 311 309 310 311 312 314 314 314 314
308 308 308 308 311 309 308 308 308 307 307 308 309 312 318 318 318 317 317 317 315 314 317 310 316 317 318 319 320 319 318 318 318 317 313 311 310 309 307 305 311 312 312 312 311 312 312 312 313 313 314 314 314 313
309 309 308 309 310 308 308 308 308 308 308 308 308 308 310 312 314 312 312 317 316 315 314 311 310 317 318 318 318 319 319 319 318 316 312 310 312 310 306 304 313 313 313 313 313 312 312 313 313 313 313 313 312 311
309 309 309 310 311 309 308 308 308 308 308 308 308 308 308 309 309 311 313 317 318 315 314 304 304 314 316 318 318 317 318 318 315 312 309 307 308 307 309 309 312 313 314 314 314 313 313 312 312 312 311 311 307 300
310 310 309 310 311 309 309 309 309 309 309 308 308 308 308 309 309 314 315 315 316 313 312 305 306 308 314 312 313 313 313 306 309 309 308 309 304 309 308 307 307 309 310 311 312 312 312 311 307 304 304 300 300 298
310 310 311 310 310 310 310 310 310 310 310 310 309 310 311 311 312 313 313 314 316 315 315 303 305 308 310 311 308 309 308 308 310 307 309 306 308 306 301 302 305 307 309 310 310 306 304 300 299 298 299 300 299 297
305 307 309 310 310 310 310 310 310 310 310 310 310 310 312 313 312 311 309 307 308 309 309 307 307 305 308 307 306 307 304 303 309 304 308 307 306 299 299 301 302 304 305 306 306 302 300 299 299 299 297 297 299 297
302 304 306 308 308 309 310 310 310 310 310 310 311 312 311 311 310 304 303 304 305 304 307 308 308 309 308 309 306 306 306 303 309 304 306 307 299 297 299 300 300 300 300 299 299 298 298 297 296 296 296 295 292 291
302 303 305 306 308 308 308 309 309 310 311 311 311 310 309 306 308 307 308 306 306 303 305 306 305 307 308 308 305 303 307 307 303 305 307 302 299 299 299 299 299 299 299 298 295 294 294 294 294 294 292 291 291 290
301 302 303 304 306 308 309 309 310 310 309 309 307 305 304 304 301 300 301 301 300 301 303 305 303 305 304 304 301 306 302 301 306 305 301 300 298 298 299 299 299 295 294 294 294 294 294 293 292 291 291 290 290 291
300 300 301 302 303 304 305 308 307 307 305 303 302 301 299 297 298 298 299 300 300 301 302 303 302 303 301 301 300 300 300 299 296 294 299 298 298 297 296 295 295 294 294 294 295 295 294 292 291 291 291 291 291 291
299 299 299 299 300 302 303 305 306 303 300 298 298 298 298 299 298 299 299 299 301 301 302 302 300 301 301 300 298 298 298 296 299 299 298 298 298 297 296 296 295 295 295 295 294 292 292 292 292 292 292 292 291 291
298 298 297 298 299 301 301 303 301 299 296 297 297 298 298 299 299 299 300 300 300 300 300 299 297 298 298 295 297 298 295 298 299 298 299 299 298 297 295 295 294 293 293 293 293 293 293 293 293 292 291 291 291 291
294 294 295 296 298 298 299 299 298 296 297 297 297 297 298 298 299 299 299 300 300 300 299 297 297 295 293 294 293 297 299 299 299 298 299 299 297 296 295 295 294 294 293 292 292 293 292 291 291 291 290 290 290 290
292 292 292 294 296 297 298 297 297 295 296 296 297 297 298 298 298 298 298 298 298 299 299 298 290 292 293 298 299 299 299 298 298 298 299 297 296 295 294 294 294 293 293 293 292 291 291 290 290 289 288 287 286 286
292 291 291 291 293 296 297 297 296 296 295 295 296 297 296 296 296 297 297 297 298 298 298 292 292 298 298 297 297 298 299 298 298 299 298 295 295 294 293 293 293 293 292 291 290 290 290 289 288 286 285 285 285 285
291 291 291 291 292 295 296 296 296 296 295 295 295 295 295 295 295 295 296 297 297 298 296 297 298 298 298 297 297 298 298 297 296 296 296 294 293 293 293 292 292 291 290 289 289 288 287 285 284 284 283 283 283 283
290 290 291 291 292 294 294 294 295 295 295 294 295 295 294 294 294 294 295 295 296 295 297 297 297 297 297 297 297 296 296 296 295 295 293 293 293 292 291 290 289 289 288 286 284 284 283 282 282 282 281 281 281 281
290 290 291 291 292 293 292 294 295 295 294 294 294 294 294 294 294 293 294 294 293 294 294 295 297 297 297 297 296 294 294 294 293 292 292 291 290 289 288 288 288 286 284 283 282 282 281 280 280 280 279 279 279 279
290 291 290 291 291 290 292 291 292 292 294 293 288 291 291 292 292 292 291 291 292 293 294 294 295 295 293 292 293 292 291 290 290 290 289 289 289 288 286 284 283 282 282 281 280 279 278 278 277 277 277 277 277 277
291 290 290 289 291 291 289 288 290 292 291 281 291 284 291 291 290 289 290 290 290 291 293 293 293 293 292 290 288 288 288 289 289 288 287 285 284 283 282 281 281 280 279 279 278 278 277 276 276 276 276 275 275 275
289 290 289 289 289 290 282 283 285 289 286 285 286 290 291 286 285 288 287 286 287 287 288 289 290 289 288 287 286 286 286 286 285 283 282 282 281 281 281 280 279 277 277 276 276 276 276 275 275 275 275 274 274 273
286 285 291 291 291 291 291 292 291 290 291 290 288 288 289 291 289 286 285 285 285 286 286 286 287 287 286 286 285 284 283 282 282 281 281 280 279 278 277 276 276 275 275 275 275 275 275 274 274 273 273 273 272 272
291 291 286 291 291 292 291 289 285 291 291 290 290 289 289 286 283 281 281 282 283 284 284 285 284 284 283 283 282 281 281 280 279 278 277 276 276 275 274 274 274 274 274 274 274 273 273 273 272 272 271 271 272 272
291 291 291 291 291 291 290 289 289 290 290 290 287 284 281 280 280 280 281 281 281 282 282 282 281 281 280 280 279 278 277 276 276 275 275 275 275 275 274 274 274 274 274 273 273 272 272 272 271 271 271 271 271 270
290 290 291 290 287 285 288 289 289 289 289 288 287 283 280 278 279 279 280 280 280 280 280 279 279 278 278 277 276 276 276 276 275 275 274 274 274 274 273 273 273 273 273 272 272 272 271 271 271 271 270 270 270 270
290 291 291 290 289 288 288 288 288 288 289 288 286 284 279 277 277 277 277 277 277 277 277 277 277 276 275 275 275 275 275 274 274 274 273 273 273 273 272 272 271 271 271 271 271 271 271 270 270 270 270 269 269 269
289 288 288 283 288 288 288 287 287 287 287 286 283 281 278 278 276 275 274 275 275 275 275 275 275 275 275 274 274 274 273 273 272 272 272 272 271 271 270 270 270 270 270 270 270 270 270 269 269 269 269 268 268 268
287 287 286 287 287 287 287 286 284 285 284 282 279 279 278 277 275 274 273 274 274 274 274 274 274 274 274 273 273 272 271 271 271 270 270 270 270 270 270 270 270 270 269 269 269 269 269 268 268 268 268 268 268 267

GFSWCAN_850_thetae_015.txt.gz
Theta_e
308 309 309 308 307 306 306 307 308 309 311 313 316 317 315 313 315 318 318 320 321 320 317 318 317 317 315 317 315 314 315 314 306 310 311 309 311 310 310 309 311 312 311 310 302 308 313 305 311 315 314 311 310 313
308 307 307 306 306 306 307 308 309 311 314 315 316 317 315 313 315 316 317 319 321 320 319 319 318 318 318 318 318 315 316 313 312 309 303 304 309 306 305 315 308 313 311 312 309 312 307 307 311 312 312 311 311 312
307 307 307 306 307 307 308 310 312 315 317 316 316 315 313 313 316 317 317 319 320 320 318 320 319 318 318 318 318 317 314 316 313 311 304 304 309 305 311 310 309 308 305 309 309 309 307 308 310 310 310 311 311 312
308 307 307 307 308 308 309 310 312 315 317 319 318 314 313 314 317 317 317 320 320 320 316 318 320 319 318 318 318 318 319 316 314 311 307 304 308 304 306 308 309 309 307 309 308 309 309 311 311 310 311 312 312 313
308 308 308 308 308 308 308 308 310 312 316 318 318 316 315 317 316 316 316 319 318 317 314 318 319 319 320 319 318 318 317 316 313 311 306 308 303 305 302 304 307 308 310 312 314 311 310 310 311 311 312 313 313 313
308 308 308 308 308 307 307 307 308 310 313 317 318 318 318 318 317 319 317 316 314 319 319 311 316 318 319 319 319 317 316 316 316 316 310 307 307 308 309 311 311 310 311 311 311 310 310 311 312 312 313 313 313 312
308 308 308 308 308 308 307 307 307 308 310 316 318 318 318 319 318 316 316 316 314 314 314 310 310 316 318 318 318 318 318 318 317 314 308 307 308 308 306 311 310 310 311 313 312 311 312 312 311 312 312 312 311 309
308 308 309 308 308 308 308 308 308 307 308 309 312 314 314 313 311 315 318 316 315 314 313 306 306 314 316 316 315 315 317 316 313 309 306 305 306 307 311 308 305 307 309 312 311 311 311 310 309 308 306 305 303 298
309 309 310 311 309 308 308 309 308 308 308 308 309 308 309 310 311 316 317 316 314 312 310 305 308 311 312 310 309 311 311 308 309 310 308 309 305 307 301 300 301 303 304 307 306 307 306 304 300 299 299 298 298 298
309 309 310 311 311 309 309 309 309 309 309 309 308 309 309 313 313 313 311 312 312 313 314 303 304 306 310 310 307 309 309 307 310 308 309 307 307 298 298 299 300 302 305 308 304 299 299 297 297 298 297 297 296 296
310 310 310 310 311 311 310 310 310 310 310 309 309 311 313 313 310 310 308 306 307 305 307 306 306 306 307 309 307 307 306 304 310 308 309 308 305 297 298 298 299 300 301 301 301 299 298 298 297 296 296 295 295 295
308 309 309 310 310 310 310 310 310 310 310 310 312 312 311 311 310 305 304 305 303 306 306 307 307 307 306 308 307 305 306 304 310 304 307 308 298 298 298 298 298 298 298 298 298 298 297 296 295 295 295 294 293 292
306 308 308 308 309 309 310 310 310 310 311 311 311 310 309 305 305 303 309 307 305 303 305 306 304 307 306 307 304 304 308 308 303 306 307 302 299 298 298 298 298 298 297 297 295 295 294 294 294 292 291 290 290 290
303 305 306 308 308 309 309 310 310 310 310 309 307 304 301 306 302 302 303 302 300 302 304 305 303 305 304 304 301 308 302 302 307 307 305 300 298 298 298 297 297 295 294 294 293 293 293 291 291 291 291 291 291 291
301 302 304 305 305 307 309 309 310 309 307 304 302 300 299 297 298 298 299 300 300 301 304 304 303 304 301 303 301 302 302 304 302 301 300 297 297 297 297 297 294 293 293 295 294 295 292 291 292 292 292 292 291 291
299 300 300 301 304 305 306 305 306 306 301 298 298 299 298 299 298 299 300 299 300 301 302 303 300 303 302 302 303 303 301 299 300 299 298 297 297 296 296 295 295 295 294 294 292 292 292 293 292 292 291 291 291 291
298 297 297 299 301 302 304 305 300 298 297 297 297 298 298 299 299 299 300 299 300 300 300 299 302 301 298 300 300 299 298 298 298 298 298 297 297 297 296 296 294 293 293 293 293 293 293 292 291 291 290 290 289 288
294 294 296 298 299 300 300 299 297 296 296 297 297 297 298 298 299 299 299 299 300 299 299 298 297 298 297 296 298 298 297 298 298 298 298 297 297 296 295 294 293 293 293 293 292 291 291 290 290 289 288 286 285 285
291 291 292 296 297 297 297 296 296 295 295 296 297 297 297 297 297 298 298 298 298 298 298 297 292 296 296 295 297 297 298 298 298 298 297 298 296 295 294 294 293 293 292 292 291 291 290 289 287 285 284 284 284 283
291 291 291 292 294 296 296 296 296 295 295 295 296 296 296 296 296 297 297 297 297 298 298 293 293 295 296 296 298 299 298 298 298 297 296 295 294 294 293 293 293 292 292 291 289 288 287 285 284 284 283 282 282 282
291 291 291 291 292 294 295 295 295 295 294 295 294 295 295 294 294 295 296 297 297 297 296 296 296 296 297 297 297 297 298 298 298 298 296 293 292 293 292 292 291 290 288 288 287 285 284 283 282 282 281 280 279 279
290 290 291 291 292 294 293 294 294 294 294 294 295 294 294 294 294 294 294 295 295 294 295 296 296 296 296 297 297 297 296 296 296 296 295 294 292 291 290 289 288 288 286 284 283 283 282 281 280 279 278 278 277 277
290 290 290 291 292 293 292 293 294 294 290 293 293 293 293 294 294 293 293 293 292 293 293 294 294 294 294 293 294 295 293 293 292 292 291 291 290 288 288 287 285 283 283 282 282 280 279 278 277 277 277 276 276 276
290 290 290 291 291 288 291 290 291 291 292 290 287 286 287 292 292 292 289 291 291 292 293 293 293 292 291 290 291 290 289 289 289 288 288 288 287 286 284 283 282 282 281 280 278 278 277 277 276 276 276 276 275 275
291 289 290 288 290 289 288 288 289 291 291 287 288 283 290 290 286 283 286 287 286 287 288 289 289 289 288 286 286 285 285 286 287 288 286 285 284 282 281 281 280 279 278 277 277 277 276 276 275 275 275 274 274 274
283 289 289 288 289 289 282 286 286 289 289 283 285 288 289 287 286 286 284 283 284 285 285 286 287 286 285 285 285 285 285 285 284 284 282 281 281 280 279 278 277 277 276 276 276 275 275 274 274 274 274 273 273 273
285 289 289 289 289 289 289 289 289 288 285 287 287 287 286 289 283 283 282 282 283 284 284 285 285 285 284 283 283 282 282 282 281 281 280 279 278 277 276 276 275 275 275 274 274 274 274 273 273 273 273 272 271 271
289 290 287 289 290 290 289 286 284 287 289 290 290 285 286 286 284 280 280 281 281 282 283 283 283 283 282 282 281 281 280 279 278 277 276 276 275 275 274 274 273 273 273 273 273 273 272 272 272 272 271 271 270 270
291 290 290 290 290 289 288 288 288 289 289 289 285 281 280 279 279 279 280 280 280 280 281 281 280 280 279 279 278 277 276 276 276 275 275 275 274 273 273 273 273 273 272 272 272 271 271 271 271 270 270 270 269 269
290 289 290 288 286 284 287 288 288 288 288 287 285 282 279 277 278 279 279 279 279 279 279 278 278 278 277 276 275 275 275 275 274 274 274 273 273 272 272 272 271 271 271 271 271 271 271 270 270 269 269 269 269 269
290 290 290 289 288 288 287 288 288 288 287 286 284 283 278 276 276 276 276 277 277 277 277 277 276 275 275 275 274 274 274 274 273 272 272 271 271 271 270 270 271 271 270 270 270 270 270 269 269 269 269 268 268 268
288 287 287 282 288 287 287 287 287 286 285 284 281 280 277 276 276 275 274 275 275 275 275 274 274 274 274 273 273 273 272 271 271 271 270 270 270 270 270 270 270 270 269 269 269 269 269 268 268 268 268 268 267 267
286 286 285 285 285 285 285 284 282 283 283 280 278 277 277 276 274 274 273 274 274 273 273 273 273 273 273 272 272 272 271 270 269 269 270 270 270 270 270 270 269 269 269 269 269 268 268 268 268 268 267 267 266 266

GFSWCAN_850_thetae_018.txt.gz
Theta_e
298 300 301 302 303 303 309 309 307 307 308 310 311 312 314 313 315 319 319 319 319 321 318 316 317 318 318 321 325 317 319 317 316 325 328 322 325 317 316 315 317 319 320 320 314 323 322 310 314 318 317 316 314 314
302 305 304 305 307 308 307 306 307 308 310 311 312 314 314 313 317 319 319 319 320 321 320 317 316 317 318 320 320 317 322 319 320 323 319 318 318 312 319 323 313 318 318 319 316 318 313 311 314 315 313 313 314 314
307 307 306 307 306 306 306 307 308 310 311 312 314 315 314 313 317 318 319 318 319 319 319 320 320 317 317 318 318 320 317 318 316 317 316 318 320 317 320 320 317 314 311 316 314 315 313 312 311 311 311 312 312 313
307 306 306 306 307 308 309 310 311 313 314 315 316 316 315 313 316 317 317 317 319 320 319 320 318 318 317 318 318 318 319 317 315 313 316 313 321 312 318 316 318 315 312 315 315 314 313 313 313 312 312 313 313 314
306 307 308 309 310 312 313 314 315 317 317 316 317 316 314 313 315 318 316 318 319 318 319 320 318 318 318 318 317 317 317 316 315 315 314 322 312 314 309 312 316 312 315 317 318 314 314 314 312 312 313 313 313 313
308 308 308 309 310 310 311 314 317 318 318 317 315 315 314 314 318 315 316 317 318 318 320 323 316 316 316 316 316 315 314 314 315 318 314 311 308 315 316 319 314 312 312 312 313 312 312 313 313 311 311 308 307 307
308 308 308 308 308 308 309 313 317 318 319 317 314 313 315 317 317 315 317 317 316 317 317 317 318 317 316 316 317 317 317 316 318 314 310 311 312 314 312 320 311 308 308 310 311 312 314 307 307 304 304 302 303 300
308 308 308 308 308 308 308 310 314 317 318 318 317 316 317 317 315 315 316 315 314 313 313 318 315 316 316 314 312 315 315 316 312 309 307 310 308 311 317 309 306 305 306 310 305 308 305 303 302 301 301 301 299 298
309 309 308 308 308 309 308 308 311 314 314 314 314 314 315 316 315 315 314 313 312 312 316 315 319 318 312 310 310 311 312 313 309 313 312 312 310 315 304 302 303 302 303 304 302 302 302 301 300 299 299 298 297 297
310 309 309 309 309 309 309 309 310 309 310 310 310 310 310 314 316 314 312 311 311 312 311 306 307 311 311 310 308 311 310 312 313 311 309 313 307 300 299 299 300 301 302 303 302 300 300 299 298 297 297 296 296 296
310 311 311 309 310 310 310 309 310 310 309 309 310 313 313 311 310 310 309 311 311 312 307 306 307 309 307 313 311 307 311 310 313 312 313 313 307 300 299 299 301 302 301 301 301 299 298 298 297 296 296 296 295 295
310 310 311 311 310 310 310 310 309 309 309 311 312 311 310 310 310 309 308 308 311 310 305 308 306 307 307 309 310 307 311 307 313 307 311 312 302 298 298 298 299 299 299 298 298 298 297 297 296 296 294 292 290 290
309 310 310 310 310 310 311 310 310 310 311 311 311 310 309 306 310 315 310 310 308 304 305 306 306 306 306 307 306 309 312 312 306 309 310 306 299 298 298 297 298 298 297 296 295 295 294 292 291 291 291 291 291 291
306 308 308 309 309 309 310 310 310 310 310 310 307 307 308 309 305 305 305 304 300 302 305 306 303 306 305 307 306 314 303 304 309 310 309 301 298 298 297 297 296 294 293 293 294 293 292 291 291 291 291 291 291 291
304 305 306 309 309 309 310 310 309 310 308 302 302 303 302 297 298 298 299 300 300 302 304 305 305 306 305 306 304 304 307 309 308 308 302 298 298 298 297 296 294 294 294 295 294 293 292 292 292 291 291 291 291 290
301 303 305 305 307 307 308 309 310 309 301 299 298 301 298 300 299 299 300 299 301 302 303 304 302 305 305 307 307 310 309 308 305 302 298 298 297 297 297 294 294 295 295 294 292 292 293 292 292 291 291 290 289 287
300 300 301 302 304 305 304 303 300 298 298 298 298 298 299 299 298 298 299 299 300 301 301 301 307 305 302 305 305 304 305 303 299 298 298 297 297 297 296 296 295 294 293 293 293 293 292 291 291 290 289 288 286 285
296 297 299 300 300 300 299 298 297 297 297 296 298 297 297 298 298 298 298 299 300 299 300 301 299 303 305 305 304 301 298 298 298 297 297 297 297 296 295 295 293 293 293 293 292 291 290 289 288 287 286 285 284 283
291 292 296 298 299 297 297 296 296 296 295 296 297 297 297 297 297 297 297 297 298 298 298 299 302 303 303 301 298 297 297 297 298 297 297 297 296 295 295 293 293 293 292 291 290 289 288 287 286 284 283 283 282 281
291 291 292 293 295 296 296 295 295 295 296 295 295 295 295 295 296 296 297 297 297 299 299 300 299 297 297 295 296 297 297 297 297 296 296 295 295 294 293 293 292 292 291 289 288 287 286 284 283 282 281 280 279 278
292 291 292 292 293 295 294 294 294 294 294 294 294 294 295 294 294 294 295 297 297 298 298 294 294 295 295 295 296 296 296 296 296 296 295 292 292 292 291 291 291 289 288 287 286 284 283 282 281 280 279 278 278 277
291 291 291 291 292 293 293 293 293 293 294 294 295 295 296 296 295 294 294 296 296 294 293 293 294 294 293 294 295 296 296 297 296 296 295 293 291 290 289 288 287 287 286 284 283 282 280 279 278 278 277 277 277 276
291 290 290 291 291 291 291 292 294 292 295 294 294 295 295 295 293 293 295 294 292 289 290 291 292 292 292 290 290 290 291 292 293 291 289 289 289 287 286 286 285 283 282 281 279 278 278 277 277 277 276 276 276 275
290 290 290 291 290 290 290 291 291 292 293 293 294 294 293 293 291 293 293 290 287 286 288 288 288 288 287 287 288 287 287 288 289 288 287 286 286 285 284 283 282 280 279 278 277 277 276 276 276 275 275 275 274 274
291 289 290 289 289 289 290 290 291 292 293 292 293 294 292 290 293 292 290 286 286 284 284 286 287 286 285 284 284 284 285 286 287 287 285 284 283 282 281 279 278 278 277 277 276 276 275 275 275 274 274 273 273 272
291 289 290 290 290 291 290 292 291 292 292 292 292 290 290 292 291 289 286 283 283 283 284 284 284 285 285 284 284 284 283 283 282 283 282 281 280 278 277 276 276 276 276 275 275 275 275 274 274 273 273 271 271 272
290 290 289 289 289 289 291 289 290 291 292 293 292 292 292 292 289 285 282 281 281 282 283 283 284 283 283 282 282 282 281 281 281 280 279 277 277 276 276 275 275 274 274 274 274 273 273 272 272 272 271 271 270 271
289 290 290 289 290 289 291 291 291 291 292 290 291 290 290 289 287 280 278 280 281 281 281 282 282 281 281 280 280 279 279 278 277 276 276 276 276 275 275 274 273 273 272 272 272 271 271 271 271 271 271 270 270 270
290 289 289 288 289 289 289 290 290 289 287 288 290 287 282 277 278 278 279 279 279 279 280 279 279 279 279 278 277 276 276 276 275 275 274 274 273 273 272 272 271 271 271 271 270 270 271 270 270 270 270 270 269 269
289 289 289 286 288 289 288 287 289 288 287 286 284 281 278 276 277 278 278 278 278 278 278 278 278 277 275 275 275 275 275 275 274 273 273 272 271 271 271 270 270 271 271 271 271 270 270 270 269 269 269 269 269 268
289 289 289 288 289 287 287 287 287 287 286 284 283 280 276 275 275 276 276 276 277 277 276 276 275 274 274 274 273 273 273 273 272 271 271 270 270 270 270 270 270 270 270 270 270 270 269 269 269 269 268 268 268 268
287 286 286 288 288 286 286 286 286 285 283 281 278 279 276 275 274 274 274 274 275 275 274 274 273 273 273 273 273 272 272 271 271 270 270 270 270 270 270 270 270 269 269 269 269 269 269 268 268 268 268 267 267 267
285 285 284 285 285 285 284 283 281 282 281 279 276 276 276 275 274 273 273 273 273 273 272 273 273 273 272 272 272 271 271 270 270 269 269 270 270 270 270 269 269 269 269 269 268 268 268 268 267 267 267 266 266 266

GFSWCAN_850_thetae_021.txt.gz
Theta_e
294 294 295 297 298 299 299 300 301 303 303 306 306 310 310 312 313 317 324 316 318 318 319 319 318 318 318 320 327 322 322 321 322 326 330 327 329 323 321 320 321 321 323 324 322 323 323 313 316 317 319 315 315 315
295 296 297 298 299 300 300 302 305 303 306 311 309 309 311 313 314 319 323 317 320 321 323 322 321 320 320 321 323 321 323 323 323 326 327 328 324 317 324 324 318 322 321 322 319 320 316 314 314 314 315 315 314 314
298 298 299 300 302 301 302 304 308 309 308 308 310 311 312 312 314 318 322 319 318 324 322 320 321 317 319 321 323 323 324 323 323 325 325 327 324 323 323 324 322 319 316 318 317 316 315 314 314 314 314 314 315 315
300 301 303 303 304 306 308 308 307 308 309 310 311 312 313 313 314 320 323 319 321 322 324 323 320 320 317 318 319 324 323 321 321 322 324 319 325 320 325 322 321 318 316 317 317 316 315 315 315 315 315 315 316 316
306 306 305 306 306 307 307 308 309 310 311 311 312 313 313 313 315 319 319 318 319 321 322 322 319 318 318 318 319 318 320 319 320 322 318 326 319 320 318 318 320 316 316 319 319 317 316 316 315 315 316 315 314 314
308 309 309 310 311 312 312 311 310 310 311 312 313 314 314 314 315 318 317 318 318 320 323 324 319 318 319 319 319 320 321 321 322 323 322 318 316 320 321 321 317 315 315 314 316 315 316 315 311 310 308 307 306 306
309 309 310 311 313 314 315 316 316 316 315 315 315 315 313 314 315 318 317 317 317 318 319 321 321 317 317 319 318 320 321 321 322 321 317 320 317 319 318 321 316 312 311 313 311 313 316 310 309 307 306 305 302 301
309 309 309 310 314 317 317 317 317 317 317 316 316 316 314 314 316 317 316 316 317 317 321 322 318 319 317 318 318 317 319 321 317 314 314 317 314 318 321 314 311 309 310 310 308 309 308 307 306 304 303 301 299 298
309 311 312 312 313 315 317 318 317 317 316 315 315 314 314 317 315 314 315 315 316 314 320 320 318 321 314 312 313 315 317 318 313 314 316 317 313 318 311 309 308 307 308 308 307 306 306 304 301 300 300 299 298 297
309 309 310 312 314 313 313 314 316 316 315 315 316 316 316 316 314 314 313 313 314 314 313 311 313 315 315 312 311 314 313 315 316 313 312 315 314 304 304 304 304 305 307 306 305 304 301 300 300 299 299 299 299 299
309 309 310 310 309 311 312 311 310 311 312 312 312 313 314 315 314 312 313 316 316 317 310 309 310 313 311 316 311 309 313 313 315 315 314 315 313 305 302 302 302 303 304 304 303 300 300 300 299 299 298 297 295 292
310 310 310 310 309 309 310 310 310 310 311 311 312 311 312 311 313 315 311 310 314 313 306 309 308 309 308 312 311 310 310 310 315 310 315 314 305 301 299 300 300 301 301 300 300 299 299 298 297 295 292 291 291 291
310 311 311 310 310 310 310 310 309 311 311 310 311 310 312 308 315 313 310 312 311 305 305 307 308 308 308 309 309 311 313 315 310 313 312 308 301 299 298 301 300 300 299 298 297 295 294 292 291 291 291 291 291 291
309 310 310 310 310 311 310 310 310 311 311 310 308 309 309 313 306 305 306 305 301 302 306 307 306 308 307 308 310 310 305 309 312 313 312 302 299 298 299 299 299 297 295 295 295 292 291 291 291 291 291 291 291 290
307 309 309 310 309 310 310 310 311 311 308 303 304 305 303 298 298 299 299 300 301 302 305 308 308 309 308 309 308 308 308 311 312 312 305 299 298 298 298 298 296 294 295 296 295 292 292 292 292 291 291 290 290 289
305 307 307 308 309 309 309 310 310 307 301 299 299 301 299 301 300 299 299 299 301 303 305 305 307 310 307 309 311 313 313 312 308 304 299 299 298 298 298 296 296 297 296 295 293 292 292 292 292 291 290 289 288 287
304 303 304 305 304 303 308 310 304 299 299 299 298 298 299 298 297 297 298 299 301 302 302 304 310 307 304 309 308 308 308 305 299 298 298 299 298 297 297 296 295 295 295 293 292 292 293 292 291 290 288 288 286 285
300 300 300 300 299 300 299 298 298 298 298 298 299 297 296 297 297 297 297 299 301 300 300 302 301 306 308 308 307 303 299 298 299 298 298 297 297 296 296 296 295 294 293 293 292 292 291 290 288 287 286 285 284 284
295 298 300 300 298 297 297 296 298 297 297 296 296 297 296 297 297 297 298 298 299 300 301 302 305 305 304 300 299 298 298 298 297 297 297 296 296 296 295 295 293 293 292 291 290 289 288 288 286 284 283 282 281 281
292 293 294 296 295 296 296 296 297 297 297 296 296 296 296 296 295 296 297 298 300 301 300 300 298 296 295 294 295 296 297 298 298 297 296 296 296 295 294 292 291 289 289 290 288 286 285 284 283 282 281 280 279 279
292 291 292 293 293 294 294 296 295 296 296 296 295 297 296 296 296 296 297 298 299 297 298 295 294 293 293 293 293 294 296 296 297 297 296 293 291 292 290 289 288 288 287 286 285 283 283 282 281 280 279 278 277 277
291 291 291 291 292 293 294 294 295 295 295 295 296 296 296 297 296 295 296 297 294 291 291 291 290 292 291 291 292 292 292 293 294 295 294 291 289 287 286 285 285 284 284 282 282 281 280 280 279 278 277 276 276 276
291 291 291 291 292 293 293 293 294 294 296 296 296 296 295 295 294 295 295 293 290 288 289 289 288 288 287 287 288 289 289 288 287 287 287 287 285 285 285 284 284 282 281 282 280 279 278 278 277 276 275 275 275 275
292 291 291 292 293 293 292 292 292 294 295 295 296 295 293 294 294 295 293 290 287 287 287 287 289 288 287 286 286 285 284 286 286 285 284 285 285 284 284 283 283 282 281 279 278 277 276 275 275 274 273 273 273 273
292 290 292 293 292 293 294 293 294 295 294 294 295 295 293 293 294 293 291 288 286 284 284 285 285 285 285 283 282 284 284 285 285 285 282 281 282 282 282 280 279 278 277 277 276 275 274 274 273 272 272 272 271 271
292 291 292 292 292 294 293 294 293 293 293 294 293 293 293 294 293 291 288 284 284 282 281 282 284 284 281 281 281 281 282 282 282 283 282 281 280 278 277 276 276 275 276 275 274 274 273 272 272 272 271 271 271 270
292 291 291 290 290 291 293 292 292 293 293 294 293 293 294 294 292 287 283 281 281 280 281 282 280 280 279 278 281 281 281 281 281 279 278 277 277 276 276 275 275 274 274 273 273 272 272 272 271 270 269 270 269 268
290 291 292 290 291 292 292 293 293 292 292 291 292 292 292 291 289 282 280 279 279 280 281 281 281 281 280 280 279 278 277 276 276 276 276 276 276 275 275 274 274 273 273 272 272 272 271 271 269 268 268 268 267 267
291 290 290 290 291 291 291 291 291 289 289 290 292 290 285 280 277 278 277 278 279 278 277 277 278 278 278 277 276 276 275 275 275 274 274 275 274 273 273 272 271 271 271 271 271 271 270 270 269 269 269 268 267 266
290 290 291 290 290 291 289 289 289 287 285 284 283 281 279 276 275 276 276 277 277 277 277 277 277 275 275 275 274 274 275 275 274 273 273 272 271 271 270 269 269 269 270 270 270 269 268 269 268 267 266 266 266 266
289 290 290 290 290 288 287 287 286 285 284 282 282 282 280 276 274 275 276 276 276 276 274 274 274 274 274 273 273 273 272 273 273 272 271 271 270 270 268 269 269 269 269 269 269 268 268 268 267 266 266 265 266 267
288 287 288 289 289 285 285 286 286 287 285 284 281 279 277 279 278 273 274 273 273 273 274 273 272 273 273 273 273 272 272 271 271 271 270 270 270 269 269 269 269 268 268 268 268 267 266 267 267 266 266 266 266 266
287 287 286 287 287 287 285 285 285 285 284 282 279 279 277 278 276 272 273 273 273 272 272 272 273 273 273 272 272 271 271 271 271 270 270 270 270 270 269 269 268 268 268 267 267 267 266 266 267 266 266 266 266 266

GFSWCAN_850_thetae_024.txt.gz
Theta_e
295 295 295 295 295 297 297 295 295 297 298 299 300 300 303 305 308 309 313 318 319 320 320 321 319 318 323 325 328 324 324 323 329 329 331 332 330 328 326 321 322 322 326 324 327 323 323 315 316 318 321 316 315 315
295 294 294 295 296 296 295 296 297 298 300 301 301 301 305 306 308 309 314 318 324 324 324 322 320 319 319 322 325 322 324 324 326 329 328 333 322 318 325 328 319 324 324 328 322 324 318 315 315 314 315 315 315 315
294 294 294 295 295 295 297 299 299 300 301 301 302 304 308 309 310 311 314 319 324 323 323 321 323 319 318 320 325 324 324 324 324 326 330 331 320 326 323 329 325 320 318 323 321 316 316 315 315 315 315 316 316 316
294 295 295 297 298 298 299 299 300 301 302 302 303 305 309 311 311 314 313 317 324 322 322 324 321 320 319 322 324 325 326 324 326 325 328 317 323 323 328 327 330 321 318 318 319 318 316 316 317 317 317 317 317 316
297 298 298 299 299 299 299 301 302 303 304 306 309 310 311 311 312 311 313 321 323 321 323 322 321 319 317 318 321 323 325 323 325 325 315 330 323 325 322 324 326 318 318 323 324 318 318 317 315 314 313 311 310 310
300 301 301 302 302 302 303 305 306 305 307 309 310 310 310 312 312 314 318 319 320 324 322 325 320 321 320 321 321 322 323 323 323 326 324 321 319 324 324 325 318 317 316 316 318 316 317 314 311 309 308 307 306 305
306 307 307 306 306 307 307 308 308 309 310 311 311 311 312 312 313 318 317 318 319 322 321 321 319 319 322 321 322 322 323 324 324 323 323 321 318 322 318 325 318 314 313 315 313 314 313 313 309 308 305 303 303 302
310 311 311 311 311 310 308 309 309 309 310 311 312 312 313 313 316 318 315 317 318 319 321 319 314 319 320 321 320 321 323 323 320 318 319 322 317 321 324 317 313 311 312 311 310 311 310 308 306 303 302 301 300 299
311 312 315 316 315 315 314 312 311 311 312 312 313 314 314 314 317 316 315 317 316 316 318 318 317 320 317 315 316 317 321 320 316 316 322 319 315 320 317 313 311 310 312 310 309 308 306 304 303 302 300 299 298 298
311 311 313 315 316 316 316 316 316 315 315 315 315 316 316 316 313 314 314 317 313 313 316 313 315 317 315 313 312 314 314 316 316 315 314 317 316 309 308 308 308 308 309 308 306 303 302 301 301 300 300 299 298 297
310 310 311 312 314 314 315 316 316 315 315 315 314 313 313 313 312 312 313 316 314 315 312 310 312 316 314 317 313 312 315 315 316 315 317 315 314 307 305 305 305 306 306 306 305 302 301 301 300 299 297 295 293 291
309 309 310 310 310 313 314 315 315 316 315 314 314 311 310 311 310 310 312 311 315 314 306 310 310 311 311 314 312 311 311 312 315 311 314 314 309 304 303 302 303 303 303 302 301 300 299 298 297 296 292 291 291 291
310 309 310 311 310 310 310 311 311 312 313 313 311 310 311 309 312 315 311 311 309 305 305 308 308 309 309 311 310 310 311 315 311 312 312 310 303 302 302 302 301 300 300 299 297 296 296 294 292 291 291 291 292 291
310 310 309 310 310 309 310 311 311 311 311 309 308 307 306 308 304 304 304 304 300 303 307 307 307 308 307 308 309 310 306 310 312 313 312 304 301 300 301 300 299 298 297 296 295 292 291 291 291 291 291 290 290 289
309 309 310 310 310 309 310 310 311 311 308 303 303 304 302 298 299 299 299 300 301 304 307 309 309 309 307 306 308 307 309 312 311 312 305 301 300 300 300 299 298 295 295 295 292 292 292 291 291 291 290 290 289 288
309 309 309 309 310 310 310 310 310 309 300 299 298 301 300 301 300 299 299 299 302 304 306 307 308 309 307 309 311 309 313 312 307 302 299 299 299 299 299 296 295 296 297 296 292 292 292 292 291 290 289 289 288 288
306 304 303 305 306 309 308 309 302 299 299 299 298 297 298 298 298 297 298 300 302 302 303 305 308 305 305 309 308 305 305 303 299 298 298 298 299 298 296 296 297 296 295 294 292 292 292 292 290 289 288 288 286 286
302 299 298 298 299 302 305 301 299 299 298 297 298 297 297 297 297 297 299 300 301 301 301 302 302 306 307 307 305 301 298 298 298 298 298 298 298 297 297 296 296 295 294 293 292 292 291 290 288 287 286 285 284 284
299 300 300 297 296 297 298 298 298 298 297 297 297 297 297 297 297 297 300 301 301 301 302 302 302 301 300 296 296 297 298 298 297 297 297 297 297 297 296 296 295 294 292 291 291 290 289 288 286 285 285 283 282 282
293 293 294 295 295 296 297 297 298 298 298 296 296 297 297 297 296 297 299 300 301 300 298 298 296 294 294 292 292 294 296 297 297 296 296 296 296 296 295 295 292 291 291 290 289 287 286 285 284 283 282 281 280 279
292 292 293 294 294 296 296 297 297 297 297 297 297 297 297 296 296 297 298 297 295 294 295 293 292 291 291 291 292 293 294 296 296 296 296 295 294 294 293 291 290 289 288 287 286 285 284 283 282 280 279 279 278 278
292 292 292 292 292 294 295 296 296 296 296 297 297 297 297 297 297 296 296 293 291 290 291 290 289 289 288 288 289 290 290 292 293 293 292 291 290 289 287 287 287 286 285 284 283 282 281 281 280 278 278 277 277 277
292 292 292 292 292 293 293 294 294 295 296 296 297 296 295 295 295 296 294 291 289 287 288 289 287 287 286 285 285 287 287 288 288 288 288 287 286 286 285 285 284 283 283 282 282 280 279 277 277 277 276 275 275 275
293 292 292 293 294 293 293 293 295 295 295 296 296 295 294 294 295 294 292 289 287 286 286 287 288 288 286 283 282 283 283 284 284 283 283 284 284 283 283 283 283 282 280 278 278 277 276 276 275 275 274 274 274 273
293 291 294 294 294 295 295 294 295 295 294 295 296 295 294 295 295 293 291 288 285 284 284 286 284 285 285 283 281 282 282 282 283 282 281 280 281 280 280 279 278 277 277 276 276 276 275 274 273 273 272 272 272 272
293 291 292 293 293 294 294 294 294 294 294 294 293 292 293 295 294 292 288 285 283 282 281 282 284 283 281 280 279 279 281 280 280 281 280 280 279 278 278 277 277 277 276 275 274 274 273 272 271 271 271 271 271 271
292 292 291 291 292 293 293 293 294 295 295 295 294 294 295 295 292 287 283 281 281 279 280 280 280 280 279 278 278 279 280 279 279 278 277 277 277 277 276 276 275 274 273 273 273 272 272 271 270 270 270 270 270 269
291 290 291 292 292 292 293 293 293 293 293 291 294 293 292 289 286 282 281 280 279 279 280 280 280 280 279 278 277 277 277 277 277 276 277 277 276 276 275 274 273 273 272 271 271 271 271 270 270 269 268 268 268 268
291 290 292 290 292 291 291 292 292 289 288 289 292 290 285 280 278 279 278 279 279 280 279 278 277 277 276 276 276 275 275 275 275 275 275 275 275 273 273 272 271 271 270 270 269 268 268 268 268 267 267 268 267 267
290 290 292 291 291 291 289 288 288 286 285 285 284 281 279 276 276 277 277 277 277 277 277 276 275 275 275 276 274 274 275 274 274 273 273 272 272 271 271 269 269 269 268 268 267 267 267 266 267 267 267 267 267 266
289 290 291 291 290 288 287 287 287 286 285 283 283 283 279 276 275 275 275 275 275 275 275 275 274 273 273 273 273 273 273 273 272 272 272 271 271 270 268 268 268 267 267 267 266 266 265 265 265 265 266 266 265 265
288 288 289 290 290 286 286 286 287 288 286 285 282 281 279 280 278 274 274 274 274 273 273 273 273 272 273 273 272 272 272 271 271 271 271 271 270 270 270 269 269 267 266 266 265 265 265 265 265 265 264 265 264 265
288 288 288 288 288 288 287 286 287 286 285 283 281 280 278 278 276 273 272 272 273 272 271 272 273 273 273 272 271 271 270 269 270 270 269 270 269 269 269 269 268 268 267 267 267 266 264 265 265 264 264 265 264 264

GFSWCAN_850_thetae_027.txt.gz
Theta_e
294 294 294 294 294 295 297 298 298 299 300 300 300 300 299 300 302 304 305 308 312 316 321 321 319 321 323 323 319 322 321 319 316 317 315 314 313 314 316 319 316 314 313 309 313 314 316 315 315 311 315 315 315 314
294 295 295 295 295 294 298 298 297 298 299 299 299 299 299 300 303 304 304 307 311 311 317 323 321 320 322 323 323 321 323 321 323 319 316 313 315 310 314 314 318 316 317 314 315 313 315 314 314 314 314 314 315 316
295 295 295 294 294 295 298 297 295 296 298 298 299 299 300 300 302 304 304 307 309 312 315 319 321 323 324 324 322 321 323 323 325 324 318 314 316 308 314 313 318 318 318 314 314 316 315 314 315 316 315 316 316 317
295 295 294 294 294 296 297 295 295 296 297 298 299 300 301 301 306 306 304 308 311 314 315 322 321 321 325 324 323 321 323 324 325 322 317 310 315 321 310 315 313 316 315 316 314 315 317 316 316 316 316 316 314 314
294 294 294 295 296 295 295 296 297 298 299 300 301 301 301 304 305 306 307 309 311 313 318 321 320 319 323 324 323 324 324 324 324 316 306 312 317 315 310 309 309 316 315 311 309 317 314 312 312 313 313 310 308 310
295 295 295 295 295 296 298 299 299 300 301 301 301 302 303 305 307 307 309 310 313 313 314 315 320 321 319 321 323 325 324 324 324 322 319 320 319 316 309 307 316 316 317 318 316 316 313 310 311 309 309 308 307 307
297 297 297 297 298 298 299 299 299 300 301 302 301 303 304 308 308 308 311 315 316 312 316 311 311 321 322 322 323 323 323 324 324 323 323 317 317 318 305 310 314 314 314 313 314 312 310 310 305 307 307 305 304 302
300 300 300 301 301 301 301 302 303 303 303 304 304 305 308 310 309 309 311 316 318 320 319 312 311 316 320 321 320 322 323 321 319 317 320 314 317 317 310 312 312 312 311 311 312 314 308 306 305 303 302 301 299 298
306 306 306 306 305 304 304 305 304 304 307 308 308 310 310 310 311 314 315 315 316 317 313 311 312 315 318 315 317 319 321 310 316 308 310 312 304 311 314 311 311 311 311 309 308 307 306 304 302 301 299 298 298 298
309 308 309 308 308 308 309 309 310 309 309 310 311 312 315 314 313 316 314 314 313 312 313 306 312 312 313 312 312 312 314 311 308 310 314 306 304 307 308 309 309 310 309 308 306 303 302 301 300 299 299 298 298 298
313 314 313 311 310 309 310 311 311 311 312 314 314 313 312 314 312 312 311 311 312 304 310 310 311 311 314 309 308 311 308 306 307 308 308 309 306 306 306 306 307 308 308 307 307 304 302 300 299 299 298 296 293 291
310 312 314 315 314 312 311 311 312 313 315 314 313 312 312 312 310 307 305 304 308 308 306 307 309 311 312 313 306 310 308 305 310 309 310 308 304 304 305 305 305 305 305 303 302 301 300 300 299 297 292 291 291 290
310 310 311 312 314 315 314 314 314 313 314 313 313 310 309 306 309 309 307 308 307 303 305 308 305 309 309 310 308 306 312 310 308 309 308 303 304 303 303 302 302 301 301 300 299 299 299 298 294 292 291 291 290 290
310 310 310 310 311 313 313 312 313 312 313 309 305 304 304 306 302 301 302 302 301 303 306 307 306 306 307 304 304 308 304 305 310 310 307 302 302 302 302 301 300 298 298 299 298 297 294 292 291 291 291 290 290 289
310 310 310 310 310 311 311 311 311 312 308 302 301 302 300 298 299 299 299 300 301 304 307 308 306 306 303 305 304 305 308 309 308 305 302 301 302 301 300 299 298 297 297 294 292 291 291 291 291 290 290 289 288 288
310 310 310 310 310 310 311 311 311 308 300 299 298 300 300 300 299 298 299 300 302 304 306 307 303 305 305 305 307 308 308 305 303 300 300 300 301 300 298 297 296 295 294 293 292 291 291 291 290 290 289 288 287 287
309 304 307 309 309 310 310 310 307 299 299 298 297 297 298 298 297 298 299 300 302 302 302 302 305 303 302 306 304 301 301 300 298 298 299 299 299 298 297 296 296 296 296 293 292 292 292 291 289 289 288 286 286 285
298 298 299 304 307 309 306 300 298 298 297 297 297 297 297 297 298 299 300 300 300 300 300 301 302 302 301 302 300 299 297 297 298 298 298 298 298 297 296 296 296 296 295 293 292 292 290 289 288 287 286 285 284 284
298 298 296 296 297 298 298 298 298 297 297 297 297 297 296 297 298 299 300 302 300 300 300 298 297 297 296 293 293 293 296 297 297 297 297 298 297 296 296 296 295 295 294 292 291 289 289 288 287 286 285 284 283 282
293 294 295 295 296 297 297 297 297 297 297 297 297 296 297 297 297 296 295 296 296 296 294 294 293 291 291 290 291 291 295 296 297 297 296 296 296 296 296 295 294 292 291 290 289 288 287 286 285 285 282 282 281 280
293 293 294 295 296 296 297 297 297 297 297 297 296 296 296 296 296 294 292 291 291 292 292 290 289 288 288 288 290 291 292 295 295 295 294 294 293 293 293 291 291 290 289 287 286 285 284 284 282 280 279 279 278 278
292 293 292 292 293 295 295 296 296 296 296 296 296 296 296 295 296 295 290 289 289 289 289 288 288 287 286 286 287 288 288 290 291 292 292 291 290 289 288 287 288 286 285 285 284 284 283 282 281 278 277 277 277 276
293 293 292 292 292 292 292 294 295 296 291 296 296 294 294 295 295 294 291 289 287 287 287 287 286 285 285 284 285 285 286 287 287 287 287 287 286 285 285 285 285 284 283 282 281 281 280 278 277 277 277 276 275 275
293 293 293 294 293 292 293 294 295 295 294 292 290 292 293 293 294 291 289 287 285 286 286 286 286 284 283 283 283 282 282 283 283 283 283 283 283 282 282 282 282 281 280 279 277 276 276 276 275 275 274 273 273 273
292 291 293 290 294 294 290 293 294 293 294 293 290 292 293 294 288 289 289 286 283 283 284 284 284 284 282 281 281 281 281 282 282 282 281 280 280 280 279 279 278 278 277 276 276 275 274 274 273 273 272 272 271 271
291 290 291 291 292 293 293 293 293 293 294 293 293 292 293 292 288 287 286 282 281 281 281 282 282 281 280 280 280 280 280 280 281 281 279 279 279 278 278 277 277 276 275 275 274 273 273 272 272 272 271 271 270 270
291 292 291 292 293 293 293 293 294 292 289 291 292 293 292 291 284 284 282 281 280 280 280 280 280 279 278 277 277 278 277 277 277 277 277 277 277 276 276 275 274 274 274 274 273 273 272 272 272 271 270 269 269 269
290 291 292 291 292 292 293 292 291 290 290 289 292 287 285 284 281 281 280 280 279 279 279 279 279 278 278 278 278 277 277 277 276 276 276 276 276 275 275 273 273 272 272 271 271 271 270 270 269 269 269 268 268 268
290 291 291 290 291 290 290 291 291 288 286 288 288 284 281 278 278 278 279 279 279 278 278 277 277 277 276 276 275 274 274 274 275 275 274 274 274 274 272 271 271 271 270 270 270 269 268 268 267 267 267 267 267 266
289 291 291 290 289 289 287 288 286 285 284 284 282 279 277 276 276 277 277 277 277 277 276 276 276 276 276 275 275 275 275 274 273 273 272 272 271 271 270 270 270 270 270 269 269 269 268 267 267 266 266 266 266 266
289 290 290 290 288 286 286 286 285 284 283 283 283 280 276 275 275 275 275 275 275 275 275 274 274 273 273 274 273 273 272 272 272 272 271 271 271 270 270 269 269 269 268 267 266 266 266 266 265 265 265 265 265 265
287 287 288 285 288 286 286 286 287 287 283 283 281 280 278 278 274 274 273 273 274 274 273 273 273 273 273 272 271 271 271 271 271 270 270 270 270 270 269 269 268 268 268 267 266 266 266 266 265 265 264 264 264 264
288 287 287 287 287 287 285 285 287 284 283 281 280 279 278 276 274 272 272 272 272 272 272 273 273 273 272 271 271 270 270 269 269 268 268 268 268 268 267 267 267 266 266 266 266 266 265 265 264 264 264 264 264 264

GFSWCAN_850_thetae_030.txt.gz
Theta_e
295 295 294 295 295 295 295 296 295 295 295 295 295 297 298 301 302 302 304 304 305 309 313 318 316 315 318 320 319 320 320 319 311 314 313 311 308 313 313 315 314 312 310 307 311 309 313 314 313 312 310 314 314 314
295 296 296 296 295 295 295 295 295 296 296 296 296 298 300 302 302 302 303 303 307 305 311 314 318 316 316 320 321 321 320 320 319 316 313 310 312 308 311 315 315 314 311 311 311 311 313 313 314 315 314 314 315 315
295 294 294 294 295 296 297 297 298 298 297 297 297 299 301 302 302 301 302 304 304 306 310 315 319 322 319 318 322 321 321 322 322 320 314 313 312 305 312 309 314 315 316 313 313 314 313 314 313 314 315 315 315 316
295 295 294 294 295 297 298 298 299 299 300 299 299 300 301 300 300 301 302 303 306 310 311 318 321 322 322 320 322 322 320 321 324 324 311 308 311 312 306 311 310 313 314 314 312 315 315 314 313 313 313 313 313 313
295 295 294 294 294 298 297 296 297 299 300 300 300 300 299 299 299 301 302 303 309 311 312 312 319 323 324 322 322 322 320 321 322 313 305 308 308 313 303 306 307 314 312 310 310 315 313 312 310 312 312 311 310 311
294 294 294 294 294 297 296 294 295 297 298 299 299 299 300 300 300 302 304 304 306 309 309 310 318 321 323 324 323 322 321 323 321 318 311 317 319 313 306 306 313 316 316 315 315 315 314 310 309 309 311 308 307 307
294 294 294 296 296 295 294 295 296 297 298 299 299 300 300 302 304 305 307 310 309 307 307 310 311 320 321 323 323 323 324 323 321 320 317 314 316 314 302 310 313 314 316 316 316 314 307 308 306 306 307 305 304 302
296 295 295 295 295 295 297 298 298 299 299 300 301 301 302 304 305 306 309 311 312 310 311 310 313 315 319 318 318 321 320 319 317 317 318 308 315 309 310 311 313 312 312 312 312 314 312 307 305 304 303 301 300 298
296 296 296 297 297 298 298 299 299 299 300 301 302 303 305 308 308 307 309 312 310 313 312 307 311 315 316 314 316 318 316 310 313 307 308 310 306 308 311 310 310 310 312 307 309 309 306 305 303 301 300 298 298 297
299 297 297 297 298 298 298 299 300 301 302 302 302 306 307 308 308 309 309 312 313 313 311 306 311 311 314 311 309 309 311 307 310 308 312 305 306 306 309 310 310 310 310 308 305 302 302 300 300 298 298 298 298 297
306 303 303 302 302 302 301 302 303 304 304 305 310 311 309 308 307 310 310 308 309 304 307 310 311 310 314 309 307 309 307 303 308 308 307 307 307 304 306 308 308 309 308 308 308 305 303 303 300 299 298 298 296 293
309 308 307 306 305 304 303 303 304 305 307 311 310 310 308 309 308 305 304 305 305 307 306 306 309 311 312 311 307 307 307 303 307 307 305 311 305 305 306 306 307 306 306 305 305 303 301 300 299 298 297 293 291 291
312 309 309 309 309 310 309 310 310 312 312 311 310 309 308 304 306 304 307 307 306 302 305 307 305 309 309 310 305 304 307 306 305 309 308 302 303 304 304 304 304 304 304 303 301 301 300 299 296 296 292 291 290 290
311 313 311 310 309 311 311 311 310 310 311 308 303 302 303 303 301 301 302 302 301 303 306 307 305 305 307 305 302 308 304 304 304 304 304 302 302 302 301 302 303 301 302 301 300 299 298 296 292 292 291 290 289 288
309 310 312 311 311 311 312 311 311 311 307 300 300 301 300 298 298 299 299 300 302 304 307 306 305 306 302 305 303 304 307 307 304 304 302 302 302 300 299 300 300 299 299 298 297 295 293 293 293 291 290 289 288 288
310 309 309 310 311 310 310 310 311 305 300 298 297 299 298 299 298 298 299 300 302 305 306 305 303 304 304 304 306 306 306 305 302 299 299 301 300 300 299 298 297 297 297 293 292 293 292 291 290 289 288 287 287 287
310 308 309 310 310 311 311 311 303 298 297 296 297 296 297 297 298 298 298 299 302 303 302 301 303 303 302 303 301 300 299 298 297 298 299 300 299 299 298 297 296 294 293 295 293 291 290 289 289 288 288 286 286 286
306 305 307 308 308 310 309 301 298 297 297 296 296 296 297 296 296 296 299 300 301 300 300 300 300 298 297 298 296 294 296 296 297 298 298 298 298 298 297 296 296 296 294 292 291 291 290 288 287 287 286 286 285 284
296 297 302 303 299 301 299 298 298 296 296 297 297 297 297 295 294 295 297 298 297 297 297 295 294 294 293 291 290 291 293 295 296 296 297 297 297 297 296 296 296 295 293 292 291 290 288 287 286 285 285 284 284 282
295 295 295 297 298 298 297 297 297 297 296 296 296 296 295 294 292 291 292 293 293 292 292 291 289 288 288 287 288 289 292 295 296 295 295 295 296 296 295 295 294 293 291 290 289 288 287 285 284 283 282 281 280 280
294 294 296 298 296 296 296 296 297 297 297 296 296 296 296 294 290 289 288 289 289 290 289 288 286 285 286 287 288 289 291 294 295 294 292 292 292 293 292 291 291 290 289 287 286 284 284 284 283 282 282 281 279 278
293 293 293 293 295 295 295 296 296 296 296 296 296 294 294 294 293 289 287 287 287 287 287 286 285 284 284 284 285 287 287 289 289 289 289 288 288 288 287 287 287 286 285 284 284 283 282 281 281 280 279 278 277 276
293 293 292 292 291 292 293 294 295 295 290 294 294 292 293 294 293 290 288 286 285 285 285 285 284 283 283 283 284 285 285 286 286 286 286 286 285 285 285 284 284 283 282 281 281 281 281 280 279 277 276 276 275 275
294 293 293 295 293 290 294 294 294 293 294 288 288 290 291 293 290 288 285 284 282 284 284 284 283 283 283 283 282 282 282 283 283 283 282 283 283 282 282 281 281 281 279 278 278 277 276 276 275 275 274 274 273 273
292 289 291 285 292 291 290 289 289 288 288 285 288 291 291 293 285 283 284 282 281 282 282 282 282 282 281 280 280 281 281 281 282 282 280 280 280 280 280 279 278 278 276 275 275 275 274 274 273 273 272 272 271 271
290 290 288 291 291 291 292 291 291 291 285 286 290 292 292 282 279 281 283 280 279 280 280 280 280 280 279 279 279 279 279 279 279 280 278 278 277 277 277 276 275 275 275 274 274 273 272 272 271 271 270 270 270 270
290 288 291 292 293 292 292 293 292 286 283 285 284 284 287 280 280 282 280 279 279 279 279 279 279 279 278 278 277 277 277 277 277 277 277 276 276 275 275 274 273 273 272 272 272 272 272 271 271 270 270 269 269 268
291 291 289 290 290 291 286 286 282 284 286 287 287 280 279 276 278 279 279 279 279 278 278 278 277 277 277 276 275 276 277 276 276 276 275 275 274 274 273 272 271 271 271 271 270 270 269 269 268 268 267 267 267 267
290 290 289 288 289 288 287 286 286 286 285 286 282 278 278 276 276 277 278 278 277 277 277 276 276 276 276 275 274 274 273 273 273 273 273 272 272 272 272 271 271 270 270 269 268 268 268 266 267 267 266 266 266 266
289 290 289 288 281 282 286 286 284 284 283 282 278 275 275 274 275 276 276 277 277 276 275 275 275 275 275 275 274 274 274 274 273 272 272 271 271 270 270 270 269 269 269 269 268 268 267 267 267 266 266 265 265 265
288 289 289 287 285 285 286 284 283 282 282 281 280 276 274 274 274 274 274 274 274 274 274 274 273 273 273 273 273 272 272 272 271 271 270 269 269 269 269 268 268 268 268 267 267 267 266 266 266 265 265 265 264 264
287 287 287 280 285 285 286 285 284 283 282 280 278 277 276 275 273 273 272 272 273 273 273 272 273 273 273 272 271 271 270 270 269 269 268 268 268 268 268 267 267 267 267 267 266 266 265 265 265 264 264 264 263 263
287 286 285 285 285 286 285 285 285 281 281 279 279 277 276 274 272 271 271 272 272 272 272 272 272 272 271 271 270 270 269 269 268 268 268 268 267 267 267 267 266 266 266 265 265 264 264 264 263 263 264 263 263 263

GFSWCAN_850_thetae_033.txt.gz
Theta_e
301 302 301 299 298 298 299 298 297 296 295 295 294 294 295 296 297 299 300 305 306 304 308 313 315 315 313 312 313 314 320 319 308 314 313 309 309 313 312 313 312 314 311 308 305 305 312 311 312 310 309 312 314 314
298 298 298 298 297 297 297 296 294 295 295 294 296 297 297 297 299 299 302 304 305 305 307 310 314 315 314 314 315 319 318 319 318 314 310 310 309 305 311 314 313 314 310 311 311 311 310 312 312 313 315 314 313 313
296 295 295 295 295 295 295 294 294 294 294 296 296 296 297 298 299 299 303 304 304 304 305 309 314 316 316 315 314 320 319 320 319 319 313 310 312 305 312 309 313 313 312 311 311 313 313 313 314 314 314 314 314 314
296 296 296 296 296 295 295 296 296 296 296 296 295 296 297 297 299 300 303 303 304 306 308 312 317 318 320 318 316 317 321 321 321 320 312 308 310 310 307 310 309 311 313 312 312 313 313 313 313 313 314 314 315 315
294 295 295 296 296 296 296 296 296 296 295 295 295 297 298 301 301 302 303 303 306 305 308 308 311 319 321 319 316 319 321 322 321 312 305 311 308 310 301 305 305 312 312 311 311 314 312 313 312 312 313 312 313 313
294 294 295 298 298 298 298 298 298 297 297 296 297 299 302 302 302 301 301 302 303 307 307 307 311 316 321 322 318 316 318 322 321 315 310 315 317 313 310 307 312 315 314 315 313 315 313 312 310 310 311 310 309 309
294 295 297 297 296 296 298 299 299 300 299 299 300 301 302 302 300 302 302 304 302 304 306 305 302 315 320 321 321 321 321 321 320 317 312 312 314 311 300 308 313 315 315 315 315 314 307 309 307 308 308 306 305 304
294 294 295 296 295 294 296 297 299 300 300 299 299 299 299 299 300 304 306 309 306 306 308 308 307 310 316 317 317 320 320 318 316 315 314 305 311 306 310 311 311 312 312 311 312 313 313 309 307 305 305 304 303 301
294 295 296 295 294 295 297 297 299 299 299 299 300 300 301 301 303 306 310 309 309 308 310 306 308 311 314 312 315 316 317 310 312 308 309 310 306 312 310 310 309 310 312 308 309 310 308 307 304 302 302 300 300 297
296 295 295 294 295 297 298 298 299 299 300 301 301 301 302 304 305 305 306 306 309 311 312 305 309 311 311 308 306 308 311 307 311 308 309 307 307 305 307 310 310 309 310 308 305 300 302 301 301 299 299 298 298 297
296 296 295 295 296 298 298 299 300 300 301 302 302 306 306 308 308 308 308 307 307 305 307 308 310 310 311 309 308 307 306 303 312 310 311 308 308 304 306 309 309 309 309 309 310 307 305 306 302 299 297 297 297 296
296 296 296 296 296 298 298 299 300 301 301 303 308 306 306 306 304 302 304 304 305 307 305 305 308 311 312 311 306 306 307 304 310 306 306 310 305 305 306 306 306 306 307 307 308 307 304 303 300 299 298 297 295 293
300 299 298 297 297 298 299 300 302 303 306 309 308 306 304 301 305 306 308 307 306 301 304 306 305 308 309 309 302 302 304 304 303 309 310 305 304 304 304 305 304 304 305 304 303 303 302 300 298 298 296 293 291 290
304 303 303 302 300 300 302 302 302 306 307 304 303 301 301 301 300 300 302 302 300 302 305 307 304 303 305 304 302 305 304 305 307 307 304 302 302 302 302 304 305 303 303 302 300 300 299 298 297 295 292 291 291 289
307 306 304 303 303 304 304 306 307 305 302 300 300 301 300 299 298 298 299 300 301 304 306 305 304 304 302 304 303 304 307 307 304 302 301 300 300 301 301 301 302 301 300 300 299 298 296 294 291 292 292 290 289 288
309 309 309 308 307 306 305 305 304 300 298 298 297 298 298 299 299 298 298 299 301 304 305 304 302 304 304 304 305 303 305 303 300 298 298 300 300 300 300 300 299 299 299 298 297 294 292 294 293 291 289 287 287 287
310 304 303 305 305 305 305 301 299 297 297 297 297 296 297 297 297 296 296 298 302 303 301 301 302 301 301 301 300 299 298 297 296 297 298 299 299 298 298 298 298 297 296 293 293 294 292 292 291 289 287 285 285 285
308 308 306 306 309 311 304 299 298 297 296 296 295 295 293 292 293 293 294 297 300 300 298 298 296 294 293 295 293 291 292 294 296 297 297 297 298 298 298 297 296 293 292 293 293 291 290 288 287 286 286 285 285 284
305 306 304 303 309 306 299 298 297 296 296 296 295 295 292 291 291 292 293 294 293 294 293 292 291 291 290 289 289 288 288 292 294 295 295 295 296 296 296 295 294 294 293 292 290 289 287 287 286 286 285 284 284 283
295 297 300 300 302 300 297 298 297 296 296 296 293 291 290 289 288 288 289 290 290 290 289 288 287 286 286 285 286 285 288 293 294 294 293 294 294 295 294 293 293 292 291 290 289 288 286 285 284 284 284 283 282 281
297 298 298 301 297 297 296 297 297 296 296 296 296 295 292 289 287 286 287 288 288 288 287 285 284 283 284 285 286 287 288 291 291 290 288 288 289 291 290 290 289 289 288 286 286 284 284 284 282 282 282 281 281 280
294 294 293 295 295 295 295 295 296 296 296 295 294 294 293 292 289 287 285 285 285 284 284 283 282 282 283 283 284 285 286 287 287 287 287 287 287 286 286 285 286 285 284 283 283 282 282 281 281 280 280 279 278 277
294 293 292 292 292 293 293 294 294 294 290 292 292 290 290 291 289 286 285 283 282 282 282 282 282 282 282 282 283 284 284 285 285 284 284 284 283 283 283 283 282 282 281 280 280 280 280 279 278 277 276 275 275 274
294 292 292 292 292 287 292 292 293 292 293 286 287 288 290 291 288 284 282 281 280 281 282 282 282 282 282 282 281 280 281 282 282 281 281 282 282 280 280 280 280 279 278 277 276 276 275 275 275 274 274 273 273 272
292 289 291 282 291 289 282 282 283 285 283 281 283 289 289 289 279 280 280 280 279 280 280 280 281 280 280 279 279 279 280 280 281 280 279 278 278 278 277 277 276 275 274 274 274 274 273 273 273 272 272 272 271 271
285 291 288 290 288 287 284 283 282 286 279 282 286 290 287 277 276 279 281 279 278 278 279 279 279 279 278 277 278 278 277 276 277 278 276 276 276 276 275 275 274 274 274 273 273 273 272 272 272 271 271 270 270 269
285 285 290 290 292 291 287 289 288 283 281 286 282 277 279 276 276 280 279 279 278 278 278 278 278 278 277 277 277 277 276 276 277 276 275 275 275 274 274 273 273 272 272 272 271 271 271 270 270 269 269 268 268 267
290 290 284 288 288 288 278 278 278 281 279 285 282 274 272 272 276 277 277 277 277 277 278 277 277 276 275 275 276 276 276 275 274 274 274 273 273 272 272 272 271 271 270 270 270 269 269 268 268 267 267 267 266 266
289 289 289 284 286 286 285 282 283 284 283 283 275 275 275 274 275 276 277 277 277 277 277 276 276 275 275 274 274 273 273 273 273 273 273 272 272 272 271 270 270 270 269 269 269 268 267 266 266 266 265 265 265 265
288 288 287 285 278 280 283 283 282 280 280 278 275 274 273 273 274 275 275 276 276 275 275 274 274 274 274 273 274 274 273 273 272 272 271 271 270 269 269 268 268 268 268 268 268 267 267 267 266 266 266 265 265 264
287 288 286 285 284 284 283 282 281 281 279 276 275 274 273 273 273 272 273 272 273 273 273 273 273 273 273 273 273 272 272 271 270 269 269 268 268 268 268 268 267 267 267 267 267 266 266 266 265 265 265 264 264 264
286 286 285 278 284 283 282 283 282 281 279 277 275 274 274 273 272 272 271 271 271 272 273 273 273 273 272 272 271 270 270 269 268 268 268 268 268 268 267 267 267 267 266 266 265 265 265 264 264 264 264 264 264 263
285 284 285 284 284 285 284 284 281 279 279 278 277 276 274 273 272 271 271 271 272 272 272 272 271 271 270 270 269 268 268 268 268 268 268 267 267 267 267 267 266 266 266 266 266 265 265 264 264 264 264 264 264 263

GFSWCAN_850_thetae_036.txt.gz
Theta_e
301 301 301 300 301 301 301 301 301 300 300 300 300 299 298 298 298 298 297 299 301 302 304 307 311 311 310 310 310 311 315 315 307 313 312 310 306 312 312 314 315 317 313 308 305 306 316 310 311 311 310 310 312 313
300 301 301 301 301 302 302 301 300 300 300 299 299 299 298 298 298 298 297 297 301 303 305 308 310 313 311 311 310 312 313 315 315 314 307 308 307 303 311 314 311 316 314 313 312 313 311 311 311 312 312 312 312 313
298 300 300 301 300 300 300 300 299 299 298 298 298 297 296 296 296 295 296 298 301 303 304 305 308 313 313 312 311 311 314 316 318 318 311 311 313 306 312 311 313 311 309 310 310 311 309 313 312 313 313 314 313 314
297 297 298 298 298 298 298 298 298 298 298 297 296 296 295 295 296 297 297 301 302 305 305 307 312 313 314 315 314 312 316 316 319 318 311 309 311 309 308 312 310 310 310 310 309 312 312 313 312 313 313 313 313 313
295 295 295 296 296 296 296 296 296 295 295 295 295 295 295 296 297 298 299 303 302 304 306 306 308 312 316 318 318 315 313 316 318 313 306 310 308 310 303 309 306 311 311 311 313 312 313 313 313 312 312 313 313 314
296 296 296 295 295 294 294 294 294 294 296 297 297 297 297 298 298 299 300 302 302 304 305 305 308 312 317 318 319 317 315 317 318 316 309 313 315 313 311 311 312 315 315 315 314 314 313 313 312 311 312 312 313 313
297 296 297 297 296 296 296 296 296 296 296 295 296 296 297 298 300 300 301 303 303 304 306 305 302 311 315 318 319 319 318 319 319 316 311 312 313 311 303 311 312 314 314 314 315 314 309 310 309 310 311 310 309 309
297 297 298 298 298 297 296 296 296 295 295 295 297 298 299 301 301 300 301 305 302 303 303 306 306 310 314 315 314 317 318 318 315 313 311 307 309 304 310 310 311 312 313 311 311 313 314 311 308 307 308 307 306 304
296 295 295 297 298 299 299 298 298 296 296 298 300 300 300 300 300 301 302 304 303 304 305 306 309 310 311 311 312 314 315 306 311 307 307 309 306 312 309 309 309 308 311 309 310 310 309 309 306 305 305 304 305 301
296 295 294 296 297 300 300 300 299 299 299 299 299 301 301 300 303 304 305 304 305 306 308 305 309 308 310 308 307 308 308 307 308 308 309 306 308 306 307 308 310 309 309 308 307 301 303 302 304 303 304 303 303 301
295 294 296 297 298 299 299 299 300 300 300 301 301 302 302 302 306 304 302 305 306 305 307 308 310 309 309 307 308 307 306 304 312 310 311 309 311 305 306 308 309 310 308 309 311 310 307 308 305 303 300 300 300 298
295 294 296 298 298 298 299 299 300 301 301 302 304 304 305 305 304 304 303 302 303 307 304 305 308 311 310 307 305 306 308 305 312 305 309 312 306 303 304 305 306 307 307 308 309 308 305 304 303 301 299 297 297 296
295 295 296 298 299 299 300 300 301 301 302 305 307 304 304 300 305 304 308 306 306 301 303 305 305 308 308 308 302 305 309 308 303 309 309 305 303 302 303 304 304 305 306 305 304 304 303 302 300 300 298 296 294 294
296 296 296 297 298 299 299 300 300 300 301 303 302 300 301 301 300 300 300 301 300 300 302 304 303 303 304 304 302 308 304 305 308 307 305 302 301 300 301 302 303 302 302 302 301 301 300 300 298 296 295 293 292 290
297 296 296 296 298 298 299 300 300 300 300 299 299 300 300 299 298 298 299 299 300 302 304 304 304 304 303 304 303 305 307 305 303 303 300 299 300 300 300 300 300 300 301 301 300 299 298 296 295 294 292 291 291 291
302 301 300 299 299 299 299 300 300 298 298 297 296 297 297 298 297 296 296 298 300 303 304 303 302 304 303 300 299 299 302 300 299 297 297 297 298 298 298 298 298 299 299 297 296 296 296 295 292 291 290 289 289 288
302 302 302 302 300 300 301 301 298 297 297 296 296 292 293 294 293 293 292 294 300 301 301 300 297 296 297 297 294 293 295 295 293 295 296 297 297 297 297 297 297 297 296 295 295 294 292 292 291 290 289 286 285 285
306 304 304 304 303 301 299 297 297 297 296 295 293 292 290 288 289 290 291 294 298 298 295 295 293 289 289 290 289 289 288 288 293 293 294 295 295 295 296 295 295 295 293 293 293 292 292 291 289 287 286 285 284 284
302 302 302 303 303 301 298 297 296 294 292 291 290 290 288 288 288 288 289 291 291 292 290 289 288 288 287 286 286 285 285 286 289 289 291 293 293 293 293 293 292 292 292 291 291 290 289 288 286 285 285 284 284 283
298 299 299 300 299 299 297 297 296 295 295 291 288 287 287 286 286 286 287 288 287 287 286 286 285 283 283 283 283 283 284 289 290 289 287 289 290 292 291 291 290 289 289 288 287 286 286 285 285 284 284 283 283 282
299 298 297 298 296 297 296 297 296 296 295 295 293 291 288 286 284 284 284 285 285 285 284 283 282 281 282 282 283 283 285 287 287 285 283 284 285 286 286 286 286 286 286 285 284 283 283 283 282 281 281 281 280 280
295 297 297 296 295 294 295 295 296 295 294 293 293 293 292 288 286 284 283 282 282 282 281 281 280 280 281 281 282 283 283 285 284 284 285 285 285 284 284 283 284 283 282 281 281 281 280 280 280 280 279 279 278 278
293 293 292 293 293 293 292 293 293 293 287 289 291 289 287 286 286 284 282 281 280 280 280 280 280 281 281 281 282 283 283 283 283 282 282 282 281 281 281 281 281 281 280 279 279 279 279 278 278 277 276 275 274 274
293 292 292 291 291 286 291 291 292 291 291 285 284 284 287 287 284 282 280 279 278 279 280 280 281 281 281 281 280 280 280 281 281 280 279 280 280 279 279 278 277 277 276 275 275 275 275 274 274 274 273 273 272 272
292 288 290 282 290 286 280 279 281 283 280 279 282 287 281 286 277 276 278 278 278 278 278 279 279 279 278 278 278 278 278 279 279 279 277 276 276 276 275 275 275 275 274 274 274 274 273 273 273 272 272 272 271 270
286 289 287 286 284 284 280 281 281 280 277 280 284 284 283 274 274 277 279 278 277 277 277 278 278 278 278 277 277 277 276 276 277 278 275 275 275 275 274 274 274 274 273 273 272 272 272 271 271 271 270 269 269 268
286 283 288 288 289 288 282 285 285 280 281 285 277 274 273 272 274 279 278 277 277 277 277 277 277 277 277 276 276 275 275 275 275 275 274 273 273 273 273 273 272 272 271 270 270 270 269 269 269 268 268 268 267 267
288 288 281 284 286 285 276 275 275 278 278 283 278 271 269 269 273 275 276 276 277 277 277 276 276 275 275 275 275 275 274 273 273 273 272 272 272 271 271 270 270 269 269 269 269 269 268 268 268 267 267 266 266 266
287 287 287 280 283 283 282 279 280 280 280 280 271 271 273 273 274 274 275 276 276 276 276 275 275 274 274 273 273 273 273 272 272 272 272 271 271 270 270 269 269 269 268 268 268 268 267 267 266 266 266 266 266 265
286 286 284 283 276 277 279 280 278 277 277 275 273 272 272 272 273 274 275 275 275 275 274 274 273 273 273 273 273 273 273 272 271 271 270 270 269 269 268 268 268 268 267 267 267 267 267 266 266 266 266 265 265 264
287 285 284 284 282 280 279 278 277 277 276 274 274 273 272 271 272 272 273 273 272 272 272 273 273 273 273 273 272 271 271 270 269 269 269 268 268 268 268 267 267 267 267 267 267 266 266 266 266 265 265 265 264 264
285 283 283 276 281 280 281 282 279 278 276 275 274 273 273 273 271 271 271 271 271 272 272 273 273 273 272 271 270 270 269 269 269 268 268 268 267 267 267 267 267 267 266 266 266 266 266 265 265 265 265 264 264 264
284 284 284 283 281 280 281 282 280 278 278 277 275 275 274 273 272 271 271 271 271 271 271 271 271 270 270 269 269 269 268 268 268 268 268 267 267 266 266 267 267 267 266 266 266 266 265 265 265 265 264 264 264 264

GFSWCAN_850_thetae_039.txt.gz
Theta_e
301 301 301 299 299 299 300 300 301 301 301 301 301 301 300 300 301 299 300 299 301 301 303 306 308 309 308 308 309 309 311 312 309 312 314 314 314 316 317 316 316 318 318 317 311 317 322 310 310 316 316 311 311 311
301 301 301 300 299 299 300 301 300 301 301 301 301 300 301 300 300 299 298 300 299 301 302 304 305 308 308 309 308 310 309 311 311 314 310 309 313 309 315 320 311 320 318 319 318 321 315 310 314 313 312 312 311 312
301 301 301 301 301 300 300 300 301 301 302 300 300 302 301 300 300 298 298 297 297 298 300 301 304 307 309 310 309 310 310 312 312 313 312 313 313 310 315 314 314 311 309 317 316 315 313 312 311 312 312 312 312 313
300 300 301 301 301 301 301 302 302 302 301 300 300 300 299 300 299 298 298 297 297 300 301 303 307 306 309 311 310 309 311 311 316 315 312 311 314 312 314 315 315 313 312 312 314 312 312 312 313 313 313 312 312 312
298 299 300 300 300 301 302 301 300 300 300 300 300 299 299 299 299 298 298 298 297 300 304 304 305 304 307 312 313 311 310 313 314 313 308 314 309 311 306 310 311 311 314 315 317 314 315 315 315 314 313 313 313 313
295 297 298 299 299 299 300 299 300 299 299 300 299 299 298 297 297 296 297 296 299 299 303 304 306 308 310 313 314 315 313 311 314 314 310 312 313 313 314 316 314 314 314 314 314 315 313 313 313 314 313 313 313 312
295 295 295 297 297 297 298 298 298 299 298 298 297 296 296 296 296 298 300 300 299 303 303 304 304 309 312 314 316 317 316 315 314 314 312 313 313 312 307 316 314 315 314 314 314 315 311 312 312 311 311 312 312 311
297 296 295 294 294 294 295 295 295 295 295 295 295 295 296 297 298 300 303 301 301 303 303 303 304 307 312 313 313 316 316 316 315 313 309 311 309 305 311 311 314 314 313 312 314 313 315 314 311 310 310 310 310 309
298 297 297 296 295 295 296 296 297 297 297 297 297 297 298 299 300 300 301 303 303 303 302 302 306 311 311 310 311 311 312 311 311 309 310 312 308 315 312 309 310 311 312 311 310 310 311 310 310 308 308 307 309 305
297 298 299 297 296 295 295 295 295 295 296 297 297 299 299 299 300 300 303 302 303 304 306 305 308 310 309 305 305 307 306 309 314 310 308 310 311 306 306 307 308 309 309 309 308 304 304 304 304 302 302 301 303 303
296 299 299 297 298 297 296 295 295 297 298 300 301 301 300 301 302 303 301 303 304 305 304 304 308 309 309 308 308 307 306 305 313 312 313 311 312 304 305 307 307 308 307 306 308 308 306 305 302 303 301 302 302 299
297 300 299 299 299 297 297 297 299 300 301 302 302 301 303 304 304 302 302 301 303 308 304 305 305 310 308 308 305 306 308 305 313 306 311 313 305 302 304 305 304 304 305 308 307 310 309 304 302 304 301 299 299 298
298 298 299 299 299 299 299 301 301 301 302 303 303 304 303 300 305 305 307 306 305 301 303 305 304 308 307 306 302 304 307 309 305 310 308 304 300 300 301 303 305 305 304 308 305 305 304 302 301 301 299 298 297 296
297 298 298 298 299 299 301 300 300 301 300 300 300 301 300 300 300 300 300 301 299 299 301 304 302 303 304 303 301 308 304 303 308 307 305 300 298 298 300 300 301 301 303 304 302 299 299 298 297 297 297 296 295 294
296 297 298 299 299 299 300 300 300 299 299 298 298 300 299 298 296 297 296 299 298 300 302 303 303 304 302 304 302 304 306 303 301 301 299 297 296 297 297 297 297 297 296 296 296 296 296 296 296 294 294 293 292 291
295 296 296 297 298 298 299 299 299 297 297 294 291 293 293 295 292 292 292 294 298 301 302 301 302 303 301 298 298 296 300 296 295 293 294 295 295 295 295 296 296 296 297 296 295 295 295 294 294 292 290 290 291 290
300 301 297 298 298 298 299 300 298 296 295 294 292 289 289 290 290 289 289 291 297 299 299 297 294 293 295 294 292 291 290 290 287 289 292 293 293 293 293 294 293 294 294 293 293 293 292 291 291 290 289 286 286 286
301 301 299 299 299 299 298 297 296 294 292 290 290 288 287 286 286 287 288 291 296 294 292 292 291 289 288 289 288 286 285 285 287 285 288 291 292 292 292 292 292 292 292 291 291 290 289 289 288 287 286 285 284 283
301 300 299 299 300 299 297 296 294 290 289 288 287 287 286 285 285 285 287 288 289 289 288 287 286 286 285 284 283 283 282 284 286 284 285 288 290 290 290 290 290 290 289 288 288 287 287 286 286 285 284 284 284 283
299 299 300 300 300 299 297 296 294 292 291 288 287 285 284 283 283 284 284 285 284 284 284 284 283 282 282 281 281 281 282 286 285 284 283 284 285 287 287 287 286 286 286 286 285 285 284 284 283 283 282 282 282 281
300 299 298 296 296 296 296 296 296 294 293 292 291 289 287 285 282 282 282 283 283 282 282 281 280 280 280 280 281 282 283 285 283 282 281 282 283 284 284 284 284 284 284 283 283 282 282 281 280 280 280 280 280 279
297 295 294 294 294 294 294 294 295 294 293 292 292 290 287 284 283 282 281 280 280 280 280 279 279 279 280 280 281 281 281 282 282 282 283 283 283 283 282 281 282 281 281 280 280 280 280 279 279 279 278 278 277 276
293 292 292 293 293 293 291 293 292 291 286 288 290 287 284 284 283 282 280 279 278 278 279 279 279 279 279 280 281 281 282 282 281 280 280 280 280 279 279 279 279 278 278 276 276 275 275 274 274 274 274 274 273 273
293 291 291 290 291 285 290 289 290 289 288 285 285 285 284 283 282 279 279 278 277 278 279 279 279 279 279 280 279 279 278 279 279 278 277 277 277 276 275 275 275 275 274 273 274 273 273 273 273 273 273 272 272 272
291 288 290 282 289 284 279 279 281 283 282 282 283 284 279 283 277 276 278 277 276 277 277 278 278 277 277 276 276 276 276 277 277 277 275 274 274 274 274 274 273 273 273 273 273 272 272 271 271 271 270 270 270 269
285 287 286 281 282 285 281 282 281 278 280 280 281 280 280 274 275 277 278 277 276 276 277 277 277 277 277 276 276 275 275 275 275 276 274 273 273 273 273 273 272 272 271 271 270 270 270 269 269 269 269 268 268 267
284 280 286 285 286 285 281 283 282 279 280 282 277 273 272 272 274 277 276 276 276 276 276 276 276 276 276 275 275 274 274 274 274 273 273 272 272 272 272 271 271 270 269 269 269 269 269 268 268 268 268 267 266 266
285 286 279 282 283 283 275 273 274 277 277 280 276 271 269 270 274 274 275 276 276 276 276 276 275 274 275 274 274 273 273 273 273 272 272 271 271 270 269 269 269 269 268 268 268 268 268 268 267 267 267 267 266 266
284 284 284 276 280 279 278 276 276 276 277 277 270 270 272 272 273 273 274 275 275 275 275 275 274 274 273 273 273 273 272 272 271 271 271 270 270 269 269 269 269 268 268 268 268 267 267 267 267 266 266 266 266 265
283 283 282 280 274 274 275 275 275 275 275 274 272 271 271 271 273 274 274 274 274 274 274 273 273 272 272 272 273 272 272 271 270 270 270 269 269 269 268 268 268 268 268 267 267 267 267 266 266 266 266 265 265 265
284 284 282 281 278 276 275 275 275 275 274 273 273 272 271 271 271 272 273 273 273 273 273 272 272 273 273 272 271 271 270 269 269 269 269 268 268 268 267 267 267 267 267 267 267 267 267 266 266 266 265 265 265 265
283 281 281 276 278 277 278 279 278 276 275 274 273 273 272 272 272 272 272 272 272 272 272 272 272 272 271 270 269 269 269 269 268 268 268 268 267 267 267 267 267 267 267 267 267 266 266 266 265 265 265 265 264 264
282 283 282 280 278 277 278 279 278 276 276 275 274 274 273 273 273 272 272 272 271 271 271 271 270 270 269 269 269 269 268 268 268 268 267 267 267 267 267 267 267 267 267 266 266 266 266 265 265 265 265 264 264 264

GFSWCAN_850_thetae_042.txt.gz
Theta_e
301 301 299 300 300 300 300 300 300 300 300 300 299 299 302 300 300 300 300 301 304 305 306 306 307 308 307 308 312 311 313 315 317 317 317 318 322 320 318 320 321 321 322 323 323 327 327 316 315 320 322 319 318 317
301 300 300 299 299 301 300 299 299 300 300 299 299 299 301 300 300 300 300 301 302 303 303 304 304 307 308 308 309 311 311 312 314 316 318 318 321 318 321 322 318 322 322 324 322 323 322 315 320 318 319 319 317 317
301 300 300 299 300 300 300 300 300 300 300 299 300 301 300 300 300 300 300 301 302 303 302 301 304 303 306 308 309 310 311 310 312 313 318 320 324 320 324 322 322 318 314 321 320 321 320 318 317 316 315 316 316 315
301 300 300 300 301 301 301 300 300 300 300 300 302 300 300 301 300 300 300 300 301 302 302 302 303 305 306 308 309 309 311 311 313 313 317 319 322 317 322 320 321 320 315 319 321 321 317 317 317 317 315 313 313 314
301 301 300 301 301 300 300 301 301 301 301 301 300 300 301 300 299 299 299 299 300 301 303 302 303 304 305 307 308 310 310 313 313 317 315 317 316 317 316 317 321 316 319 321 325 322 321 321 319 317 315 313 313 313
299 301 301 301 301 301 301 301 302 302 301 300 300 300 300 299 299 299 298 299 299 300 300 305 305 304 304 305 309 311 311 311 312 314 316 316 316 317 322 320 316 317 317 317 319 317 316 317 313 316 315 313 313 312
298 299 299 301 300 301 302 301 301 300 301 301 301 300 300 300 300 299 299 299 299 298 300 303 306 307 306 307 311 312 311 311 311 313 315 316 317 316 319 321 317 318 317 317 315 315 314 318 314 313 314 312 311 310
296 297 299 300 300 300 300 300 301 300 300 300 300 300 299 299 297 299 302 301 297 299 300 305 306 307 309 312 313 313 314 313 313 313 313 317 316 315 319 318 318 317 314 314 314 314 314 313 312 309 312 311 308 307
295 295 296 298 299 299 299 299 299 299 298 298 297 297 297 297 297 301 300 298 298 303 305 304 307 312 310 310 311 311 313 315 313 316 316 316 317 319 316 316 314 312 312 312 312 310 312 312 308 305 305 304 305 302
296 295 294 295 296 296 296 297 296 295 295 295 296 298 298 299 299 302 301 300 302 304 305 306 305 304 306 307 311 308 307 309 313 313 313 317 318 312 308 308 309 309 309 309 307 306 305 307 308 304 305 302 301 300
297 295 296 296 296 297 297 296 296 296 296 298 299 300 300 300 301 303 302 302 302 304 305 306 306 304 305 311 311 309 309 306 314 314 317 316 317 308 305 306 306 306 306 306 307 308 308 308 304 302 300 301 299 299
298 296 296 295 295 295 296 297 297 298 298 300 301 300 301 302 304 303 303 303 304 307 306 306 306 305 306 309 312 308 313 308 315 308 317 316 304 300 301 303 303 303 304 305 306 305 304 303 302 300 301 300 300 300
299 297 296 295 295 295 297 298 299 301 302 302 302 302 303 302 304 305 308 308 307 302 303 305 306 308 307 308 306 307 311 313 304 310 306 301 298 298 298 299 299 302 303 304 304 304 302 299 298 298 298 297 296 295
300 298 297 296 298 299 299 300 301 302 302 301 301 302 303 302 301 301 301 302 300 299 301 303 303 305 304 304 303 312 305 305 310 307 302 298 296 295 296 297 298 297 297 298 297 297 296 296 295 294 295 295 295 293
299 299 299 298 299 300 300 300 301 301 299 296 297 300 299 296 294 294 293 297 296 298 300 302 302 302 302 304 302 306 306 303 300 298 297 292 294 293 293 293 294 294 294 293 293 294 293 293 293 292 292 293 293 292
298 299 299 299 299 300 300 300 299 297 295 292 289 291 290 293 291 290 290 292 294 298 300 299 302 302 300 298 297 297 299 295 293 290 289 291 292 291 291 291 291 291 291 292 292 292 292 293 292 291 291 291 290 289
297 297 297 298 298 298 298 299 295 294 293 292 291 287 287 288 288 288 288 289 293 297 299 296 296 295 296 295 293 291 291 290 287 286 286 289 290 290 290 289 290 290 291 291 291 291 290 290 290 290 288 287 287 286
300 297 297 298 299 298 298 295 293 291 291 288 289 288 286 285 286 287 288 289 295 294 292 292 290 290 291 292 290 287 286 286 285 284 284 285 287 288 288 288 288 289 289 288 288 288 288 288 287 285 285 285 285 284
298 298 298 299 299 298 296 295 292 289 288 287 286 286 286 285 285 285 286 287 287 288 289 288 287 287 286 284 284 284 284 286 284 282 282 284 285 285 286 287 287 287 286 286 286 286 285 285 284 284 283 283 282 282
299 299 299 299 299 297 296 295 292 291 290 288 287 286 285 284 284 284 285 286 286 285 284 285 284 282 282 282 281 281 281 285 284 283 281 281 282 285 285 284 284 284 284 284 283 283 282 282 282 282 282 281 281 280
298 298 299 298 296 296 295 295 294 292 292 292 290 288 287 286 284 283 283 284 284 283 283 282 281 280 279 279 279 279 281 283 280 280 280 279 280 281 282 282 282 282 282 281 281 280 281 280 279 280 280 280 279 279
297 295 294 294 294 293 293 293 294 293 293 292 291 288 287 286 285 283 282 281 280 281 280 280 280 279 278 278 278 278 279 281 281 280 280 281 280 280 279 278 280 279 279 277 277 276 276 275 275 275 275 274 274 274
292 292 292 292 293 292 291 292 292 291 293 292 291 289 287 285 283 282 281 280 279 278 279 278 277 277 277 277 279 280 279 279 278 277 278 277 277 276 276 276 275 275 274 274 274 274 274 274 273 273 273 273 272 272
292 291 290 290 291 290 290 290 290 290 290 292 291 289 286 285 283 282 281 279 278 277 278 277 278 278 278 278 277 276 275 276 276 276 275 275 275 275 275 274 274 274 273 273 273 273 272 272 272 272 271 271 271 270
291 287 289 289 289 289 290 289 289 290 290 289 289 288 285 284 283 282 281 279 278 277 276 276 276 277 276 275 275 276 276 276 275 276 275 274 274 273 274 274 273 273 272 271 271 271 270 270 270 269 269 269 269 268
287 285 288 288 288 290 289 289 288 288 288 287 285 282 282 283 282 281 280 278 277 275 275 275 276 276 275 275 274 274 274 274 274 274 273 273 273 272 272 271 270 270 270 270 270 269 269 269 269 268 267 266 267 267
287 287 285 283 285 285 286 285 285 286 285 286 284 282 282 281 280 279 277 275 275 276 276 276 275 274 274 274 274 274 273 273 273 273 272 272 271 271 270 270 269 269 269 269 269 268 268 268 268 267 267 266 266 266
285 285 284 282 282 282 283 283 283 283 283 280 280 278 279 279 279 276 275 275 276 275 275 275 275 275 274 273 273 273 273 273 272 272 271 270 270 269 269 269 268 268 268 268 268 268 267 267 267 267 267 266 266 266
282 282 282 278 280 279 278 280 280 277 276 277 278 277 275 272 271 273 273 275 275 274 274 274 274 273 273 273 273 273 272 271 270 270 269 269 268 268 268 268 268 268 268 267 267 267 267 267 267 266 266 266 266 266
282 281 281 278 278 279 275 273 274 273 273 273 273 272 271 270 272 273 273 274 274 274 274 273 273 272 272 272 272 272 271 270 270 270 269 269 268 268 268 268 267 267 267 267 267 267 267 267 266 266 266 266 266 265
282 283 281 280 278 276 274 275 274 274 274 272 272 272 271 271 272 273 273 273 273 273 273 273 273 273 272 272 271 270 269 269 269 269 269 268 268 268 267 267 267 267 267 267 267 267 267 267 266 266 266 265 265 265
281 280 280 280 277 275 277 277 276 276 275 275 273 272 272 272 272 272 273 273 273 273 273 273 273 272 271 270 270 269 269 269 269 268 268 268 267 267 267 267 267 267 267 267 267 267 267 266 266 266 265 265 265 265
280 280 279 279 277 276 276 277 277 276 275 275 273 272 272 273 273 272 273 273 273 272 272 271 271 270 270 270 269 269 269 268 268 268 267 267 267 267 267 267 267 267 267 267 267 267 266 266 266 265 265 265 265 264

GFSWCAN_850_thetae_045.txt.gz
Theta_e
300 301 300 299 300 300 300 300 300 300 300 299 299 300 300 299 299 301 301 303 305 305 306 306 307 308 307 308 312 309 313 314 317 317 318 315 317 316 315 313 319 322 322 326 325 327 328 320 320 321 322 321 322 321
301 300 300 300 301 302 300 302 302 303 303 301 300 300 300 300 301 300 302 302 304 305 305 307 308 309 308 307 308 310 312 314 314 316 317 314 321 325 316 320 315 321 321 325 323 324 323 319 320 319 320 321 322 321
301 300 300 300 300 300 301 301 301 301 300 300 300 300 299 299 300 301 302 302 303 304 304 305 306 306 307 308 309 310 312 311 312 312 315 317 318 322 322 321 316 317 319 323 322 322 322 322 319 320 321 321 322 321
300 300 301 300 300 300 300 301 300 301 300 300 300 299 299 299 300 301 302 303 303 304 306 305 305 305 306 307 308 311 312 311 311 312 317 318 320 314 321 319 320 319 320 320 321 320 320 320 321 321 321 320 320 319
300 300 300 301 300 300 300 300 300 300 299 299 299 299 300 300 300 301 302 302 302 304 306 304 304 306 307 304 306 310 312 313 313 317 320 318 315 315 318 320 321 317 319 324 323 319 322 323 321 320 321 320 318 317
301 301 301 301 301 300 299 300 300 300 299 299 300 302 300 300 300 301 300 301 301 303 303 306 305 305 305 306 306 309 311 312 313 312 317 313 311 313 320 320 315 314 317 318 319 319 319 319 320 318 320 320 319 317
301 302 302 301 301 300 301 301 301 301 301 302 301 300 300 300 300 301 302 301 302 302 303 304 306 306 306 306 307 309 311 311 313 313 315 315 315 316 321 321 315 313 312 312 315 317 317 316 317 317 316 318 317 316
300 301 302 301 302 301 302 302 302 301 300 300 300 299 300 300 300 301 300 300 301 302 302 303 306 308 308 309 310 310 312 311 312 312 313 316 315 317 319 316 314 315 316 318 317 317 316 314 314 314 313 314 313 314
300 300 300 301 301 301 301 300 300 300 299 299 299 300 300 300 300 301 300 299 302 302 303 305 307 309 305 308 310 311 311 313 311 315 315 315 317 318 316 315 314 316 315 315 313 312 312 312 312 310 310 310 311 310
298 299 300 300 300 300 300 300 300 300 300 300 299 299 299 299 301 300 301 301 301 302 305 307 306 306 301 306 306 309 311 312 313 312 313 316 317 313 307 310 312 311 311 311 311 312 311 310 310 308 308 308 308 306
296 298 299 298 299 300 300 299 298 297 299 301 300 302 299 300 301 302 301 301 301 305 305 305 306 306 305 308 309 310 310 310 314 316 319 318 315 301 299 303 306 308 308 308 308 309 309 309 309 307 305 305 303 302
297 297 296 296 296 296 296 296 297 300 300 301 302 301 301 303 304 304 303 303 305 307 307 308 307 306 305 304 309 310 309 310 315 310 318 307 299 297 296 298 298 301 303 304 305 305 304 304 304 303 301 300 299 299
296 295 296 297 297 296 296 298 300 301 302 302 303 303 304 303 304 304 306 309 307 303 303 306 307 305 304 304 309 311 313 312 303 307 304 301 296 295 295 295 296 297 298 299 298 298 298 298 299 298 297 295 295 294
295 295 295 296 297 297 297 299 300 301 302 301 302 303 304 304 301 299 300 301 298 298 299 303 303 304 304 308 302 311 305 307 309 307 302 297 295 294 293 292 292 292 293 293 293 293 293 293 291 291 291 292 292 290
295 297 298 298 300 300 300 300 301 301 297 295 297 298 297 295 293 293 294 296 296 296 298 302 302 302 302 304 302 309 308 303 300 299 295 292 293 292 291 291 290 290 290 289 289 289 289 289 289 289 289 290 291 290
296 298 299 299 299 299 299 300 300 297 294 291 289 291 289 294 292 291 292 293 292 294 298 300 303 302 300 299 298 298 299 296 295 292 289 290 290 290 290 289 289 289 288 288 288 288 288 289 289 289 289 289 289 289
299 299 299 299 298 298 300 300 295 291 292 291 291 287 287 288 288 289 289 290 292 295 300 298 297 297 297 296 293 291 291 290 288 287 287 286 286 287 287 287 287 287 287 287 288 288 287 288 288 288 286 286 286 286
298 298 298 298 299 299 296 293 291 291 290 288 290 288 287 286 287 288 289 289 294 294 293 293 292 292 293 293 291 289 288 286 285 284 283 284 284 285 285 285 285 286 286 285 285 285 285 285 284 283 283 283 283 283
297 297 298 299 299 298 295 294 292 290 289 288 287 287 287 287 287 288 289 289 289 290 290 289 289 288 288 286 288 287 288 286 285 284 282 282 283 283 283 284 284 283 283 283 283 282 282 282 282 282 282 281 281 281
298 298 299 299 299 296 296 294 292 292 292 290 290 289 287 287 287 286 286 288 288 287 286 286 285 284 284 283 283 283 285 286 285 283 282 281 281 281 281 281 281 281 280 280 280 280 280 279 278 278 278 278 278 278
298 298 298 297 295 295 295 296 294 293 293 293 292 290 290 288 286 285 285 284 285 285 285 283 282 281 281 281 281 281 281 282 282 282 281 281 280 280 279 279 279 279 278 278 277 277 277 276 276 276 276 275 275 275
298 298 297 294 294 293 294 294 295 295 294 293 292 290 290 289 287 285 284 283 283 282 282 282 281 281 280 280 280 280 279 279 279 279 279 279 279 278 278 277 277 276 276 275 275 274 274 274 274 273 274 274 273 273
293 292 292 293 293 293 293 293 293 293 294 294 292 291 290 288 286 285 284 282 281 281 280 280 280 280 279 278 278 278 279 279 279 278 278 277 277 276 275 275 275 275 275 274 273 273 272 272 272 272 272 271 272 271
291 291 290 292 293 293 292 293 292 292 293 293 291 290 288 287 286 285 284 281 280 280 280 281 281 280 279 278 278 278 278 277 277 277 277 277 276 275 274 273 273 273 273 272 272 271 271 270 270 270 270 269 269 269
292 288 291 292 292 293 293 293 292 293 292 292 290 289 288 287 287 286 284 281 280 279 279 280 280 280 280 278 277 276 276 276 276 275 275 276 276 276 275 273 271 270 270 270 270 270 269 269 269 268 268 268 267 267
290 287 290 291 291 293 293 293 292 292 291 290 288 286 287 287 286 285 283 281 279 278 278 279 279 279 278 278 277 275 274 275 275 274 273 273 272 273 273 272 272 269 269 269 268 268 268 268 267 267 267 267 267 266
290 290 287 287 289 289 290 289 289 290 289 289 288 287 287 286 284 281 279 278 277 275 275 276 277 277 276 275 273 273 274 274 274 273 273 272 272 271 271 270 269 269 268 269 268 267 267 267 267 266 266 266 266 265
287 286 287 286 286 286 287 287 287 287 286 284 285 283 283 283 282 279 277 275 274 274 274 274 274 274 274 273 273 273 273 274 273 272 271 270 270 270 270 269 269 269 269 269 269 268 266 266 266 266 266 265 265 265
286 285 283 281 283 281 281 284 283 280 278 283 283 281 278 275 276 275 274 274 274 274 273 273 273 274 274 274 274 273 273 271 271 270 270 271 270 268 268 268 267 268 268 267 267 268 267 267 267 267 266 265 265 264
285 285 283 280 281 281 278 278 277 276 276 277 275 275 274 273 272 273 273 274 274 274 273 272 272 272 272 272 271 272 271 270 270 270 270 269 268 268 267 266 267 267 268 267 267 267 267 267 266 265 265 265 264 265
285 285 283 281 280 278 277 276 276 276 276 276 277 277 275 273 272 272 272 273 274 274 272 272 272 271 271 271 271 270 269 270 269 269 269 269 268 267 266 267 267 267 267 267 267 267 267 267 265 264 264 265 265 265
283 284 283 282 279 277 278 280 280 280 279 279 276 275 274 276 276 272 273 273 272 272 272 272 271 271 272 271 270 270 269 269 269 269 268 268 267 267 267 267 267 268 267 267 267 267 267 266 266 265 265 265 265 265
283 283 282 281 280 281 280 281 281 280 280 279 277 276 276 277 277 273 273 273 272 271 271 272 271 271 270 270 270 269 269 269 268 268 268 268 268 268 268 268 267 267 268 267 267 267 267 266 266 265 265 265 265 265

GFSWCAN_850_thetae_048.txt.gz
Theta_e
299 300 301 300 300 300 300 300 300 300 301 301 301 301 300 299 299 301 300 301 304 306 307 307 308 308 308 309 311 310 312 313 312 316 318 317 318 316 313 314 320 321 322 323 324 325 326 321 320 321 322 321 321 321
301 301 300 300 300 300 301 301 300 300 302 301 301 301 300 300 299 301 299 301 304 306 306 306 306 307 308 309 309 309 312 312 313 316 317 317 322 320 316 316 316 320 318 322 322 323 323 320 320 320 320 322 322 322
300 300 300 300 300 301 301 302 301 302 301 301 300 300 300 300 300 301 299 303 304 304 305 305 307 307 306 309 310 311 310 311 313 311 316 318 319 318 323 319 317 316 319 321 319 319 321 322 321 320 320 319 321 322
300 300 301 300 300 300 301 301 302 302 301 301 301 300 300 300 300 300 300 302 303 305 307 305 305 307 308 308 308 310 311 311 312 314 316 318 318 315 318 318 318 317 317 320 320 319 318 317 317 320 321 321 321 320
301 301 301 300 300 301 300 301 302 301 300 300 300 300 301 301 300 301 302 302 303 304 306 306 305 306 307 306 307 309 311 312 313 313 316 317 314 317 319 319 320 317 317 319 323 319 320 321 320 320 320 318 319 321
301 301 301 300 300 300 300 300 301 300 300 300 301 300 300 300 301 302 301 303 303 304 305 306 306 307 308 305 305 306 309 311 313 313 315 315 314 316 322 319 315 314 315 315 319 319 318 318 318 318 318 318 320 321
302 301 301 300 300 299 299 300 301 300 300 300 300 300 300 301 301 303 303 302 303 303 305 305 307 306 306 307 308 308 308 309 311 312 314 315 315 314 317 318 313 313 313 313 313 313 316 315 318 317 317 317 319 319
302 302 301 300 300 300 300 299 299 299 299 300 300 300 301 301 301 301 301 302 302 303 303 305 307 308 306 307 308 309 310 309 312 313 314 316 315 316 316 313 313 314 314 315 316 317 317 317 316 315 315 315 316 317
301 301 302 301 301 302 301 300 301 300 300 300 300 300 301 301 300 300 302 302 303 304 304 305 307 308 307 308 308 310 310 312 311 315 315 315 317 315 307 308 312 313 314 314 313 313 314 314 314 313 312 311 312 313
300 300 301 301 301 300 300 300 300 300 300 300 300 300 300 301 299 300 301 302 302 304 305 307 304 308 305 302 308 310 310 311 312 314 312 314 313 301 298 298 301 303 308 310 311 312 311 311 313 312 310 309 310 310
300 300 300 300 300 300 300 300 300 300 301 301 302 301 300 301 301 302 302 302 302 303 304 304 306 307 302 305 305 307 311 307 314 314 314 315 307 298 296 296 297 300 303 305 306 308 307 308 309 309 307 306 305 305
299 299 300 300 299 299 299 299 300 301 301 302 301 300 300 301 302 304 304 302 303 306 307 308 307 306 304 302 302 304 308 307 313 312 311 304 298 296 295 294 293 295 297 299 301 301 302 303 303 304 303 302 302 302
296 297 297 297 297 298 299 301 301 302 302 302 303 303 304 303 304 305 304 305 307 300 300 306 307 306 305 302 300 304 308 309 303 306 302 298 295 294 293 292 291 292 293 294 294 296 296 296 297 297 295 294 295 295
297 296 295 295 297 299 301 301 301 302 303 302 303 301 303 301 299 298 298 299 297 297 296 300 303 302 300 302 302 309 304 304 308 304 297 295 293 292 291 290 290 289 289 289 289 289 290 290 290 290 290 290 291 289
297 298 299 299 299 299 299 301 301 299 295 294 295 297 296 294 294 293 294 296 295 295 296 301 301 301 302 304 302 307 306 299 297 295 293 292 291 290 290 289 289 288 288 287 287 287 287 288 287 287 288 288 288 288
299 299 298 299 299 300 299 299 299 296 293 290 288 291 290 293 292 291 292 294 294 294 298 300 303 302 299 299 298 297 298 295 292 291 289 288 288 288 288 288 287 287 287 286 286 287 287 288 287 287 287 287 286 286
300 298 297 297 298 299 300 299 293 290 291 291 290 288 289 290 290 291 291 291 293 295 300 298 297 298 298 295 292 291 291 290 288 287 286 285 285 285 285 286 286 286 286 286 286 286 285 286 286 286 285 284 285 284
299 298 298 298 299 298 294 293 291 291 289 289 290 289 289 288 289 291 290 291 295 294 294 293 292 290 291 292 290 290 287 285 284 283 284 284 284 284 284 284 284 284 284 284 284 284 284 283 283 283 283 282 282 282
298 298 297 298 298 297 294 293 292 290 290 289 288 288 288 288 287 289 289 289 288 290 290 289 288 288 287 287 288 288 286 285 284 283 282 283 283 283 283 283 282 282 282 282 282 281 281 281 281 281 281 281 281 281
298 298 299 299 299 297 295 294 293 293 292 290 290 288 288 287 287 286 286 288 287 286 285 285 285 285 284 284 284 286 286 285 284 283 283 282 281 281 281 281 281 280 280 280 279 279 278 278 278 278 278 278 277 278
298 297 296 296 295 296 297 296 295 294 293 293 292 291 290 287 286 285 286 284 285 285 285 283 282 282 282 282 282 282 283 283 283 283 282 281 280 280 279 279 278 278 277 277 276 275 276 275 275 276 275 275 275 275
298 298 295 294 295 295 295 295 295 295 294 294 293 292 291 290 288 286 283 284 283 282 283 282 282 281 281 281 281 281 281 280 280 280 279 279 279 279 278 278 277 276 276 275 274 274 273 274 274 273 273 274 273 273
294 293 293 294 294 294 294 295 294 295 295 294 293 292 291 289 288 287 284 283 283 282 281 281 281 280 280 280 280 280 281 280 280 279 278 278 277 277 276 276 276 275 275 274 274 273 272 272 272 272 271 271 271 271
291 291 292 294 294 294 294 294 294 293 293 293 292 290 289 289 288 286 284 283 282 282 282 283 282 281 280 279 279 279 279 279 279 278 278 278 276 275 274 273 273 273 273 273 272 272 271 271 271 270 270 269 269 269
292 289 293 294 294 295 294 294 294 293 293 292 291 290 289 289 289 287 285 283 281 281 281 282 282 281 280 279 278 277 277 277 277 276 275 277 277 277 275 274 273 271 271 271 271 270 270 269 269 269 269 268 268 268
290 288 292 293 293 294 294 294 293 293 292 290 289 288 289 289 288 286 284 282 280 279 280 281 280 279 278 278 277 276 275 276 275 274 273 273 273 274 274 273 272 269 268 269 269 269 269 268 268 268 268 268 267 266
291 290 289 290 292 292 292 291 291 291 291 290 289 289 289 287 285 282 280 279 278 277 278 278 279 278 277 275 274 273 274 275 274 273 272 272 271 271 271 270 269 269 268 269 268 267 268 267 267 267 267 267 266 266
288 288 289 288 287 288 289 289 288 288 287 286 287 285 285 285 283 280 278 277 276 276 275 276 276 276 275 274 274 274 273 273 273 272 272 272 272 271 270 269 269 269 268 269 269 268 268 267 267 266 267 266 266 265
287 285 283 283 283 282 283 285 284 281 280 284 285 282 279 278 277 276 276 276 275 275 275 274 273 273 272 273 274 274 273 272 272 272 272 272 271 270 269 268 268 268 268 267 267 267 268 268 268 267 267 267 265 265
287 286 283 282 282 281 279 280 279 279 279 278 276 276 275 275 275 275 275 276 276 275 275 274 274 274 274 274 272 272 272 271 271 271 271 270 269 269 267 267 267 267 268 267 267 267 266 267 267 266 266 265 265 265
287 285 283 282 280 279 278 278 278 278 278 279 278 277 275 274 273 274 274 274 273 273 273 273 273 273 273 272 272 272 271 271 270 270 269 269 269 267 267 268 267 268 268 266 267 266 266 267 266 265 265 265 265 264
286 285 282 281 280 279 279 282 282 281 281 279 278 277 277 278 277 274 273 273 274 274 274 273 273 272 273 271 271 270 270 270 270 270 269 269 269 268 268 268 268 266 267 267 267 266 265 265 265 265 264 264 264 265
285 284 283 282 282 283 282 283 283 282 281 280 279 279 278 279 278 274 274 274 274 274 272 272 273 272 271 271 270 270 270 270 269 269 269 269 269 268 268 268 268 268 268 268 267 266 265 264 264 264 265 265 264 263

GFSWCAN_850_thetae_051.txt.gz
Theta_e
297 299 300 300 301 300 300 300 300 300 300 301 301 301 300 298 298 299 300 300 300 300 305 306 307 308 307 307 307 308 309 309 309 309 309 308 308 313 314 313 312 317 318 315 318 320 321 317 319 318 317 318 318 319
299 300 300 301 300 300 300 300 300 300 300 299 300 301 301 299 299 299 300 299 300 299 305 306 306 307 307 308 308 309 309 308 309 308 310 310 308 310 311 312 313 317 317 317 317 316 318 317 318 320 320 321 320 321
300 300 301 301 300 300 301 301 301 301 301 300 300 301 301 300 299 299 300 300 300 299 301 306 307 307 307 308 309 310 309 309 311 310 309 312 310 310 311 311 313 314 315 315 317 317 315 314 316 315 318 317 320 321
301 300 300 300 301 300 301 300 301 301 301 300 300 300 301 300 299 299 300 300 300 301 303 304 305 307 306 305 307 308 310 310 312 312 310 310 309 313 308 313 312 312 314 317 317 316 316 315 314 315 317 319 319 319
301 301 300 300 300 300 301 301 302 301 302 301 301 301 300 301 300 300 300 300 301 304 304 305 304 306 306 306 306 308 309 309 311 310 306 308 310 312 311 311 310 313 313 315 313 317 317 317 317 317 318 317 317 318
301 300 300 299 300 300 302 302 301 301 300 300 300 300 300 300 299 300 301 300 300 305 306 303 305 306 307 308 307 308 308 309 310 311 310 309 310 313 310 309 313 315 315 315 314 314 318 319 318 318 318 317 318 316
301 301 300 299 300 300 300 300 300 300 301 301 300 300 300 300 300 300 302 302 301 304 305 303 305 307 306 307 307 307 306 309 310 310 310 312 312 313 303 308 312 312 313 314 315 315 316 316 316 316 316 316 316 316
302 300 300 299 299 300 300 300 300 300 301 301 300 300 300 302 302 302 302 303 304 304 304 301 301 304 307 308 307 308 308 308 308 309 310 308 311 310 309 305 304 305 310 311 312 313 314 314 314 314 314 314 314 314
301 301 301 300 299 299 300 300 300 300 300 300 300 301 302 301 301 302 303 303 303 303 303 301 301 303 306 307 307 308 308 305 308 303 307 309 305 305 301 299 300 301 303 306 310 310 311 312 312 312 312 311 310 311
300 301 301 300 300 299 299 299 299 300 300 300 301 301 300 301 302 302 302 302 302 303 304 301 305 303 305 304 306 306 308 302 304 304 310 305 301 298 296 296 297 297 300 304 306 303 306 308 308 308 308 308 308 308
299 300 300 300 300 300 300 300 300 300 301 301 300 300 301 301 301 302 302 301 302 300 304 304 305 302 303 303 304 304 305 304 310 307 308 307 298 296 293 294 292 295 297 299 300 301 302 303 305 305 305 304 304 305
300 300 299 299 299 299 300 300 301 300 301 302 301 301 301 301 303 301 300 300 301 303 304 300 305 305 303 303 299 303 306 304 309 304 304 299 295 293 292 291 290 292 293 295 296 298 299 300 300 301 300 300 300 298
299 298 298 299 300 300 301 301 300 301 302 303 301 300 302 301 302 301 303 304 303 298 297 301 303 305 304 303 298 302 306 308 302 302 296 294 292 291 290 290 289 289 290 291 291 291 292 292 293 294 293 292 293 293
298 297 297 298 300 301 301 302 302 302 302 300 300 296 297 296 296 294 295 296 296 296 296 297 301 301 300 299 301 306 302 301 301 298 292 291 290 290 289 288 288 287 287 288 287 288 288 288 288 288 288 289 290 289
296 297 298 299 299 301 301 301 300 301 294 291 292 293 291 293 292 292 292 294 295 294 295 299 300 300 300 301 299 302 300 295 294 291 290 288 288 288 287 287 287 286 286 285 286 286 285 286 285 285 285 286 287 286
299 298 298 298 299 299 299 298 299 294 291 289 288 288 289 288 286 291 291 292 293 294 297 300 301 299 297 295 294 293 293 291 289 288 286 286 286 286 286 286 285 285 285 285 285 285 285 285 285 284 285 285 284 284
298 298 298 297 295 297 299 297 292 289 289 291 289 288 289 289 289 290 290 290 294 295 297 296 293 293 294 289 288 288 286 286 286 285 284 284 284 284 284 284 284 284 284 284 284 283 283 284 284 284 283 283 283 282
298 297 297 299 299 295 293 291 290 290 289 288 288 288 288 286 287 290 289 290 293 293 292 291 290 288 289 290 288 286 284 283 284 284 283 283 283 283 283 283 283 283 283 283 283 283 283 282 282 281 281 281 281 281
298 298 298 299 296 295 293 293 290 290 289 288 287 287 287 286 286 287 287 288 288 289 288 287 286 287 286 286 286 285 284 283 282 282 282 282 282 282 281 281 282 281 281 281 281 280 281 281 281 281 280 280 279 278
298 298 298 299 297 296 294 293 292 291 291 288 287 286 285 285 285 284 284 286 285 284 284 284 284 284 284 283 285 284 284 283 282 282 281 280 280 280 280 279 279 279 279 279 279 279 278 278 277 277 278 278 278 276
298 297 296 295 296 296 296 295 294 293 292 291 290 289 287 285 283 283 283 283 283 283 283 282 282 282 282 283 284 284 283 282 281 280 280 279 279 278 278 278 278 277 277 276 276 275 276 275 275 275 275 274 274 274
296 294 293 293 294 295 295 295 295 294 293 292 291 291 290 288 286 284 282 282 282 281 281 281 281 281 281 281 281 281 280 280 280 279 279 278 278 277 276 276 275 275 274 274 273 273 273 273 273 273 273 272 272 272
294 292 293 293 293 294 293 294 294 295 291 292 292 290 289 288 286 284 283 282 282 281 280 280 280 280 280 280 280 280 279 279 278 277 277 277 276 276 276 275 274 274 273 273 273 272 272 271 271 271 271 271 271 270
292 292 293 293 293 291 293 294 294 293 292 289 288 286 286 288 285 284 282 282 282 282 281 281 280 279 279 279 278 278 278 278 278 277 277 277 276 275 274 273 273 273 272 271 271 271 270 270 269 269 269 269 269 269
291 289 292 290 294 289 287 288 288 288 287 287 285 286 286 288 283 283 282 282 281 281 281 281 279 279 277 277 277 276 277 277 277 277 277 276 275 274 274 273 272 271 271 271 269 269 269 269 269 269 269 268 268 268
286 289 289 290 290 288 290 287 287 286 285 284 286 288 288 281 279 282 283 280 280 280 281 280 279 278 277 277 276 276 276 275 276 275 274 274 274 274 273 272 272 271 270 270 269 269 268 268 268 268 267 267 267 267
285 288 289 289 291 291 289 290 289 285 284 288 286 284 280 278 278 281 279 278 278 278 279 278 278 277 276 275 275 275 275 274 274 273 273 273 272 271 271 270 270 269 269 269 269 269 269 268 267 267 267 267 267 266
287 286 285 285 284 285 283 282 282 282 281 283 284 278 277 278 278 279 277 277 277 277 277 277 277 276 275 274 274 274 274 273 273 272 272 272 271 271 270 270 270 269 269 269 268 268 268 268 268 268 267 267 267 266
285 284 283 280 281 281 281 280 280 280 279 282 278 276 278 278 277 276 276 276 275 275 276 276 275 275 274 274 274 273 272 273 273 272 272 271 270 270 269 269 269 269 269 268 268 268 268 268 267 268 267 266 266 266
286 283 281 280 277 278 279 280 280 277 278 278 276 276 276 276 276 276 276 276 276 275 275 274 274 274 274 274 274 273 272 271 271 271 271 271 270 269 269 269 269 269 269 269 269 268 268 268 267 267 266 265 265 265
285 283 281 280 279 278 278 279 279 278 277 276 276 275 274 274 275 275 276 276 275 275 274 274 274 274 274 273 273 272 272 271 270 270 270 269 269 270 269 269 269 269 269 269 269 268 268 268 267 267 266 266 265 265
285 282 280 277 279 279 279 281 280 279 278 277 277 276 276 276 275 274 273 273 274 274 274 274 273 274 273 272 271 271 271 271 270 270 269 269 269 269 269 269 269 269 269 268 268 268 268 267 266 266 266 266 265 265
283 282 281 280 280 281 282 283 282 282 281 279 278 279 278 278 276 274 273 274 274 274 274 274 274 273 271 271 271 271 271 270 270 270 269 269 269 269 269 269 269 269 269 268 268 268 268 267 267 266 266 265 265 265

GFSWCAN_850_thetae_054.txt.gz
Theta_e
296 296 298 300 299 299 300 300 300 300 300 300 300 299 299 298 298 298 300 300 301 300 302 303 305 305 305 304 304 305 306 306 305 305 305 304 303 310 311 312 311 313 316 316 315 318 317 317 319 318 316 318 318 319
298 299 299 300 300 300 301 300 300 300 300 300 300 300 299 299 299 298 299 299 300 301 302 303 304 306 305 305 305 306 306 306 307 305 304 304 305 301 308 310 311 313 312 315 315 316 315 317 318 317 316 318 319 318
300 301 300 301 300 300 300 300 300 300 300 300 300 300 302 299 300 299 299 299 299 300 300 300 302 305 306 307 306 307 308 308 309 308 306 307 308 304 306 307 310 311 311 313 314 315 316 316 316 314 315 316 316 318
301 300 300 300 300 300 300 300 300 301 301 300 300 300 300 300 299 299 299 299 300 300 300 302 301 302 307 307 307 308 308 309 309 310 306 303 305 310 304 310 308 310 314 315 314 314 315 315 315 313 313 315 315 317
301 299 300 300 300 301 301 301 300 301 301 301 301 300 299 300 300 299 299 299 300 301 301 302 303 306 306 306 306 307 308 308 308 308 305 305 307 308 306 309 311 311 313 314 313 314 315 314 314 315 314 315 316 316
301 300 299 300 301 301 302 301 300 301 301 300 300 300 300 301 299 299 300 300 300 300 304 304 303 305 306 305 304 305 307 308 308 309 307 309 310 311 308 309 308 307 308 310 311 314 316 318 319 317 316 317 316 316
300 299 300 299 301 301 301 300 301 301 301 300 300 299 301 299 299 300 301 300 300 301 301 303 304 306 306 308 307 305 307 308 308 308 308 310 309 310 305 309 304 304 304 308 310 314 315 313 313 314 314 315 316 315
299 299 301 299 300 300 301 300 301 301 300 301 301 300 300 299 299 301 302 300 300 300 303 301 303 304 306 307 306 306 306 307 308 308 308 307 309 309 308 299 299 300 302 305 307 309 309 312 312 311 312 312 313 313
300 299 300 301 300 301 300 300 300 300 300 301 301 300 300 300 300 302 301 300 300 303 301 299 302 306 306 306 307 307 307 303 306 303 302 307 302 299 297 296 296 296 297 300 304 307 308 308 306 308 308 308 308 307
299 299 300 300 301 300 300 300 300 300 300 300 300 300 299 301 302 301 301 301 301 303 304 298 302 304 304 303 304 303 305 299 306 303 307 299 297 296 293 293 293 293 296 297 302 302 303 302 300 301 302 303 304 302
300 299 299 299 300 300 300 301 301 301 301 301 301 300 301 301 301 301 300 299 300 300 302 303 302 300 304 299 301 303 303 304 307 305 303 298 295 293 291 290 291 292 293 295 296 296 298 298 297 297 298 298 299 300
300 300 300 299 300 299 299 300 301 301 301 301 301 301 301 302 302 298 298 297 298 303 301 297 302 302 302 303 299 303 305 303 308 301 298 293 293 291 290 289 289 289 290 292 293 293 293 293 294 295 293 292 293 293
299 298 299 299 300 301 300 300 301 301 301 302 301 300 299 296 293 294 300 298 299 297 296 299 303 302 303 301 298 302 305 306 300 296 292 291 290 289 288 288 287 287 287 288 289 290 290 289 290 290 288 288 289 289
297 299 299 300 300 301 301 301 302 302 301 297 295 290 290 290 292 291 290 289 294 295 295 297 300 301 300 296 300 304 298 296 294 289 290 289 288 288 287 286 286 285 285 285 285 285 286 286 286 286 286 287 288 287
298 299 299 300 300 299 300 300 301 300 292 290 290 288 288 289 290 291 291 292 293 294 295 299 300 298 297 297 294 297 293 291 290 288 286 286 286 286 285 285 284 284 284 284 284 284 284 284 284 284 284 285 285 285
298 299 299 298 300 300 298 298 298 294 289 288 288 286 288 285 286 289 290 291 292 294 296 297 299 297 294 291 290 290 290 288 287 286 285 284 285 285 285 284 284 284 283 283 284 284 284 284 284 283 284 284 284 284
298 298 299 296 296 299 298 296 291 289 289 289 287 286 287 288 287 287 289 288 292 294 293 292 290 291 291 290 288 287 286 285 284 283 283 283 283 283 283 283 283 283 283 283 283 282 282 282 282 283 282 281 282 282
298 298 298 297 297 294 292 290 289 288 287 287 286 286 285 285 285 286 287 289 292 292 290 289 288 288 289 289 286 284 283 283 283 282 281 282 282 282 282 282 283 283 283 283 282 282 282 282 281 280 280 280 280 280
298 297 297 297 294 294 293 291 290 289 287 286 285 285 285 284 284 285 287 286 286 287 286 286 285 284 284 284 283 283 282 281 281 281 281 281 281 281 282 282 282 282 282 281 281 280 280 280 280 279 279 279 278 277
298 297 297 297 296 294 293 293 291 290 289 286 285 284 283 283 283 283 284 284 284 283 283 283 283 282 283 283 283 282 282 281 281 280 279 280 280 281 281 280 280 280 280 279 279 278 277 277 277 277 277 277 276 275
296 295 295 295 295 296 295 294 293 290 288 289 287 286 284 283 282 282 282 282 282 282 283 281 281 282 284 284 283 283 282 282 281 280 279 278 278 278 278 277 277 276 277 276 276 275 275 275 274 274 274 273 273 273
294 293 293 294 294 295 294 293 293 292 291 290 290 289 287 284 283 282 281 281 280 280 280 281 281 281 282 282 282 282 281 281 280 279 278 278 277 276 276 275 276 275 274 273 273 273 272 272 272 272 272 271 271 271
292 292 293 293 293 293 293 294 294 293 288 289 289 286 285 285 283 282 281 281 281 280 280 280 280 280 279 279 279 279 279 279 278 278 277 277 276 275 275 274 274 273 273 272 272 272 272 271 270 271 271 271 270 270
292 293 294 294 292 288 293 293 293 291 291 286 285 283 285 284 283 282 281 281 280 280 280 280 280 279 279 278 278 278 278 278 277 276 275 275 275 274 273 273 273 272 272 271 271 271 271 270 270 270 269 269 269 269
291 288 292 286 293 287 283 283 283 285 284 282 282 282 282 286 278 277 279 281 281 280 279 279 278 278 277 277 277 277 277 277 277 277 276 275 275 274 274 273 272 271 271 271 270 270 269 269 269 269 269 269 268 268
284 289 288 286 286 286 285 283 282 282 280 284 283 288 286 275 275 279 280 279 280 280 279 279 279 278 277 276 276 276 276 275 275 275 274 274 274 274 273 272 271 270 270 270 270 270 270 269 269 269 269 268 268 267
284 286 288 286 289 289 284 287 286 281 281 281 281 277 274 272 274 278 278 279 279 279 279 278 278 278 277 275 275 275 274 273 273 274 273 272 271 271 271 270 270 270 269 269 269 269 269 269 268 268 268 267 267 267
285 283 279 281 281 282 277 276 275 276 276 281 279 272 272 271 275 278 277 277 278 278 278 278 277 276 276 275 274 274 274 274 273 272 272 272 272 271 270 270 270 270 269 269 269 268 268 268 268 267 267 267 266 267
283 282 281 275 278 279 279 275 277 278 278 280 271 271 277 276 277 277 276 276 276 277 277 276 275 275 275 274 274 273 272 273 273 272 272 271 270 270 269 269 269 268 268 268 268 268 268 268 268 267 267 267 266 266
283 281 279 277 274 276 278 277 276 277 278 277 275 275 275 276 275 275 275 275 275 275 275 274 274 274 274 274 273 272 271 271 271 271 271 271 270 269 269 269 268 268 269 269 268 268 268 267 267 266 266 266 266 266
283 281 279 278 277 277 277 277 276 276 276 275 275 274 274 274 275 275 276 275 275 275 274 274 274 274 274 274 273 272 271 271 271 270 270 270 269 269 269 269 269 269 269 268 268 268 268 268 268 267 267 266 266 265
281 280 278 276 278 278 279 280 279 278 277 276 275 275 275 275 274 274 274 274 274 274 274 274 274 274 273 272 271 271 271 271 270 270 270 269 269 269 269 269 269 268 268 268 268 268 268 268 268 268 267 267 266 266
280 280 280 279 278 278 280 281 281 280 279 278 278 277 277 276 273 273 273 274 274 274 274 274 274 273 272 271 271 271 271 270 270 270 269 269 269 269 269 269 269 269 269 268 268 268 268 268 268 267 267 267 266 266

GFSWCAN_850_thetae_057.txt.gz
Theta_e
296 295 296 297 297 299 299 300 299 299 299 298 297 297 297 297 298 299 300 301 301 301 302 303 304 304 303 304 302 304 304 303 302 302 303 304 300 306 308 310 310 311 313 314 314 316 316 314 314 319 315 316 317 318
299 299 300 300 301 301 299 300 300 300 300 299 299 298 298 298 298 298 298 299 300 301 302 303 304 304 304 304 304 304 305 305 304 303 301 302 301 298 306 307 309 310 308 310 311 313 314 312 313 312 313 316 316 316
300 300 301 300 300 300 300 300 300 300 301 300 300 300 299 299 298 298 298 299 299 299 301 302 303 304 305 304 304 304 305 306 307 307 303 304 305 301 302 304 308 308 309 309 311 310 312 311 311 311 311 315 315 315
301 300 300 299 299 300 300 300 300 300 300 300 300 300 300 300 300 299 299 298 299 300 299 300 303 303 305 305 305 305 305 306 308 308 305 303 302 306 302 306 304 306 309 310 310 310 311 312 312 314 314 316 315 316
300 300 300 299 300 300 301 301 300 300 300 300 300 300 300 299 300 299 299 299 299 300 299 300 302 302 302 305 306 307 307 306 308 306 304 306 304 306 304 305 307 309 310 311 309 311 310 313 314 315 315 313 315 316
299 300 300 301 301 300 300 301 301 299 300 300 300 300 300 299 299 299 299 298 299 299 302 301 302 303 302 302 306 307 307 308 308 308 306 308 309 309 305 305 305 304 305 306 308 310 308 311 310 312 312 313 313 314
300 299 299 300 300 300 301 300 301 300 300 301 300 300 300 301 299 299 300 300 299 301 301 302 304 304 304 304 304 304 305 307 308 307 306 307 309 310 304 304 301 301 301 305 305 307 310 309 306 308 310 311 311 311
301 299 300 300 299 300 300 301 300 301 302 301 300 300 299 300 299 300 301 299 300 300 300 302 304 304 306 305 305 306 306 308 307 307 307 306 308 308 305 297 297 297 298 303 304 303 303 306 307 308 307 310 310 309
299 301 300 300 300 300 299 299 300 300 299 300 301 299 299 300 301 300 300 299 299 301 301 299 301 306 303 304 306 306 305 301 304 301 303 306 301 299 295 294 294 294 294 296 300 302 303 306 304 304 302 304 303 300
300 300 300 300 300 300 299 300 300 299 299 299 299 299 299 301 300 300 300 300 299 300 302 301 301 304 304 301 301 302 303 303 306 304 303 295 296 292 291 291 291 291 293 295 297 300 299 299 299 299 298 297 298 294
299 300 300 299 300 300 299 300 300 300 300 300 300 300 300 300 301 300 299 300 299 299 300 300 302 302 303 300 301 301 304 303 306 305 304 297 294 291 289 289 288 289 291 292 293 293 293 293 292 291 292 294 292 293
299 299 299 300 300 300 300 301 301 301 301 301 300 300 300 300 299 297 298 296 300 302 299 300 301 302 302 302 298 302 304 302 305 297 295 293 291 289 288 287 287 287 288 288 289 289 289 290 289 290 288 288 290 288
299 300 300 299 300 300 301 302 301 301 301 300 299 296 295 292 289 290 295 297 297 296 295 299 302 301 301 300 299 302 305 303 295 293 291 289 288 287 286 285 285 285 286 286 285 285 285 285 286 287 286 285 286 286
299 299 301 300 300 300 302 301 301 299 299 294 291 286 286 286 289 289 288 287 293 294 294 299 300 300 300 299 299 300 294 292 289 287 289 287 286 285 285 284 284 284 284 284 284 284 284 284 284 284 285 285 286 285
297 298 300 300 301 300 300 301 301 300 291 289 288 287 287 287 288 289 290 291 292 293 295 299 297 296 293 292 291 291 288 287 287 284 284 284 284 284 284 283 283 283 283 282 283 283 283 284 284 284 284 284 284 284
299 299 297 299 299 298 297 297 297 292 288 288 286 285 286 284 285 287 288 288 291 293 295 296 295 293 290 289 288 288 288 286 284 283 284 283 283 283 283 283 283 282 282 282 282 282 283 283 283 282 283 283 283 283
298 297 296 293 295 298 298 296 290 288 288 287 285 285 285 285 285 285 286 287 291 292 290 291 290 291 290 288 286 285 284 284 282 281 282 282 282 282 283 283 283 283 283 283 283 283 282 282 282 282 281 280 281 280
298 297 296 296 296 293 292 290 288 287 285 284 284 284 284 283 283 285 286 288 291 289 288 289 287 286 285 286 283 283 281 281 281 281 281 282 282 283 283 283 282 282 282 282 282 282 282 281 280 279 279 279 279 279
297 297 297 295 295 293 291 290 288 285 284 284 283 283 283 283 283 285 286 285 285 286 285 285 284 284 284 283 282 281 281 281 280 280 281 281 282 282 282 282 282 282 281 281 281 281 280 280 279 279 279 278 278 276
297 296 296 295 294 293 293 291 289 287 286 284 284 283 282 282 282 283 284 284 284 283 283 282 281 281 282 282 282 282 281 281 281 280 279 279 280 280 280 280 280 280 280 279 279 279 278 278 277 277 276 276 276 274
295 295 295 295 295 295 294 292 289 288 286 286 285 284 283 282 281 281 282 283 282 281 281 280 280 282 282 282 282 282 281 281 281 280 278 278 278 279 279 278 278 277 277 277 277 276 275 275 274 273 274 273 273 272
293 293 293 294 294 294 292 292 291 290 290 288 288 287 285 282 282 281 281 280 280 280 280 280 281 282 282 282 281 282 281 281 280 280 279 279 278 277 276 276 276 275 274 274 273 273 273 273 272 272 272 271 271 270
292 292 292 293 293 293 293 293 293 292 287 287 288 285 282 282 282 281 281 280 279 279 280 280 280 280 280 280 280 280 280 280 279 278 277 277 276 275 275 274 273 273 273 272 271 271 271 271 270 271 270 270 269 269
293 293 293 293 292 287 293 292 291 289 288 285 284 284 281 282 281 280 280 280 279 280 280 279 280 279 279 279 278 277 277 277 276 275 275 275 274 274 273 273 272 272 271 271 270 270 270 269 269 269 269 269 268 268
292 288 291 284 290 285 282 281 281 284 282 281 282 281 280 284 276 276 277 279 280 279 279 279 279 279 278 277 277 277 277 277 277 276 275 274 274 273 272 272 271 271 270 270 270 269 269 269 268 268 268 268 268 268
285 287 286 283 284 285 283 281 280 281 280 280 281 283 282 274 274 276 278 279 279 279 279 279 279 278 277 276 276 275 275 275 275 275 274 274 273 272 272 272 271 270 270 270 269 269 269 268 268 268 268 268 268 268
282 283 285 283 286 286 281 283 283 279 277 279 277 272 271 271 271 277 278 279 279 279 278 278 277 277 277 276 276 276 275 274 273 273 273 272 272 271 271 270 269 270 270 269 269 269 269 269 268 268 268 268 268 268
282 282 278 279 279 280 272 271 270 273 274 280 277 270 269 270 274 277 278 278 278 278 278 277 276 276 275 275 274 274 274 273 273 272 272 272 272 271 270 270 270 269 269 269 269 269 269 269 268 268 268 267 267 267
281 280 279 271 277 277 277 271 273 277 277 278 269 269 276 276 276 277 277 277 277 277 277 277 276 275 275 274 274 273 272 272 272 272 271 271 271 271 270 269 269 269 269 269 269 268 268 268 268 268 267 267 267 267
280 279 277 276 273 274 275 274 275 275 276 275 275 275 275 275 275 276 276 275 275 275 275 275 274 274 274 274 273 272 272 271 271 271 271 270 270 269 269 269 269 268 269 269 268 268 268 268 267 267 267 267 267 266
280 279 278 277 275 275 275 275 275 276 275 275 275 274 274 274 274 275 275 275 275 274 274 274 274 274 274 274 273 272 271 271 270 270 270 270 269 269 269 269 269 269 269 268 268 268 268 268 268 268 267 267 266 266
279 279 277 275 277 277 278 278 277 277 276 275 275 275 275 275 274 273 274 274 274 274 274 274 274 273 273 273 271 271 271 270 270 270 270 269 269 269 269 269 269 269 269 268 268 268 268 268 268 268 267 267 267 266
279 279 279 278 277 277 279 280 279 278 278 277 277 276 275 275 273 273 274 274 274 274 274 274 274 273 272 271 271 271 270 270 270 270 269 269 269 269 269 269 269 269 269 269 268 268 268 268 268 268 268 267 267 267

GFSWCAN_850_thetae_060.txt.gz
Theta_e
297 296 296 296 298 299 299 298 297 297 297 296 296 297 299 299 299 299 299 299 300 300 302 303 303 304 304 303 303 303 304 302 300 301 303 306 302 304 305 307 311 312 313 310 312 314 312 312 314 319 315 314 314 314
297 297 299 299 299 300 300 300 299 298 299 299 297 297 297 298 299 299 299 299 300 300 301 302 303 303 304 304 303 304 304 302 302 301 300 301 300 296 305 307 308 308 308 308 309 310 309 312 313 311 312 314 315 314
298 299 300 300 300 300 299 299 299 300 299 300 299 298 297 297 298 299 298 300 300 299 300 301 302 303 303 303 304 303 303 304 304 304 300 301 303 299 301 303 306 306 307 308 308 308 309 310 311 311 311 311 311 312
299 300 300 299 299 299 299 299 299 300 300 300 299 299 298 298 297 298 298 298 299 300 301 301 302 303 304 304 304 303 304 305 305 306 303 300 302 304 300 304 303 304 307 308 307 309 310 311 311 311 311 312 313 313
299 299 299 300 300 299 300 300 300 300 300 300 300 300 299 299 298 298 298 298 299 300 300 300 301 303 304 304 304 304 304 304 306 306 300 304 302 305 302 304 305 306 308 307 306 309 308 309 309 309 309 308 310 312
299 299 299 300 300 300 300 300 301 301 300 300 300 300 300 300 299 299 298 298 298 299 301 300 301 302 303 304 305 305 305 306 307 306 304 306 308 307 307 303 305 304 304 303 306 305 306 307 308 308 309 304 307 305
299 300 300 300 301 300 300 301 301 301 300 300 300 300 300 300 300 299 299 299 298 300 300 301 302 303 302 302 302 305 306 306 307 307 306 305 307 307 306 307 300 300 299 301 303 304 307 305 303 303 308 307 304 300
300 300 299 299 300 300 300 301 300 300 300 300 300 299 300 300 299 299 300 300 299 300 300 301 303 304 304 304 304 304 305 304 305 305 305 304 306 306 307 296 296 295 295 299 301 301 301 302 301 302 303 300 301 303
300 299 299 300 300 300 301 301 300 300 300 300 299 300 299 298 299 300 299 299 299 300 298 298 303 305 304 304 305 304 305 303 303 302 301 305 303 301 293 292 292 292 293 294 295 299 300 299 297 295 297 296 297 297
300 300 299 300 299 299 300 301 299 299 299 300 299 299 299 299 299 299 299 300 299 299 301 301 300 303 301 301 301 302 301 300 301 301 300 296 294 290 289 289 289 289 290 291 293 296 295 295 293 291 293 292 288 290
299 299 300 300 299 299 300 299 299 299 299 300 300 300 299 300 300 300 298 298 299 300 299 300 300 303 302 299 302 300 302 302 305 301 300 297 293 290 288 287 287 287 288 289 290 291 291 290 290 289 288 288 288 288
299 299 300 300 300 299 299 299 300 300 301 301 300 300 300 299 298 298 299 298 300 302 298 301 300 301 302 302 300 301 302 303 302 295 295 291 290 288 287 286 285 286 286 287 287 287 287 287 286 286 284 283 284 285
299 299 300 300 300 301 300 300 300 301 300 300 299 294 293 290 291 293 295 295 296 295 295 299 301 300 299 300 300 301 304 298 294 292 290 288 287 286 285 284 284 284 284 284 284 284 284 284 284 284 283 283 284 284
300 299 300 300 301 301 300 300 300 301 297 292 289 285 285 283 286 287 286 286 291 293 294 299 300 299 297 298 296 298 291 290 287 287 287 286 285 284 283 283 283 282 282 282 282 282 282 282 282 282 282 283 283 283
298 299 299 299 298 299 298 298 297 296 291 288 287 284 285 286 286 287 288 290 290 292 296 297 293 293 289 287 289 290 287 287 287 284 284 283 283 283 283 282 282 282 282 282 282 282 282 283 282 282 282 283 283 282
299 298 297 298 299 299 299 297 298 291 287 286 284 283 284 282 283 285 286 287 290 293 295 295 289 288 286 287 286 285 287 285 282 282 282 282 282 282 282 282 282 282 282 282 282 282 282 282 282 281 281 281 281 281
298 296 294 292 294 299 299 296 289 287 286 286 284 283 283 283 283 284 285 286 290 291 288 290 288 290 289 286 283 283 280 279 280 281 282 282 282 282 282 282 282 282 282 282 281 281 281 281 281 282 281 280 280 280
297 297 295 295 296 294 292 288 287 285 283 283 281 283 283 283 283 284 285 287 290 289 288 288 287 285 284 285 283 282 281 281 281 281 281 281 282 282 282 282 282 282 281 281 281 281 281 281 280 279 279 279 278 278
297 296 296 296 294 292 290 288 286 283 283 283 282 283 282 282 283 285 285 285 286 286 285 285 284 284 283 282 281 281 280 280 279 279 279 280 280 281 281 281 281 281 281 281 281 280 280 279 278 278 277 277 276 275
295 296 295 294 293 292 291 289 286 285 284 283 283 282 282 282 283 283 283 283 283 283 282 282 281 281 281 281 281 281 281 280 280 279 278 279 279 280 280 280 280 280 280 279 279 278 277 277 276 275 275 275 274 274
295 295 294 294 294 294 292 289 287 285 285 285 283 283 283 282 281 281 281 282 281 280 280 280 280 281 281 281 281 281 281 281 281 281 279 278 278 279 279 279 278 277 277 276 276 275 274 274 273 273 273 272 271 271
294 294 293 293 292 292 290 290 289 288 288 287 286 285 283 281 281 280 281 279 279 279 280 279 280 281 281 281 281 281 281 281 280 279 279 278 277 276 275 275 275 275 274 274 273 273 273 272 272 271 271 271 270 270
292 292 292 293 293 292 292 292 292 290 287 286 286 283 279 281 281 281 280 279 279 278 279 280 280 280 280 279 280 279 279 280 279 278 277 276 275 274 274 274 273 273 273 272 271 271 271 270 270 270 270 269 269 269
293 293 292 292 292 286 291 290 289 287 287 284 283 281 278 281 281 280 278 279 278 279 279 279 279 279 279 278 278 277 277 277 276 275 275 275 275 274 273 273 272 272 271 271 271 270 270 270 269 269 269 268 268 268
291 287 290 282 289 285 282 279 280 283 281 280 280 279 277 282 275 275 276 279 279 279 279 279 279 279 279 278 277 277 277 276 276 276 275 274 274 273 273 272 271 271 271 270 270 269 269 269 269 268 268 268 268 268
284 284 283 281 282 283 281 279 279 279 278 277 278 279 279 274 274 275 278 279 279 279 278 278 278 278 277 277 276 276 276 275 275 275 274 274 273 272 272 271 271 270 269 269 269 269 269 268 268 268 268 268 268 267
279 280 282 281 284 283 279 281 281 277 275 278 275 270 270 270 271 276 277 279 279 278 278 277 277 277 277 276 276 275 274 274 273 273 273 272 271 271 270 270 269 269 269 269 269 268 268 268 268 268 268 268 267 267
280 280 277 277 278 277 270 270 270 272 274 278 275 268 268 269 274 277 278 279 279 278 278 277 276 276 276 275 275 274 274 273 273 272 272 271 271 270 270 270 269 269 269 269 268 268 268 268 268 268 268 267 267 267
279 278 278 270 274 274 273 270 272 275 275 276 267 269 275 275 275 277 277 277 277 277 277 277 276 275 275 274 274 273 272 272 272 271 271 271 270 270 269 269 269 269 269 269 268 268 268 268 268 268 268 267 267 267
278 278 276 274 269 271 273 273 274 275 275 275 274 274 274 275 275 275 276 276 275 275 275 275 275 274 274 273 272 272 271 271 271 271 270 270 270 269 269 269 269 269 269 269 268 268 268 268 268 268 268 267 267 266
279 278 276 275 273 274 274 274 275 275 275 274 274 274 274 274 274 274 274 274 274 274 274 274 274 274 273 273 272 271 271 271 271 270 270 270 270 269 269 269 269 269 269 268 268 268 268 268 268 268 268 267 267 267
278 277 275 271 275 275 276 277 277 276 275 275 274 275 275 274 273 273 273 274 274 274 273 273 273 273 273 272 271 271 271 271 270 270 270 270 269 269 269 269 269 269 269 269 269 269 269 268 268 268 268 268 268 267
278 278 278 277 276 277 278 278 277 277 277 276 276 275 275 274 273 273 274 274 273 273 273 273 273 272 271 271 271 270 270 270 270 270 270 269 269 269 269 269 269 269 269 269 269 269 269 268 268 268 268 267 267 267

GFSWCAN_850_thetae_066.txt.gz
Theta_e
295 296 296 296 297 297 297 298 298 298 298 298 298 298 298 296 296 296 296 297 297 298 299 301 301 301 302 304 305 304 305 304 306 307 307 308 308 308 308 310 312 311 311 312 312 313 316 314 313 313 315 313 314 314
296 296 296 296 297 297 298 298 298 299 299 299 298 297 298 297 297 297 297 297 298 298 299 299 300 302 302 303 303 304 304 305 305 307 307 307 308 309 308 309 309 312 312 313 313 313 314 313 313 313 312 313 313 312
296 297 298 298 298 299 300 299 299 300 300 299 299 297 297 298 298 298 297 298 298 298 298 300 300 302 303 303 303 303 304 305 305 305 307 307 308 308 310 309 310 309 310 311 311 311 312 312 313 311 310 310 309 308
299 298 300 300 299 299 299 299 299 300 300 299 298 299 296 298 298 298 298 299 298 299 301 301 300 300 302 303 304 303 304 304 305 305 306 307 308 307 308 308 309 309 309 309 310 310 311 312 310 308 308 308 306 305
300 299 300 300 299 300 300 299 299 299 299 300 299 299 297 297 298 298 299 299 299 299 301 300 301 301 300 302 304 304 304 304 305 306 307 308 307 308 308 310 310 310 310 311 311 308 307 309 307 305 305 305 304 301
299 299 299 299 299 299 299 299 299 299 299 299 299 299 299 298 298 297 297 299 299 300 300 303 301 301 302 303 304 304 304 304 303 305 307 307 307 308 310 309 309 308 305 304 307 305 305 305 303 303 303 302 300 299
298 298 299 299 300 299 299 299 300 299 299 299 299 299 299 298 298 298 300 298 299 299 300 304 304 302 302 304 304 304 304 304 304 305 306 306 307 307 309 310 306 300 299 300 299 300 305 301 301 299 299 300 300 299
299 299 300 299 300 300 300 300 300 300 299 299 299 299 299 298 298 299 299 299 299 300 300 304 304 303 303 303 303 304 304 305 304 305 304 307 306 307 308 297 295 295 297 298 296 295 296 298 297 296 296 295 295 295
299 299 299 299 299 301 300 300 299 300 299 300 300 299 298 298 298 299 298 299 299 300 302 303 305 305 302 303 303 304 303 306 303 305 306 306 308 305 293 292 291 291 292 292 293 295 294 294 293 293 292 291 289 288
299 299 299 300 300 300 300 300 299 299 299 299 299 298 297 299 299 298 298 299 299 300 301 304 302 305 303 304 304 304 304 306 308 304 301 305 295 291 289 289 288 289 289 290 291 295 292 292 290 288 287 287 286 284
299 299 299 299 299 299 299 300 300 299 300 299 299 298 299 299 299 299 298 300 300 302 301 302 302 304 302 304 304 303 305 305 307 305 306 303 297 291 288 287 286 287 287 287 288 288 288 288 288 286 284 283 283 283
299 299 299 299 299 299 300 299 300 299 299 299 298 298 299 299 299 301 301 300 301 302 299 301 301 302 301 302 304 302 306 305 306 299 305 301 290 288 287 286 285 285 285 285 285 285 284 284 283 283 282 281 281 281
299 300 299 299 299 299 299 300 300 299 299 299 298 293 294 292 296 301 301 300 301 296 296 299 302 300 299 300 301 306 305 302 297 300 297 291 287 286 285 285 284 283 283 283 282 282 281 280 281 281 280 280 281 281
297 300 299 300 299 299 299 298 298 298 297 292 292 291 292 292 292 292 294 295 293 294 294 299 298 301 298 300 298 301 295 297 299 298 293 289 285 284 284 283 283 281 281 280 280 280 280 280 280 280 280 281 281 281
296 295 297 300 300 299 299 299 299 299 293 289 290 290 290 288 288 288 288 291 291 291 296 298 297 297 296 296 295 296 296 296 294 294 289 285 284 283 283 282 281 280 280 280 280 280 280 280 280 280 280 280 281 280
296 295 294 296 296 298 299 299 297 294 287 286 285 289 287 290 290 289 289 291 289 291 294 296 297 296 293 293 294 292 296 295 289 287 284 283 282 281 280 280 280 280 280 280 280 280 280 280 280 279 280 280 279 279
296 295 293 291 294 293 293 293 290 286 285 286 286 284 285 286 286 287 287 288 288 293 296 295 295 292 291 292 290 288 289 287 284 283 283 282 281 280 281 281 281 281 281 280 280 280 280 280 279 279 279 277 277 277
296 295 295 295 293 293 291 287 286 285 285 285 286 284 284 284 286 286 286 287 291 291 291 290 289 290 290 290 289 285 283 282 282 281 280 279 280 280 280 280 280 280 280 280 280 279 279 279 278 276 276 275 275 274
297 296 295 294 293 292 288 286 286 285 284 284 284 284 284 284 284 284 285 286 286 287 287 287 287 287 286 284 284 282 282 281 280 279 278 279 280 280 280 280 280 280 280 280 279 279 278 277 276 275 274 274 274 273
294 294 294 294 293 290 288 287 286 286 286 285 284 284 284 284 283 283 283 284 285 284 283 284 284 283 283 282 283 282 281 280 281 280 279 278 278 280 279 278 278 279 279 278 278 276 275 275 275 274 274 273 272 271
293 292 292 293 290 290 289 288 287 286 286 286 285 285 284 284 283 283 282 282 282 282 282 281 281 280 280 280 280 280 280 281 281 282 280 278 277 277 278 278 278 277 275 275 274 274 273 272 272 272 271 271 270 269
293 293 292 291 290 289 289 288 288 287 287 286 286 285 284 284 284 282 282 282 281 280 281 281 280 280 280 279 279 279 281 281 281 280 279 278 276 276 275 274 274 274 273 272 272 271 271 271 271 270 270 269 269 268
292 293 293 292 292 291 290 289 290 289 289 288 285 285 284 284 282 282 282 280 280 279 279 279 278 278 278 279 279 279 279 279 279 278 277 276 275 274 274 273 273 272 272 271 271 270 270 270 270 270 269 269 268 268
292 292 291 291 291 290 289 289 288 288 288 288 286 285 284 283 282 282 282 280 279 279 278 278 278 278 278 278 277 278 278 277 276 276 275 274 274 273 273 273 272 272 271 271 270 270 270 270 269 269 269 269 268 268
291 285 287 288 288 289 289 288 287 288 287 286 285 285 283 282 284 283 282 280 279 278 278 278 278 278 277 276 276 276 276 275 275 275 274 274 273 273 272 272 271 271 270 269 269 269 269 269 269 269 269 268 268 268
285 281 285 286 287 289 288 288 287 287 286 285 283 280 281 283 283 282 282 280 279 278 278 278 278 277 277 276 276 275 276 275 275 274 274 273 273 272 271 271 270 270 270 270 269 268 269 269 269 269 268 268 268 268
284 283 280 278 282 283 284 283 284 285 285 284 283 281 282 281 281 279 277 277 277 278 278 277 277 277 277 276 276 275 275 274 273 273 273 272 272 271 271 270 269 270 270 269 269 269 268 269 268 268 268 268 268 268
279 278 281 276 277 277 279 279 280 280 281 279 280 278 279 279 279 277 276 278 278 278 277 277 277 277 276 276 275 274 273 273 272 272 272 272 271 271 270 270 270 269 269 269 269 269 268 268 268 268 268 267 267 267
277 276 276 272 275 275 274 276 277 276 274 276 278 277 276 273 272 274 277 277 277 277 277 276 276 275 275 275 274 273 272 272 272 271 271 270 270 271 270 270 269 269 269 269 269 268 268 268 268 267 267 267 267 267
276 275 274 273 274 275 274 272 273 272 272 274 274 273 273 272 274 276 276 276 276 276 276 276 275 275 274 273 273 272 272 272 271 271 270 270 270 270 269 269 269 269 269 268 268 268 268 268 268 268 268 268 268 267
276 276 275 275 274 273 272 274 274 274 273 273 274 274 273 273 274 274 275 275 275 275 275 275 275 275 274 273 272 272 271 271 271 270 270 270 270 269 269 269 269 268 268 268 268 268 268 268 268 268 268 267 267 267
275 275 275 276 275 274 274 276 275 275 275 276 275 274 274 275 274 273 274 274 274 274 274 274 274 274 273 272 271 271 271 271 270 270 270 270 269 269 269 269 268 268 268 268 268 268 268 268 268 267 267 267 267 267
276 276 276 276 276 276 275 276 277 276 276 276 274 274 274 274 274 273 273 274 274 274 274 274 273 272 271 271 271 271 270 270 270 270 269 269 269 269 268 268 268 268 268 268 268 268 268 267 267 267 267 267 266 266

GFSWCAN_850_thetae_072.txt.gz
Theta_e
293 293 293 293 294 295 296 296 297 296 296 297 297 298 297 296 295 293 294 296 296 297 297 298 299 300 302 303 306 306 306 306 305 305 306 309 310 311 311 312 311 311 312 313 312 314 315 315 316 317 317 315 314 313
293 293 293 295 296 297 296 297 297 297 297 297 297 298 298 297 296 295 295 295 297 297 297 298 299 300 301 301 303 302 304 304 305 307 308 310 312 312 311 312 312 312 312 314 311 313 316 314 314 314 313 312 311 311
293 294 296 296 297 298 298 298 298 298 298 298 298 298 298 298 298 297 295 296 296 296 297 297 298 298 300 302 301 303 305 304 304 307 308 309 311 311 312 312 312 313 312 314 314 316 315 312 312 312 311 310 309 308
294 296 297 298 298 299 299 299 299 298 299 299 298 298 298 298 299 298 297 296 296 296 297 297 298 301 298 302 303 303 304 304 305 307 306 309 310 310 312 312 312 312 311 312 314 313 310 309 308 309 308 307 307 306
296 298 299 299 299 299 299 299 299 300 299 299 299 299 299 298 298 298 297 296 297 296 299 299 299 301 303 301 303 304 304 304 304 306 307 308 309 310 310 312 312 311 311 314 313 309 309 307 305 306 305 304 303 302
298 299 299 299 298 298 298 299 299 299 299 299 300 299 300 299 298 298 296 297 296 297 298 303 301 302 303 302 302 303 304 303 304 305 306 307 308 309 311 311 305 305 305 303 304 305 306 305 302 301 301 300 300 298
299 299 299 299 299 299 299 300 299 299 300 299 300 300 300 298 298 297 298 298 297 297 299 302 303 304 303 303 302 303 304 303 304 304 305 307 308 308 310 309 300 300 303 300 300 303 303 299 298 297 297 298 296 294
299 299 299 299 300 300 301 300 300 299 300 299 300 300 299 298 298 298 299 299 298 299 299 303 304 304 304 304 305 304 304 303 303 305 306 308 308 308 303 297 296 296 299 297 298 299 298 297 296 294 295 295 294 291
299 299 299 300 300 300 300 300 299 299 299 300 299 298 297 298 298 298 299 299 298 299 301 302 304 306 304 305 304 304 303 304 303 305 306 308 306 299 295 295 293 293 294 294 297 296 296 296 295 293 293 292 292 290
299 299 300 300 300 300 300 300 299 300 299 299 298 297 298 298 299 299 299 298 299 300 302 304 304 305 304 305 305 303 304 306 307 306 305 304 296 294 293 292 291 291 291 292 293 292 292 292 292 290 289 288 287 286
299 299 299 300 300 300 299 299 299 299 299 298 298 298 298 299 299 299 298 300 300 303 302 304 304 304 303 306 305 305 306 307 308 306 307 304 298 293 291 290 289 288 289 288 289 288 288 288 288 287 285 284 283 282
299 299 299 299 299 299 299 300 299 299 299 299 299 298 298 299 300 302 302 302 303 304 304 305 305 304 304 304 305 305 306 307 308 305 306 301 293 290 289 288 287 286 286 285 285 285 284 284 284 283 282 280 280 280
299 299 298 298 298 298 299 299 299 299 299 298 299 298 300 298 303 303 302 302 304 302 301 303 304 304 303 303 305 306 306 306 303 305 300 294 289 288 287 287 285 284 284 283 282 282 281 281 281 280 279 279 279 279
299 299 299 299 299 298 298 299 299 298 299 297 298 296 299 299 298 298 299 299 297 299 301 302 302 304 301 302 303 303 301 302 305 305 297 291 287 286 285 284 283 282 281 281 280 279 279 279 278 279 279 279 280 280
297 298 299 297 297 297 297 298 297 296 294 294 296 296 294 292 293 294 294 296 295 297 300 302 302 302 301 301 301 300 301 302 299 296 291 287 286 285 284 283 282 281 281 281 280 279 279 279 279 279 279 279 279 279
297 297 297 296 298 297 297 298 298 293 291 290 291 294 294 296 295 294 295 295 294 297 301 302 301 301 299 301 301 300 303 300 294 289 286 285 284 283 283 282 282 281 281 280 280 279 279 279 279 279 279 279 279 279
298 298 296 293 295 297 294 298 294 290 290 291 291 290 293 292 292 292 292 293 295 297 302 302 301 298 298 298 295 293 294 290 288 287 285 284 283 282 282 282 282 281 281 280 280 279 279 279 279 278 278 277 276 276
295 297 299 299 299 294 294 292 290 290 290 291 291 290 289 290 291 291 291 293 296 297 297 296 297 296 295 297 292 289 287 286 285 284 284 283 283 282 282 282 281 281 280 280 280 280 280 280 280 278 278 277 277 276
296 295 294 297 294 292 291 291 291 289 290 290 289 290 289 289 288 289 290 292 291 293 294 293 292 291 290 289 288 286 285 285 284 283 282 282 281 281 281 281 280 280 280 280 280 280 279 279 279 279 278 278 278 277
295 294 292 293 294 292 291 291 292 291 291 289 289 289 289 289 289 289 288 289 289 289 288 288 289 288 288 287 286 286 285 284 284 283 282 281 281 281 282 281 280 280 280 279 279 279 278 278 276 276 276 277 277 275
293 292 294 294 293 293 293 292 291 290 290 290 290 290 289 289 288 288 287 287 287 287 286 286 285 285 285 285 285 286 285 286 287 285 283 282 281 281 280 280 280 280 280 280 279 277 277 276 275 275 275 274 273 273
294 295 295 293 293 292 292 291 291 291 291 290 290 290 290 290 288 286 286 285 285 286 285 284 284 284 283 283 282 282 283 283 283 282 282 281 281 281 280 279 279 278 278 277 277 277 276 274 274 274 273 273 272 272
294 295 295 294 293 292 291 293 292 293 293 291 291 291 290 288 287 287 285 283 283 283 283 282 282 281 281 281 281 282 282 282 281 281 280 279 279 278 278 277 277 277 277 275 275 275 274 273 272 272 272 272 272 272
292 292 293 294 293 292 292 292 292 292 291 292 291 290 290 289 288 287 286 284 283 282 282 282 282 281 281 281 281 280 280 280 280 279 279 279 278 277 276 276 275 274 274 274 273 273 272 272 271 272 271 271 272 271
293 288 291 293 293 293 292 292 292 293 292 291 290 290 289 289 290 289 286 283 283 283 283 283 284 284 282 280 279 279 279 280 279 278 277 277 277 277 276 275 274 273 272 274 274 273 272 271 271 271 270 270 270 270
289 286 291 293 293 294 293 293 293 293 292 290 289 288 290 291 290 288 286 284 283 282 282 283 283 283 282 281 280 279 277 277 278 277 275 275 275 276 276 276 275 273 273 271 271 272 272 271 270 270 269 270 270 269
290 288 286 286 290 291 292 291 291 291 291 290 290 290 290 289 287 284 284 283 282 282 282 282 283 282 280 278 277 276 276 276 277 276 274 273 273 273 273 273 273 273 271 271 270 270 270 270 270 269 269 269 269 269
284 285 286 285 286 286 288 288 288 288 287 286 288 286 287 287 285 282 281 280 280 279 279 279 279 279 277 276 276 275 274 274 274 274 274 275 274 273 272 272 271 270 270 270 269 269 268 268 268 268 268 268 268 268
284 282 280 280 282 281 281 284 284 281 280 285 286 283 280 279 279 279 278 278 278 277 277 276 276 276 276 275 275 274 274 274 275 274 274 275 274 272 272 271 270 270 270 269 268 269 268 268 268 268 268 268 267 267
283 283 281 280 280 280 279 280 280 279 279 278 277 277 277 277 277 277 278 278 278 277 277 276 276 276 275 275 274 273 273 273 273 273 273 273 272 271 270 270 270 269 269 268 268 268 267 267 268 267 267 267 267 267
283 283 281 280 280 278 279 279 280 280 279 279 278 277 276 275 275 276 276 276 276 275 275 275 275 275 275 275 275 274 274 273 272 272 271 271 271 270 270 270 270 269 269 269 268 268 268 268 267 267 267 267 267 267
283 282 280 279 279 279 279 282 281 280 280 280 279 279 279 279 278 275 275 276 276 276 276 275 274 275 274 273 273 272 272 272 272 271 271 271 271 270 270 270 270 269 269 269 269 268 268 268 267 267 267 267 266 266
282 281 280 280 279 281 280 283 282 282 282 281 280 280 279 280 278 274 275 275 276 275 275 275 275 274 273 273 272 272 272 272 271 271 271 271 271 270 270 270 270 269 269 269 268 268 268 268 267 267 267 267 267 267

GFSWCAN_850_thetae_075.txt.gz
Theta_e
291 290 292 293 293 294 294 295 295 296 296 296 296 296 297 296 296 295 293 294 295 296 297 297 297 298 299 300 303 303 304 305 303 301 302 304 305 308 310 310 310 309 311 310 310 311 312 316 315 318 316 313 311 310
291 292 292 293 294 295 295 296 296 297 297 296 297 296 297 297 297 296 294 293 295 297 296 297 297 297 298 299 300 300 302 302 304 304 304 305 308 308 310 312 311 311 310 311 310 310 314 314 314 311 310 309 308 307
292 293 293 293 295 296 297 298 298 298 298 298 297 297 296 298 298 296 295 295 294 295 296 296 296 296 296 297 299 301 302 302 303 305 306 306 308 309 309 310 312 312 310 312 312 313 312 310 309 308 308 307 306 305
292 292 293 295 296 298 298 298 298 299 299 298 298 297 297 298 298 297 297 295 296 295 295 295 296 297 297 298 298 300 302 302 302 304 303 305 307 308 309 310 309 307 311 312 307 304 306 305 306 305 305 305 303 302
293 294 296 297 298 298 298 299 299 299 299 299 299 298 298 298 298 298 297 297 296 296 298 298 297 298 298 299 301 300 302 303 304 303 305 306 307 308 307 309 305 304 303 308 308 304 303 302 302 302 301 301 300 299
295 296 297 298 298 299 298 299 298 298 299 300 299 299 298 298 298 298 296 297 295 296 296 297 297 298 301 302 302 301 303 304 303 304 305 306 307 306 308 307 300 299 299 300 303 302 301 299 299 299 299 297 296 295
296 297 298 298 298 298 299 299 299 299 298 299 299 299 299 298 298 298 297 297 297 296 297 298 300 302 301 302 302 302 302 303 302 303 304 305 307 306 305 303 297 296 297 298 300 301 298 297 295 296 297 295 294 291
298 298 298 298 298 299 299 299 300 299 298 299 299 300 299 298 298 298 299 298 297 297 297 299 300 302 303 303 303 303 304 303 303 304 305 306 307 301 297 295 294 294 295 295 296 297 297 295 294 294 294 292 291 289
298 298 298 298 299 300 300 299 299 299 299 300 299 299 298 297 297 299 299 298 297 298 298 299 301 303 303 304 302 303 303 302 303 303 304 306 299 295 295 293 291 291 292 292 294 293 293 293 291 290 290 289 287 286
298 299 299 299 300 300 300 300 299 299 300 299 299 298 297 298 298 298 298 298 298 299 300 301 302 301 303 303 303 303 302 303 305 303 304 298 295 292 291 289 289 289 289 289 290 289 290 290 287 286 286 285 285 284
298 299 300 299 300 299 300 299 299 300 300 298 298 298 299 298 298 299 297 299 298 300 300 302 301 302 303 303 303 304 303 302 304 305 305 301 295 291 288 287 287 287 286 286 286 286 286 286 285 284 282 281 281 281
299 299 299 300 299 299 299 299 299 298 298 299 299 299 299 299 299 300 300 300 300 299 302 301 302 303 302 303 302 303 304 303 306 303 305 296 291 288 287 285 285 284 284 283 283 283 283 283 283 282 280 279 279 280
299 299 299 299 299 299 300 299 298 298 298 299 299 299 299 298 299 298 300 297 301 301 302 303 302 303 303 302 303 302 303 303 301 301 293 290 288 287 286 284 283 282 282 281 281 280 281 280 280 280 280 279 279 279
299 298 299 299 299 299 299 299 299 299 299 297 297 290 297 298 296 296 297 298 297 300 302 302 302 302 302 300 301 302 299 300 301 296 291 287 285 284 284 283 282 281 280 280 280 280 280 280 280 280 280 280 280 279
298 298 298 298 298 298 299 298 299 299 294 294 295 294 292 293 294 294 295 296 296 299 301 301 300 300 299 299 299 298 300 301 294 288 285 286 285 284 282 282 281 281 280 279 279 280 280 280 280 279 279 279 280 279
298 297 297 297 298 298 299 299 297 294 291 290 291 294 294 294 293 294 295 295 296 299 301 301 300 299 298 299 297 293 298 291 286 283 284 284 283 283 282 282 281 280 280 279 279 279 279 280 280 279 279 279 279 278
298 293 292 293 294 295 296 298 293 290 291 291 290 290 293 292 292 292 293 294 296 299 301 298 297 298 296 293 291 289 287 286 286 285 284 283 282 282 281 281 281 281 280 280 279 280 280 279 279 278 278 277 277 276
297 295 297 297 295 296 294 292 290 290 290 290 289 289 289 290 291 291 292 293 296 297 296 294 295 289 288 291 287 286 285 285 284 283 283 282 282 282 282 281 281 281 280 280 280 280 280 280 279 279 278 278 277 276
295 298 299 298 293 292 292 291 290 290 290 289 289 289 289 289 289 290 291 292 292 293 292 291 289 287 287 287 286 285 284 284 283 283 283 282 282 282 281 281 281 281 281 281 280 279 280 279 279 278 278 278 277 276
295 294 295 297 293 292 292 292 291 291 291 289 289 289 289 289 289 288 288 289 289 287 287 287 286 287 287 286 286 285 284 283 282 281 281 281 281 281 281 280 280 280 279 279 279 279 278 277 277 276 276 277 276 275
293 294 294 293 293 293 292 291 291 290 290 290 290 290 288 288 287 287 286 286 285 286 286 285 285 285 285 285 285 285 284 283 283 282 282 281 281 280 280 280 280 280 280 279 278 277 277 276 275 275 274 274 273 273
294 294 294 293 292 292 291 291 291 290 291 291 291 291 290 289 287 285 285 285 285 284 284 284 283 283 283 284 284 284 284 284 283 282 281 280 280 280 280 279 279 278 278 277 277 276 276 275 274 273 273 272 272 272
295 296 295 293 292 291 291 292 293 292 290 290 291 290 289 288 287 286 284 283 283 283 283 283 282 282 282 282 282 282 282 282 281 281 280 280 279 278 278 277 277 277 276 275 275 274 274 273 272 272 272 272 272 272
293 292 293 293 292 292 292 292 292 292 292 291 289 289 289 288 287 286 284 283 282 281 281 281 281 281 281 281 280 280 280 280 279 279 279 278 278 277 276 275 275 274 275 274 273 273 272 272 271 272 271 271 271 271
292 288 292 288 292 289 288 289 291 291 288 288 288 287 286 289 287 284 282 283 282 282 282 282 282 282 281 280 279 280 280 280 279 278 278 277 277 276 276 275 275 275 274 273 273 272 272 272 271 271 271 270 270 270
285 286 288 290 291 290 290 288 288 288 287 286 286 289 289 287 284 284 284 284 283 282 283 283 282 281 281 280 279 279 279 278 278 278 276 276 276 277 276 275 275 274 274 273 272 272 272 271 270 270 270 269 269 269
285 285 287 288 290 292 289 291 291 288 286 285 285 285 282 280 280 284 284 283 282 282 283 283 283 282 281 280 279 279 277 278 278 277 274 274 274 273 274 274 274 273 273 271 271 271 270 270 270 270 269 269 269 269
284 285 282 285 283 284 284 283 284 284 282 286 285 279 280 278 281 282 282 282 282 282 282 282 281 281 280 279 277 275 274 274 274 274 275 275 275 274 273 272 272 271 270 270 270 270 269 269 269 269 269 268 268 268
283 282 281 277 281 280 280 280 280 280 280 283 278 276 279 280 280 280 280 281 281 281 281 280 279 278 278 277 276 276 275 275 274 274 274 274 273 273 272 271 271 271 270 269 269 269 269 269 269 268 268 268 268 268
283 282 280 279 275 277 280 280 279 278 279 279 278 278 278 278 278 279 279 279 278 278 278 278 277 277 276 276 275 274 274 273 273 274 274 274 273 272 271 271 270 270 270 270 269 269 269 269 268 268 267 267 267 267
283 282 281 279 278 280 279 279 278 278 277 277 277 276 276 276 277 278 278 278 277 276 276 276 276 276 275 275 275 275 274 273 272 272 272 272 271 271 271 271 270 270 270 270 269 269 269 269 268 268 267 267 267 267
283 281 279 276 279 280 280 280 279 278 278 277 276 277 277 278 276 276 276 276 276 276 275 275 276 276 275 274 274 273 273 272 272 272 271 271 271 271 271 271 270 270 270 269 269 269 268 268 268 268 267 267 267 267
280 279 279 279 279 280 282 282 281 281 281 280 279 280 279 278 275 275 275 276 276 276 276 276 276 274 273 273 273 273 273 272 272 272 271 271 271 271 270 270 270 269 269 269 269 269 268 268 268 267 267 267 267 267

GFSWCAN_850_thetae_078.txt.gz
Theta_e
291 291 291 290 291 292 292 293 294 294 295 295 295 296 296 296 296 295 294 293 294 295 295 295 296 297 297 298 299 299 300 304 302 300 301 302 301 304 306 309 310 308 308 308 308 311 311 314 314 316 313 311 310 310
291 289 290 291 292 293 293 294 295 296 296 296 296 296 296 296 296 296 295 293 293 294 295 296 296 296 296 296 298 299 300 300 300 302 301 303 304 305 309 311 309 311 308 307 308 309 312 311 312 310 309 307 306 307
289 289 291 292 293 293 293 295 296 298 297 297 297 297 296 296 297 297 295 294 294 294 294 294 295 295 296 297 298 299 300 300 301 302 304 306 307 307 308 310 311 307 309 310 310 308 308 306 307 306 307 303 302 302
289 291 292 293 293 293 296 297 297 298 298 298 298 298 297 297 297 297 296 295 294 295 292 294 295 296 296 297 297 296 297 300 300 301 303 304 305 305 307 305 303 303 304 309 306 303 303 301 301 302 301 301 301 300
291 292 292 293 295 296 297 298 298 298 298 298 299 298 298 297 297 297 298 296 295 294 294 296 297 298 296 298 298 298 298 299 301 302 302 306 306 307 304 303 300 299 300 307 306 300 301 299 299 299 299 295 296 296
291 292 294 295 295 297 298 298 298 298 298 298 299 299 298 298 298 298 298 297 297 295 296 294 296 297 297 297 299 299 300 299 303 302 304 304 306 304 306 302 297 296 298 300 298 298 297 297 297 298 297 294 293 293
292 294 295 296 297 297 297 298 298 298 298 298 298 299 299 299 298 298 297 297 297 296 297 295 296 300 302 300 301 301 302 303 302 302 303 304 306 304 300 298 294 294 295 296 297 299 295 295 294 294 293 292 292 290
295 297 297 297 297 297 297 298 298 298 299 298 298 299 299 298 298 298 298 298 297 296 296 296 296 299 302 302 302 302 303 303 303 303 304 304 300 297 296 293 291 292 293 293 294 294 293 293 294 292 291 291 290 287
297 297 298 297 297 298 298 298 299 299 299 298 298 299 298 298 297 298 299 297 297 297 296 297 300 299 302 303 303 301 302 302 302 303 303 301 296 293 292 290 289 289 290 291 291 292 291 290 290 289 289 287 286 284
298 297 298 299 299 299 299 299 300 298 298 299 300 299 297 297 298 297 297 297 297 297 299 299 299 301 302 301 301 300 302 303 303 302 300 295 292 289 288 288 287 287 287 288 289 288 289 287 287 286 285 285 284 283
298 298 299 299 300 299 300 300 299 299 299 300 298 298 298 298 298 299 296 298 297 298 297 299 300 302 302 302 301 302 301 302 305 303 302 297 293 288 286 286 286 285 285 285 285 285 286 285 283 282 281 281 281 281
298 298 299 299 299 299 299 299 299 300 299 299 299 298 298 298 298 299 299 298 297 298 299 301 300 301 301 303 301 302 302 302 305 302 297 290 289 286 285 284 284 283 283 283 283 282 282 282 281 280 279 280 281 280
298 299 299 299 299 299 299 299 299 299 298 298 299 299 298 298 299 296 299 298 300 301 302 302 301 301 300 301 301 301 300 303 299 292 290 288 287 285 284 283 282 282 281 281 281 281 281 281 280 280 280 280 280 280
298 299 299 298 298 298 298 298 298 298 299 297 295 291 291 297 295 291 294 297 297 300 302 301 301 300 301 299 300 300 297 298 297 291 289 285 284 284 283 282 281 280 280 280 280 280 280 280 280 280 280 279 280 280
298 298 298 298 298 298 298 298 298 298 295 293 293 291 287 292 294 295 296 296 297 300 301 300 298 300 297 298 298 298 298 296 292 290 284 284 283 283 282 281 281 280 280 280 280 280 280 280 280 279 279 279 279 279
297 298 297 297 298 299 298 297 298 296 291 291 291 292 293 291 291 294 295 295 297 300 300 300 298 298 298 298 293 291 295 291 283 279 284 284 283 282 281 281 280 280 280 280 280 280 280 280 280 280 279 278 278 277
298 297 297 298 298 298 298 298 295 291 290 290 288 290 291 291 290 292 293 294 296 299 299 297 297 297 295 288 286 286 282 280 283 283 284 283 282 282 281 281 280 280 280 280 280 279 279 279 278 278 278 277 277 276
295 293 293 296 298 299 299 293 290 289 289 289 287 289 289 290 290 291 291 293 296 296 294 292 291 285 282 285 283 281 283 284 284 283 282 282 281 281 281 281 280 280 280 280 280 279 279 278 278 278 277 277 276 276
298 297 297 296 296 293 292 291 290 289 289 289 289 289 289 289 289 289 290 291 293 292 290 289 283 282 282 284 283 283 283 282 282 282 282 282 282 281 281 281 280 280 280 280 279 279 279 278 278 277 277 277 276 275
296 295 296 294 292 292 292 291 290 290 290 289 289 289 289 288 288 288 288 289 289 286 285 283 283 285 285 285 285 284 283 283 282 282 281 281 281 281 280 280 280 280 280 279 279 278 278 277 277 276 276 276 276 275
294 295 294 293 292 292 291 290 290 290 290 289 289 288 287 287 286 285 285 285 285 285 284 284 284 285 285 285 284 284 283 283 283 283 281 281 281 281 280 280 280 280 279 279 278 277 277 276 276 275 274 274 273 273
294 293 293 292 292 291 291 291 290 290 290 290 290 290 288 287 286 284 284 284 284 284 284 283 284 284 284 284 284 283 283 283 282 282 281 280 280 279 279 279 279 279 278 278 277 276 275 275 274 273 273 272 272 272
295 295 293 292 291 291 291 291 292 291 288 290 291 289 286 287 286 284 283 283 282 283 284 283 283 283 283 283 283 284 284 283 282 281 280 280 280 279 279 278 278 277 276 276 275 274 273 273 272 272 271 271 271 271
294 293 293 292 291 290 292 292 291 291 291 289 288 287 285 287 286 284 281 282 281 282 282 282 282 282 282 282 281 281 281 281 280 279 279 279 278 277 276 276 275 275 275 274 273 273 272 272 271 271 271 271 271 271
292 288 291 285 292 286 284 285 287 287 284 284 283 283 284 289 280 279 278 281 281 281 281 281 281 281 281 280 280 279 279 279 279 279 278 277 277 277 276 276 275 275 274 273 273 273 272 272 271 271 270 270 270 270
282 286 287 285 288 286 286 284 282 283 282 282 282 288 289 280 278 280 281 282 281 281 281 281 281 280 280 280 280 280 279 279 279 278 277 277 277 277 276 276 275 275 274 273 272 271 271 271 271 270 270 270 269 269
280 279 287 286 288 290 288 289 288 284 281 282 280 279 276 274 275 281 283 282 282 282 283 283 282 282 280 279 279 279 279 278 278 277 275 274 274 274 275 275 275 274 273 272 271 271 270 270 270 270 269 269 269 268
283 283 280 282 282 282 278 277 276 278 277 282 282 275 274 275 278 282 282 282 282 283 282 282 282 281 280 279 279 278 277 277 277 274 275 275 275 274 273 272 272 272 271 271 270 270 270 270 269 269 268 268 268 268
281 281 281 274 278 279 280 276 277 279 279 281 272 272 278 279 279 280 281 282 282 282 282 282 280 280 279 278 276 275 275 275 275 275 274 274 274 274 273 272 271 271 271 270 270 270 270 269 269 268 268 268 268 268
282 280 278 277 272 275 278 279 278 278 279 279 278 278 278 278 279 280 281 281 281 281 281 280 280 279 278 277 276 275 275 275 274 274 274 274 274 272 271 271 271 270 270 270 270 269 269 268 268 268 268 268 268 267
282 280 279 279 277 277 277 277 277 277 278 277 277 276 276 277 278 278 278 278 279 279 279 278 277 276 276 275 274 274 274 274 273 273 272 272 271 271 271 271 270 270 270 270 270 269 269 269 268 268 268 268 267 267
280 279 277 275 279 278 279 277 276 276 276 276 276 277 277 276 274 275 276 276 276 277 277 277 277 277 276 275 274 273 273 273 273 272 272 271 271 271 271 270 270 270 270 269 269 269 269 269 268 268 268 267 267 267
279 279 279 279 279 279 280 281 279 278 277 277 278 279 278 276 274 275 275 276 276 276 276 276 276 275 273 273 273 273 273 272 272 272 272 271 271 271 270 270 270 270 269 269 269 269 269 268 268 268 268 268 267 267

GFSWCAN_850_thetae_081.txt.gz
Theta_e
292 292 290 291 292 291 291 291 292 293 294 294 295 295 295 296 296 297 295 295 293 293 294 295 296 295 296 297 293 297 297 299 301 302 302 302 301 303 304 304 307 306 306 306 305 307 307 311 313 311 311 309 308 308
293 291 290 291 290 290 291 292 293 294 294 295 295 295 295 296 296 296 295 295 293 293 294 295 295 296 296 296 296 297 297 298 299 301 300 302 303 301 305 305 308 309 307 307 307 307 309 308 311 308 306 305 305 305
292 291 290 289 290 291 292 293 293 294 296 296 296 296 296 296 296 296 295 294 294 294 294 294 294 294 295 295 296 298 299 299 299 299 302 304 304 306 305 307 304 302 301 309 309 304 303 303 301 300 301 298 299 300
291 289 289 289 291 292 292 293 294 296 297 297 297 296 297 297 296 297 296 295 294 293 291 293 294 294 294 296 295 295 297 298 298 300 301 302 305 305 306 302 300 299 300 306 306 303 301 298 297 297 296 295 295 295
289 288 290 291 292 292 293 295 296 296 297 298 298 298 298 297 297 297 297 296 295 294 292 295 295 298 297 295 297 298 297 296 299 300 299 303 305 304 301 301 297 296 298 301 304 299 299 296 295 295 295 292 292 292
288 290 291 291 292 293 294 296 297 297 298 298 298 299 299 298 297 297 297 297 297 294 295 292 295 296 296 297 297 298 298 297 299 302 301 303 304 304 304 299 294 294 294 296 297 296 296 294 294 295 294 292 291 290
290 290 291 292 293 294 295 296 297 298 298 298 298 298 299 298 297 298 297 297 297 295 295 294 294 298 300 300 299 299 299 300 302 302 302 303 302 299 298 296 292 292 293 294 295 297 294 294 292 292 293 291 290 289
290 291 293 294 295 296 296 297 297 297 298 298 297 298 299 298 297 298 298 298 296 295 296 295 294 298 301 301 301 302 302 302 302 302 303 303 297 296 294 291 290 290 291 292 292 292 291 291 291 289 289 289 288 285
292 294 295 296 296 296 297 297 297 297 298 299 298 299 298 298 298 298 298 297 296 296 296 296 296 299 300 302 302 301 302 301 301 302 302 298 294 291 291 289 288 288 288 289 290 291 290 289 288 287 287 286 284 282
296 296 297 297 297 298 297 297 297 298 298 299 298 299 297 298 298 298 297 297 296 297 297 296 297 297 299 301 301 300 300 302 304 302 297 294 290 288 287 286 286 286 286 288 289 288 287 286 285 283 282 283 283 283
297 297 297 298 298 299 299 299 298 298 299 299 299 298 297 298 298 297 297 297 296 297 296 297 299 299 301 302 300 301 301 302 304 303 301 294 291 288 286 285 285 285 285 285 285 285 285 284 283 281 280 281 282 282
298 298 298 299 299 299 299 299 298 299 298 298 299 297 297 298 298 297 297 298 296 296 297 298 299 300 300 300 300 301 301 302 304 300 295 287 287 285 284 283 282 282 283 283 283 283 283 283 282 281 281 281 281 281
298 298 298 298 299 300 299 299 299 298 299 298 298 298 298 298 299 296 298 299 298 298 299 301 301 301 300 301 301 301 300 299 298 286 287 285 286 284 283 282 281 281 280 279 280 281 282 281 281 281 281 280 280 280
298 299 299 298 299 299 299 298 299 298 298 298 296 294 295 296 291 290 287 288 297 299 301 300 301 300 300 299 299 294 294 294 289 289 287 283 284 283 282 281 281 281 281 281 280 280 280 280 280 280 280 279 280 280
299 298 298 298 298 298 299 298 298 298 295 293 293 291 285 291 293 295 296 297 297 300 301 300 298 299 295 295 296 297 295 290 289 287 279 283 283 282 281 281 281 281 281 281 280 281 281 280 280 280 279 279 279 279
298 298 297 297 297 298 298 299 298 294 292 291 290 292 291 291 291 294 295 295 297 300 300 299 295 295 295 293 294 291 295 292 283 276 282 283 282 281 281 281 281 281 281 281 281 280 280 279 279 279 278 277 276 276
298 296 296 297 298 297 296 296 293 291 290 290 288 288 290 290 290 291 293 295 298 299 297 292 292 294 292 288 288 285 283 278 281 282 283 283 282 282 281 281 281 281 281 280 280 279 279 278 278 277 277 277 276 276
297 297 297 298 298 298 298 295 290 289 288 289 287 288 287 289 290 290 291 296 296 295 293 290 290 284 283 287 281 279 282 282 284 283 283 282 282 281 281 281 281 280 280 280 279 279 279 278 278 278 278 277 276 276
297 297 298 298 298 298 293 290 290 288 289 289 289 289 288 288 288 288 289 292 292 291 290 287 282 280 278 281 280 282 283 283 282 282 281 281 282 281 281 280 280 280 280 280 279 279 279 278 278 277 277 277 276 275
297 296 296 295 295 292 291 290 290 289 288 289 289 289 287 287 288 288 289 290 290 288 284 281 279 284 284 284 285 284 283 282 282 281 281 281 281 281 280 280 280 280 280 279 279 278 278 277 277 276 276 275 275 274
294 295 294 293 292 291 290 290 290 289 289 288 288 288 287 286 286 286 286 287 285 284 281 283 282 284 285 285 285 284 283 283 283 283 282 281 281 280 280 280 280 279 279 278 278 277 277 276 276 275 274 273 273 272
294 293 292 292 291 291 290 290 290 290 290 289 290 289 287 286 284 284 284 283 282 282 283 284 284 285 284 284 284 284 283 283 282 282 281 281 281 280 280 279 279 279 278 278 277 276 275 274 274 273 272 272 272 271
294 294 292 291 291 290 290 291 291 290 286 289 290 287 284 286 284 284 282 282 282 283 284 284 284 284 284 283 283 282 282 283 282 281 281 280 280 279 279 278 278 277 277 276 275 275 273 273 272 272 271 271 271 271
294 293 292 291 292 289 292 291 291 290 290 287 286 284 283 285 284 282 279 281 282 283 284 283 283 283 283 283 284 283 283 282 281 280 280 280 279 278 277 276 275 275 274 274 273 273 273 273 272 271 271 271 270 270
292 288 290 286 290 286 284 283 284 284 282 282 281 281 283 287 279 278 279 280 281 282 283 283 283 283 282 282 281 281 281 281 281 280 278 278 278 277 276 276 276 275 275 274 274 273 272 272 271 271 271 270 270 269
282 286 286 284 286 285 284 283 281 281 280 280 281 287 287 277 277 277 280 281 281 282 282 282 282 282 281 281 280 279 279 279 279 278 278 278 277 277 276 276 275 275 274 274 273 272 271 271 271 270 270 270 269 269
279 278 285 285 287 288 285 287 286 282 279 280 279 278 276 275 275 279 281 281 281 281 281 281 282 282 281 280 280 279 279 279 278 277 277 276 275 275 275 275 274 274 273 272 271 271 270 270 270 269 269 269 269 268
282 282 281 280 281 281 275 273 273 276 277 281 281 273 274 275 276 281 282 281 281 281 281 281 282 281 280 279 279 279 279 278 278 277 275 275 275 274 273 273 272 272 272 271 271 270 270 270 269 269 269 269 268 268
281 280 280 273 277 278 278 274 275 278 278 280 271 271 277 278 278 281 281 282 282 283 282 282 281 280 280 280 279 278 277 277 275 275 275 274 274 274 273 272 272 271 271 270 270 270 270 269 269 269 268 268 268 267
280 279 277 276 271 274 276 277 277 278 278 278 277 277 276 276 278 281 282 282 282 282 282 282 281 280 280 279 277 276 275 275 275 275 274 274 274 273 272 272 271 271 271 270 270 270 269 269 269 269 268 268 268 267
280 279 278 278 275 276 276 276 277 277 277 277 277 276 276 276 277 278 280 280 281 281 281 280 279 278 277 277 276 275 274 274 274 273 273 272 272 272 272 271 271 271 270 270 270 269 269 269 269 268 268 268 268 267
279 278 277 273 277 277 277 277 276 276 277 277 277 277 277 276 275 275 276 277 278 279 279 278 278 277 276 275 275 275 274 273 273 273 272 272 272 271 271 271 270 270 270 270 270 269 269 269 269 269 268 268 268 268
279 279 279 279 278 277 278 278 277 277 276 277 278 278 277 275 275 275 276 276 276 277 277 276 276 276 275 274 273 273 273 273 273 272 272 271 271 271 270 270 270 270 270 269 269 269 269 269 269 268 268 268 268 268

GFSWCAN_850_thetae_084.txt.gz
Theta_e
290 291 291 294 294 291 291 291 292 291 291 292 293 294 294 294 295 297 297 295 295 292 293 293 295 295 294 294 294 295 296 297 300 302 303 302 302 303 304 304 305 305 306 306 307 307 306 307 311 312 309 301 300 299
290 291 292 293 291 291 291 289 290 291 292 293 294 295 295 295 296 296 296 295 295 293 293 293 294 294 294 295 296 296 297 298 298 302 301 302 302 301 302 304 303 307 306 307 306 306 304 300 302 300 301 299 300 299
291 291 293 292 291 291 289 290 291 292 293 293 294 295 295 295 296 296 295 295 294 294 294 293 293 293 293 293 294 297 298 297 298 298 300 302 304 305 306 302 301 298 299 303 307 302 299 297 296 295 295 294 295 295
290 291 292 291 290 288 289 291 292 293 293 294 296 297 296 296 296 296 296 296 294 293 292 293 294 294 294 294 294 294 295 298 298 298 300 301 301 303 305 300 296 296 297 298 304 302 299 295 294 293 293 293 293 293
290 291 291 290 288 289 290 292 292 293 295 295 297 298 297 296 296 296 295 296 295 294 292 294 294 296 297 295 295 296 295 295 297 298 301 299 302 304 301 299 294 294 295 297 300 297 296 293 291 291 291 290 290 291
291 291 290 288 289 291 292 292 293 295 296 296 298 298 298 298 297 297 297 296 297 295 294 291 295 295 296 297 296 296 297 296 297 300 302 301 303 302 302 298 292 292 293 295 295 294 293 291 289 289 289 288 288 288
290 289 288 289 291 291 291 292 294 295 297 298 298 298 298 298 297 296 297 297 297 295 294 294 293 297 299 300 298 298 298 298 299 301 300 302 298 298 296 295 291 291 292 293 293 295 292 291 288 288 289 288 287 286
289 289 289 290 291 291 292 293 295 296 296 298 298 298 298 298 297 296 297 297 296 295 295 295 293 296 300 300 300 300 300 300 301 301 302 302 296 295 293 291 289 289 291 291 291 291 289 288 288 287 286 285 284 283
288 287 288 291 292 293 294 295 296 297 297 298 298 298 298 297 297 297 297 297 296 295 295 295 295 294 300 301 300 301 301 296 300 300 301 298 293 290 290 289 288 286 286 288 289 288 288 287 285 285 284 283 282 281
287 288 291 293 294 295 296 296 297 297 297 298 298 299 297 298 298 297 296 295 296 296 297 293 296 295 298 299 298 299 300 300 303 302 296 293 288 288 286 285 284 285 285 287 288 286 286 284 283 282 281 281 282 281
290 293 294 295 296 296 296 296 297 297 298 298 298 297 297 297 298 297 296 297 296 297 295 296 297 295 299 300 299 299 300 301 303 303 301 294 289 288 285 284 284 284 284 284 284 284 283 283 281 280 280 281 281 281
294 296 296 296 296 297 298 297 297 297 298 298 298 297 297 298 297 297 296 297 296 295 296 296 297 299 299 299 299 300 301 301 303 298 296 289 287 286 284 283 282 282 282 282 282 282 282 282 282 282 282 281 281 281
297 297 298 297 297 298 298 298 299 297 298 298 298 297 297 297 298 293 297 298 296 295 297 299 299 299 299 300 300 301 302 301 296 290 289 284 286 284 283 282 281 281 281 282 282 282 282 282 281 282 282 281 281 281
298 298 298 298 298 298 299 298 299 298 298 298 297 295 296 295 291 292 294 290 296 299 299 300 300 300 299 299 299 294 294 298 295 291 289 284 284 283 283 283 282 282 282 282 282 282 282 282 282 281 281 280 280 280
298 298 299 299 299 299 299 298 298 298 298 294 294 294 287 292 293 295 295 297 297 300 300 300 298 299 294 294 293 295 297 296 290 289 278 283 284 284 283 282 282 282 282 282 282 282 281 281 281 281 280 279 278 277
298 297 296 297 297 297 297 298 298 297 292 292 291 289 291 291 292 295 296 296 298 300 300 298 294 292 293 294 295 294 293 291 283 275 282 284 284 283 282 281 280 281 280 280 280 280 280 279 279 278 278 277 277 277
297 295 296 297 297 297 297 297 295 291 290 289 287 288 290 290 290 292 294 295 297 299 294 292 291 293 292 289 289 286 285 279 280 282 283 283 282 281 281 281 281 280 280 280 279 279 278 278 278 277 277 277 276 276
296 296 296 297 298 298 298 294 291 290 288 288 287 287 287 288 290 292 293 295 296 294 293 290 291 286 285 290 283 278 281 281 283 283 282 282 281 281 281 281 280 280 280 280 279 279 278 278 278 277 277 277 276 276
296 296 296 297 297 296 292 289 289 288 288 289 288 288 288 287 288 290 292 293 292 292 292 288 282 281 279 279 279 282 282 283 282 282 281 281 281 281 281 281 280 280 280 279 279 279 278 278 277 277 276 276 275 275
296 295 296 297 297 293 290 290 289 289 288 289 289 288 287 287 287 287 289 290 290 289 285 281 277 283 284 284 284 284 284 283 282 281 281 281 281 281 280 280 280 280 279 279 279 278 277 277 277 276 275 275 274 273
296 296 296 296 293 290 290 290 289 289 289 288 287 287 287 287 287 288 287 287 287 283 281 282 282 284 285 285 285 284 283 283 283 283 282 281 280 280 280 280 280 279 279 278 278 277 277 276 275 275 274 273 272 272
294 295 293 293 291 290 290 290 289 289 289 289 289 288 286 285 284 284 284 284 282 282 283 282 284 284 285 284 284 284 283 283 283 282 282 281 281 280 280 279 279 279 278 278 277 276 275 274 273 273 272 272 271 271
293 293 291 291 291 290 290 290 290 290 285 288 288 285 283 284 284 284 282 282 282 283 284 284 284 284 284 283 283 283 282 282 282 281 281 280 280 279 279 279 278 278 277 276 276 275 274 273 273 272 272 271 271 271
293 292 291 291 291 288 291 290 290 290 290 287 285 283 281 284 283 281 278 280 281 283 284 284 284 283 283 283 283 282 282 282 281 281 280 280 280 279 278 277 276 275 275 274 274 273 273 273 272 272 271 271 271 270
292 288 289 287 289 288 286 284 282 283 282 280 281 280 281 285 276 275 278 280 281 283 283 284 284 284 284 283 283 282 282 282 282 281 279 278 278 277 276 276 276 275 275 275 274 273 272 271 271 271 271 271 270 270
284 284 285 284 285 285 284 283 279 279 278 278 278 284 285 275 277 277 279 281 281 282 283 283 283 283 283 283 282 281 280 279 279 279 279 278 277 277 276 276 276 275 275 274 274 272 271 271 271 270 270 270 269 269
279 279 284 284 285 287 282 285 285 279 277 279 277 276 274 277 276 277 280 281 282 283 283 283 283 283 282 281 280 280 279 279 278 278 277 276 276 275 275 275 275 274 273 272 272 271 271 271 270 270 270 269 269 269
281 281 281 279 280 280 272 271 271 274 275 280 280 273 275 275 276 279 280 281 282 282 282 281 281 281 281 280 280 280 279 279 278 278 276 275 275 275 274 274 273 273 272 272 271 271 271 270 270 269 269 269 269 268
280 279 280 272 277 277 275 272 274 277 278 279 271 271 276 276 277 279 281 281 281 281 281 281 280 280 280 279 279 279 278 278 277 276 275 275 274 274 274 273 272 272 272 271 271 271 270 270 270 269 269 269 268 268
279 279 277 275 269 272 275 275 276 277 278 277 277 276 276 275 277 280 281 281 281 281 282 282 281 280 280 280 279 278 277 276 275 275 275 274 274 273 272 272 272 272 271 271 270 270 270 270 269 269 269 269 268 268
279 279 277 276 273 275 276 276 277 277 277 277 277 276 275 276 276 278 281 282 282 282 281 281 280 279 279 278 277 276 275 275 274 274 273 273 273 272 272 272 272 271 271 270 270 270 270 269 269 269 269 269 268 268
278 277 276 270 276 276 277 276 276 276 277 277 277 277 277 277 276 277 278 279 280 281 280 280 279 278 277 277 275 275 275 274 274 273 273 273 272 272 272 271 271 271 270 270 270 270 270 269 269 269 269 269 268 268
278 278 277 277 276 276 277 277 276 276 276 277 277 277 276 276 275 276 277 277 277 278 278 277 276 276 275 275 274 274 274 273 273 273 272 272 271 271 271 271 270 270 270 270 270 269 269 269 269 268 268 268 268 267

GFSWCAN_850_thetae_087.txt.gz
Theta_e
291 291 291 291 291 292 293 292 291 291 291 291 291 292 293 294 295 295 297 295 295 293 294 294 293 294 294 294 295 295 297 298 300 302 303 303 303 304 305 305 305 306 306 306 305 307 306 301 307 309 306 299 298 296
291 291 290 291 292 293 292 292 292 291 291 291 292 293 294 294 294 295 296 295 296 294 294 294 294 294 293 293 294 295 297 298 298 299 301 303 302 303 303 305 303 307 304 303 308 307 300 297 297 295 296 296 296 295
290 290 291 291 293 292 291 291 290 289 291 292 293 294 295 295 295 295 297 296 294 293 294 293 294 293 293 293 293 294 297 298 298 298 299 302 303 304 306 301 300 296 296 301 301 299 296 295 294 293 293 292 292 292
289 289 291 291 293 292 291 290 290 291 292 293 293 294 295 295 295 295 296 295 295 293 292 293 293 294 294 294 294 294 293 296 297 297 298 302 300 302 302 298 297 295 296 297 301 299 296 292 291 291 290 290 290 289
288 290 291 292 292 291 290 288 290 292 293 293 294 295 297 297 296 296 296 296 295 294 293 294 295 295 295 297 295 295 294 294 296 296 299 301 301 303 300 296 294 293 294 297 297 295 293 290 289 289 288 287 287 287
289 290 290 292 291 290 288 289 291 292 293 294 295 296 298 298 296 297 296 295 295 295 295 293 294 295 296 296 296 295 296 295 296 298 300 301 301 301 301 297 292 291 292 293 295 292 290 289 288 287 286 286 285 286
289 289 290 291 290 288 289 291 292 292 294 295 296 298 298 298 297 297 296 297 296 295 294 294 294 296 298 298 296 296 296 297 297 299 300 301 298 297 297 296 290 290 291 291 292 292 289 289 286 285 285 284 285 284
291 291 291 289 289 289 291 291 291 292 294 296 297 298 299 298 297 296 297 297 295 295 294 295 295 295 299 299 298 298 298 298 300 299 300 301 296 295 294 290 288 288 290 289 289 289 287 286 285 284 284 283 284 283
291 291 290 289 289 289 291 291 292 294 295 297 298 298 299 297 297 297 297 296 296 295 295 295 295 296 299 299 300 299 299 299 299 301 301 299 294 292 291 289 287 286 286 287 287 286 285 284 283 283 283 282 281 280
290 289 288 288 288 290 292 293 294 295 296 297 298 297 297 297 297 297 296 295 295 296 296 295 295 296 298 299 298 298 299 300 300 301 296 294 289 287 286 285 284 284 285 288 288 286 285 283 282 281 280 280 281 281
289 288 287 287 289 292 293 294 295 296 297 298 298 297 297 297 297 297 295 296 296 296 295 296 295 296 298 300 300 297 301 301 303 302 302 296 291 288 285 283 283 283 283 283 283 283 283 282 281 280 279 281 281 281
287 287 287 289 292 293 294 296 296 297 297 298 298 297 297 298 297 297 296 296 296 297 295 295 295 297 299 299 299 299 302 301 303 298 299 296 289 286 284 282 282 282 282 282 282 282 282 282 282 282 281 281 280 280
288 291 292 293 294 295 295 296 297 297 297 298 297 297 296 297 298 296 294 297 296 295 295 296 298 299 299 298 299 302 302 303 297 297 298 289 286 284 283 282 280 281 282 282 282 282 282 281 281 281 280 280 280 280
292 294 296 296 296 296 296 296 297 297 298 298 297 296 296 296 295 292 294 295 296 297 297 298 298 299 298 299 300 300 298 298 299 298 297 287 284 283 282 282 282 281 281 281 281 281 281 281 280 280 280 279 279 278
295 296 298 298 298 296 296 297 298 297 298 296 296 294 290 292 293 294 295 295 297 297 299 299 298 298 297 297 296 296 299 299 298 297 286 283 284 283 282 282 282 281 281 281 281 281 281 280 280 280 279 278 277 277
297 297 298 298 298 298 298 298 297 297 293 292 291 288 289 292 293 295 295 296 298 299 300 299 297 298 297 295 297 299 298 296 292 282 282 283 283 282 282 281 281 281 281 281 281 281 281 280 279 279 278 278 277 277
297 293 295 298 298 299 299 297 297 293 291 289 286 288 290 291 292 293 295 296 298 299 298 294 294 297 293 292 293 289 292 286 281 282 283 284 283 282 282 283 283 282 282 282 281 280 280 280 279 279 278 277 277 276
295 294 294 295 297 296 296 295 292 290 287 288 286 287 288 289 291 293 294 295 297 296 294 294 292 293 293 294 291 283 281 281 283 283 282 282 282 283 283 283 282 282 281 281 280 280 279 278 278 277 277 276 276 275
296 296 297 298 298 297 294 290 290 287 288 288 287 288 288 288 289 290 292 294 294 293 294 289 288 290 288 282 281 281 282 283 282 282 282 282 282 282 282 281 281 280 280 279 279 278 278 277 277 276 276 275 275 274
296 297 297 298 296 292 290 289 289 289 288 288 288 288 287 287 288 289 289 289 290 290 287 285 284 283 284 285 284 285 284 283 283 281 281 281 281 281 281 280 280 280 279 279 278 278 277 277 276 276 275 274 274 273
296 294 293 297 292 290 290 289 289 288 288 287 287 287 287 288 288 288 288 290 290 283 282 283 282 284 285 285 285 285 284 283 283 283 281 280 280 280 280 280 280 279 279 278 278 277 277 276 275 274 273 273 272 272
294 295 295 293 291 290 290 289 289 288 288 288 288 287 286 285 285 286 286 286 282 282 283 282 284 284 284 284 284 284 283 283 283 283 282 281 281 280 280 280 279 279 278 278 277 277 276 275 273 273 272 272 272 271
295 296 293 292 291 290 289 290 290 289 286 287 287 285 283 283 283 284 282 282 282 283 283 284 284 284 284 283 283 283 283 283 283 282 282 281 280 279 279 279 278 278 277 277 276 275 274 273 273 272 272 272 271 271
294 292 291 291 290 286 290 290 290 289 288 286 284 283 282 283 283 281 281 280 281 282 283 284 284 283 283 283 283 282 282 282 282 281 281 280 280 279 278 278 276 275 275 275 274 274 273 273 272 272 272 271 271 271
292 287 289 286 289 285 283 284 282 283 282 280 281 280 281 283 280 278 281 280 281 282 283 283 283 284 283 282 282 282 282 282 282 281 280 279 279 278 277 276 276 276 275 275 274 274 273 272 272 271 271 271 271 270
286 284 287 287 286 285 284 282 278 279 279 278 279 282 284 278 278 280 280 281 281 283 283 283 283 283 283 283 283 282 281 281 281 280 279 278 277 277 276 276 276 275 275 274 274 273 272 272 271 271 270 270 270 269
284 283 283 283 284 285 281 282 283 279 277 280 280 280 278 279 279 278 279 281 282 283 284 284 284 284 284 283 282 281 280 279 279 279 278 277 277 276 275 275 275 274 274 273 272 272 272 271 271 271 270 270 270 269
281 281 281 279 279 279 273 271 272 273 276 280 279 275 279 278 278 278 279 281 282 283 283 282 282 282 282 281 280 280 279 279 278 277 277 275 275 275 275 274 274 273 273 272 272 271 271 271 271 270 270 269 269 269
279 279 280 273 275 275 274 271 273 276 277 278 273 273 274 275 276 277 279 281 282 282 282 282 281 281 280 280 279 279 279 278 278 277 275 275 275 274 274 274 273 272 272 272 271 271 271 271 270 270 269 269 269 269
278 278 276 273 269 272 274 275 276 276 277 277 276 276 275 275 276 278 280 281 282 282 281 281 281 280 280 280 279 279 278 277 276 275 275 275 274 274 273 273 272 272 272 271 271 271 270 270 270 270 269 269 269 268
278 278 276 274 273 275 276 276 276 277 277 276 276 276 275 275 276 278 279 280 281 281 281 281 280 279 279 279 278 277 276 275 275 275 274 274 274 273 272 272 272 271 271 271 270 270 270 270 269 269 269 268 268 268
278 276 274 270 275 276 276 276 276 276 277 277 276 276 277 277 276 277 278 280 280 281 281 280 280 279 278 277 276 275 275 275 274 274 274 273 273 272 272 271 271 271 271 270 270 270 270 269 269 269 268 268 268 267
277 277 276 276 275 275 276 277 276 276 277 277 277 277 277 276 276 277 277 279 279 280 279 279 278 277 277 275 274 275 274 274 274 273 273 272 272 272 271 271 271 271 270 270 270 270 269 269 269 268 268 268 268 267

GFSWCAN_850_thetae_090.txt.gz
Theta_e
292 292 292 291 291 291 291 292 293 294 293 292 291 292 292 293 294 295 295 295 295 294 296 295 295 296 295 296 298 297 301 300 302 304 305 304 305 306 306 307 307 308 309 309 307 308 309 299 306 308 301 298 296 295
293 292 291 291 291 292 292 293 292 292 291 291 291 291 292 293 294 295 295 295 295 294 296 295 294 295 295 295 295 297 298 300 300 302 302 304 304 306 306 308 305 308 303 305 304 303 298 296 296 294 295 295 294 293
292 291 291 291 291 292 292 293 292 292 291 291 291 292 293 295 295 295 295 295 295 294 294 296 296 295 293 293 295 296 298 299 300 299 300 302 304 305 308 305 304 300 298 304 304 298 296 295 294 293 291 291 291 290
290 290 291 291 291 293 293 292 291 291 289 291 292 294 294 295 295 295 295 295 295 295 296 297 293 296 295 294 294 294 295 296 296 297 299 303 303 302 304 301 301 297 297 299 300 298 297 292 290 290 289 289 288 287
290 289 289 291 291 292 292 291 290 290 291 292 292 293 293 295 295 295 295 296 295 296 297 297 296 295 296 296 296 294 296 296 297 299 301 303 302 304 300 300 298 295 295 299 300 295 294 291 288 288 287 286 286 286
289 289 289 290 291 292 291 291 288 289 292 293 293 294 295 296 296 296 295 296 296 294 296 298 297 296 297 297 296 296 297 297 298 299 301 302 302 301 304 300 293 293 292 293 295 291 290 288 287 287 286 285 284 283
289 289 289 290 291 292 291 289 288 290 292 293 294 295 296 298 297 296 298 298 296 295 295 296 299 297 298 298 297 297 297 299 299 300 301 302 300 299 300 300 292 291 291 292 292 291 290 288 287 285 284 284 283 283
288 289 290 290 291 291 290 288 291 292 292 294 295 297 298 298 297 296 297 297 295 295 295 296 299 298 299 300 300 299 299 299 300 300 301 302 299 298 296 291 289 290 290 289 289 289 288 287 286 286 285 284 284 283
289 289 289 290 291 290 288 290 291 292 293 295 296 298 299 297 297 297 296 296 295 296 297 296 298 301 298 299 301 300 300 301 301 301 301 300 299 298 293 290 289 288 288 288 288 288 287 287 286 286 285 284 284 282
290 291 291 291 290 289 289 290 291 292 294 296 297 297 297 297 297 297 295 295 296 296 295 297 297 300 300 299 300 300 300 301 300 302 299 301 295 289 288 287 287 286 287 289 289 288 287 286 285 284 283 282 282 280
290 291 291 290 289 288 288 291 293 294 295 296 297 297 296 297 297 297 296 297 296 297 297 297 298 300 299 301 302 299 302 302 302 304 303 302 298 290 287 286 285 285 285 286 286 285 285 284 283 282 280 280 280 280
290 290 290 289 288 287 290 292 294 295 296 297 297 296 296 297 297 299 298 298 298 299 298 297 297 298 299 299 301 299 300 302 305 301 303 303 293 288 286 285 284 284 284 283 283 283 282 282 281 280 279 280 281 281
289 289 288 288 287 287 291 293 294 296 297 297 297 297 297 297 300 299 298 299 300 298 297 297 298 298 298 299 300 302 304 305 300 303 304 297 289 287 285 284 283 282 281 281 280 280 280 281 281 281 281 281 280 279
288 288 287 287 289 292 293 294 295 296 297 297 297 299 298 299 299 300 300 302 299 298 298 297 299 300 300 299 302 303 302 302 302 303 304 293 287 285 284 283 282 280 281 281 282 282 282 282 282 281 281 279 278 278
289 290 290 291 292 293 295 296 296 297 297 297 298 300 298 297 295 295 295 296 296 298 299 299 299 300 300 302 301 300 301 302 302 304 295 289 286 283 281 281 282 282 282 282 281 281 281 281 280 280 278 277 277 277
290 291 293 293 294 295 296 296 296 297 297 294 292 295 292 296 296 295 295 295 296 297 299 301 300 301 302 301 300 301 302 303 301 293 288 285 282 282 283 282 282 281 281 281 281 281 280 278 278 278 277 277 277 276
294 295 296 296 296 296 296 296 296 295 294 291 292 289 293 295 297 295 296 296 297 299 303 301 301 302 297 300 300 298 301 295 288 286 285 284 283 283 282 282 282 281 281 281 280 279 279 279 279 278 277 277 277 276
296 296 297 297 297 296 295 296 293 291 290 290 292 291 289 289 293 293 294 295 297 298 297 299 297 299 301 301 301 293 286 283 285 284 283 282 282 282 282 281 281 281 280 280 280 280 279 279 278 278 277 277 276 276
294 296 297 298 298 296 293 291 290 290 289 288 287 288 288 289 290 291 293 295 296 297 296 293 297 300 299 292 291 287 285 284 283 282 281 282 282 282 281 281 281 280 281 280 280 279 279 279 278 277 276 276 276 276
295 295 295 297 297 295 290 289 289 290 291 289 289 289 289 289 288 289 291 293 291 293 294 295 295 291 290 286 285 285 285 284 282 282 281 280 281 281 281 281 281 281 280 280 280 279 278 277 277 276 275 274 275 274
297 296 295 295 292 290 290 290 289 289 289 289 288 289 288 288 289 290 290 290 290 290 292 287 287 285 286 285 285 285 284 284 284 284 283 281 281 281 281 280 281 280 280 279 279 278 277 277 275 275 274 273 273 272
296 296 296 295 291 290 290 289 290 289 289 290 289 289 290 291 290 289 288 289 289 286 285 286 284 285 285 285 285 284 284 284 283 283 282 282 281 281 281 280 280 279 279 278 278 277 276 275 274 273 273 272 272 272
296 296 294 293 291 290 290 290 290 290 291 289 289 289 289 289 287 286 288 286 284 284 284 284 284 284 285 285 284 284 283 283 282 282 282 282 281 280 280 279 279 278 278 277 277 276 275 274 273 273 272 272 272 271
296 293 291 291 290 290 290 291 290 290 290 290 290 289 288 288 285 287 291 287 283 281 282 282 283 282 282 283 283 283 283 282 282 281 281 281 280 280 279 279 278 277 277 276 275 275 274 274 273 272 272 272 271 271
292 289 290 290 289 290 290 291 290 290 290 289 289 288 288 285 289 289 290 285 282 283 282 282 283 284 284 283 281 282 282 282 282 282 281 280 280 279 278 277 276 276 276 275 275 274 274 273 272 272 271 271 271 270
289 285 289 290 290 291 291 290 290 289 289 288 289 287 286 289 288 292 287 284 283 282 282 282 283 283 282 282 282 282 282 282 282 281 280 280 278 277 277 276 276 276 275 275 274 273 273 272 271 271 271 271 270 270
288 287 284 283 285 287 288 286 286 289 289 289 288 287 288 291 292 285 280 280 281 281 282 282 283 283 283 282 282 282 282 281 281 280 279 279 277 277 276 276 275 275 274 274 273 272 272 271 271 271 270 270 270 269
282 282 287 281 281 281 283 283 285 286 285 283 286 288 289 288 286 278 278 280 282 283 283 283 283 283 283 283 283 282 281 280 279 279 278 277 276 276 275 275 275 274 273 273 272 272 271 271 271 270 270 269 269 269
280 279 281 277 278 278 278 280 280 279 277 281 284 282 279 276 275 276 278 281 282 283 283 283 283 283 283 282 281 280 279 279 278 277 276 276 275 275 275 274 273 273 272 272 272 271 271 271 270 270 270 269 269 269
278 278 278 276 277 279 276 275 276 275 276 276 276 276 275 274 276 278 279 280 281 282 282 282 282 281 281 280 280 279 279 278 277 276 275 275 275 274 274 273 273 272 272 272 271 271 271 270 270 270 269 269 269 268
277 278 277 277 277 276 275 276 276 276 276 276 276 277 276 275 277 278 279 280 281 282 282 281 281 280 280 280 279 279 278 277 276 275 275 274 274 273 273 272 272 272 271 271 271 271 270 270 269 269 269 268 268 268
277 276 277 278 277 275 276 277 277 277 277 278 276 276 276 277 277 277 278 280 280 280 280 280 280 279 279 279 278 277 276 275 275 274 274 273 273 273 272 272 271 271 271 271 270 270 270 269 269 269 268 268 268 268
276 275 276 277 277 277 276 277 277 277 278 278 276 276 276 277 277 277 278 279 279 280 280 280 279 279 278 277 276 275 275 274 274 273 273 273 272 272 272 271 271 271 271 270 270 270 269 269 269 268 268 268 268 267

GFSWCAN_850_thetae_093.txt.gz
Theta_e
295 294 294 293 293 293 292 292 292 294 293 291 292 291 293 294 295 296 296 295 296 297 297 298 298 298 298 298 301 299 303 302 303 305 305 306 307 306 308 308 308 309 310 311 310 310 312 299 305 305 299 298 297 295
293 292 292 292 292 292 292 292 293 294 293 292 291 291 292 293 293 295 296 295 295 295 297 297 297 297 297 297 298 299 300 302 302 303 303 305 307 308 308 311 306 309 304 306 304 303 299 297 297 295 296 296 295 294
294 292 292 292 292 291 291 292 293 294 293 292 292 291 291 292 294 295 297 295 295 295 296 298 299 297 296 296 297 299 301 300 300 299 300 304 306 307 309 306 307 303 301 305 303 299 297 295 294 293 292 291 291 290
293 293 292 292 291 291 292 293 293 293 292 292 291 291 292 293 295 295 296 295 295 296 298 299 295 298 298 297 297 297 298 298 299 300 301 304 306 304 306 305 302 298 300 302 300 299 296 292 291 291 290 289 288 288
293 292 290 291 291 291 292 293 293 292 291 289 291 293 294 294 295 295 296 296 296 297 298 299 299 298 298 299 298 298 298 299 300 301 302 304 304 304 304 303 300 296 296 300 300 296 295 291 289 288 288 287 287 287
291 291 290 290 291 292 293 293 291 291 290 291 293 293 293 294 295 296 297 297 296 295 297 299 299 299 299 300 299 298 299 300 299 300 301 302 303 303 306 302 295 294 293 295 295 292 291 289 288 287 286 285 285 285
291 290 290 289 291 292 292 292 291 289 290 292 293 293 293 295 296 297 298 298 296 296 297 298 300 299 299 300 300 299 299 300 300 301 302 303 302 301 303 303 294 293 293 293 293 293 292 289 288 287 286 285 285 285
290 289 289 290 291 292 292 291 289 288 290 292 293 294 295 297 297 296 298 297 296 296 297 297 300 300 300 300 301 300 300 300 300 301 302 302 302 299 298 293 292 292 291 291 291 291 290 288 288 287 287 287 286 285
290 289 289 290 291 292 291 289 288 290 292 293 294 295 296 298 298 297 297 296 295 297 298 297 300 303 300 300 301 301 301 302 302 303 303 302 303 299 295 293 291 291 292 290 290 291 290 290 289 288 287 287 286 284
288 289 289 290 291 291 291 288 290 291 292 294 295 297 297 297 297 297 296 296 296 295 297 299 300 302 301 301 302 301 301 302 302 303 302 303 297 291 290 289 289 289 290 290 291 290 289 288 287 286 285 285 284 283
289 290 290 290 290 291 290 289 291 291 292 295 296 297 297 297 297 297 297 298 297 298 298 297 299 301 301 302 302 301 303 303 303 305 304 304 300 292 289 288 288 288 289 289 289 288 288 287 285 284 283 283 281 280
289 290 291 291 292 290 289 289 291 292 294 296 297 296 296 297 297 300 299 299 299 300 300 299 298 300 301 300 302 301 301 304 305 303 304 305 295 291 289 288 287 287 287 287 287 286 286 285 284 283 282 280 281 281
288 290 291 291 290 289 288 289 292 294 296 297 297 297 297 297 302 301 299 300 301 301 300 299 299 299 300 300 301 302 302 305 304 305 306 299 292 290 288 287 286 285 285 285 284 284 283 282 281 282 282 281 280 279
289 290 291 290 289 288 287 290 293 295 296 297 298 301 300 300 301 302 303 305 302 301 300 298 300 301 301 301 302 303 304 303 305 305 306 296 290 288 287 286 285 284 282 282 281 281 282 282 282 282 280 279 278 278
289 290 289 289 288 287 288 291 293 295 296 297 299 301 300 300 299 298 299 299 299 300 299 300 301 301 302 303 303 303 303 304 303 305 299 292 288 287 285 284 281 280 280 280 282 282 281 281 281 279 279 278 278 277
288 288 289 288 287 289 291 293 294 294 297 297 297 298 297 299 298 296 296 297 297 300 299 301 301 302 303 303 302 302 304 305 303 297 292 288 286 285 283 281 280 280 280 281 282 281 281 279 279 279 278 278 278 277
288 290 290 290 290 291 293 294 295 296 296 295 295 293 296 297 299 297 296 297 297 300 305 302 302 302 302 302 302 303 304 298 293 290 288 287 284 282 281 281 282 281 281 281 281 280 279 279 279 279 278 277 276 276
289 290 290 291 291 292 293 295 295 294 294 294 296 294 293 294 295 295 295 296 297 300 301 302 301 302 303 304 305 298 292 290 289 288 286 284 282 281 281 281 281 280 281 281 280 280 279 279 280 281 279 278 277 277
292 294 295 295 293 294 294 293 293 293 292 291 291 291 292 292 293 294 294 296 297 298 299 299 302 303 304 299 297 293 290 289 287 285 283 282 281 281 281 281 280 280 280 280 279 281 281 280 280 279 279 278 279 278
295 296 296 295 295 295 292 291 292 293 294 292 292 292 293 293 291 292 293 294 296 297 299 300 301 297 296 291 291 291 289 287 286 284 283 282 281 281 281 281 282 281 281 281 281 281 280 279 278 278 277 276 276 278
296 294 294 296 295 292 292 292 292 292 291 292 291 293 292 291 292 293 293 293 295 298 299 295 293 288 287 287 289 288 287 287 287 287 285 284 283 283 282 283 282 283 283 282 282 281 279 280 279 277 276 276 275 275
294 295 295 294 292 291 291 292 293 292 292 291 292 293 293 294 293 293 292 294 295 294 292 292 290 286 286 286 286 287 287 287 287 286 285 284 284 284 284 283 283 282 282 282 281 280 279 278 277 276 275 275 274 274
296 296 296 294 291 292 291 291 292 292 293 292 292 293 293 293 293 290 294 294 292 288 288 288 286 287 286 285 285 285 285 286 286 285 284 285 285 284 283 282 282 282 282 280 279 279 278 277 275 274 274 274 274 274
296 293 292 293 293 292 291 292 292 292 292 293 294 293 293 292 290 292 296 294 290 286 286 285 286 285 285 284 285 284 285 286 285 284 284 284 283 283 282 282 281 280 280 280 278 277 276 275 275 274 274 273 273 273
294 291 292 292 292 292 293 293 293 293 293 293 293 293 292 290 294 295 295 293 287 286 285 286 286 287 287 286 285 284 284 285 285 284 283 283 282 281 280 279 278 277 277 277 276 276 276 274 273 273 273 272 272 272
292 288 292 293 293 294 294 294 293 293 293 293 293 292 291 294 294 296 294 290 287 286 285 286 287 287 287 286 284 284 284 284 284 283 281 281 281 281 280 279 278 277 276 276 276 275 274 273 272 272 271 271 271 270
292 290 287 286 290 291 292 291 292 293 293 293 292 292 293 294 296 290 284 284 285 284 284 285 286 286 286 285 283 282 282 282 283 281 279 280 279 279 279 279 278 278 276 275 274 273 273 272 272 271 271 270 270 270
286 287 289 287 287 287 290 291 292 292 292 290 292 293 294 294 291 282 281 281 283 283 284 284 285 285 284 281 280 282 282 282 281 281 280 279 278 277 277 276 276 275 274 274 273 273 272 272 271 271 270 270 270 270
285 283 284 281 284 285 285 287 287 284 282 286 292 289 285 280 277 278 278 279 280 282 282 282 282 282 281 280 280 282 281 280 280 279 278 277 276 276 276 275 275 274 273 273 273 272 272 271 271 271 270 270 270 270
283 282 283 281 283 285 281 280 281 279 279 280 280 279 279 277 275 276 277 279 280 281 280 282 283 282 282 282 281 280 280 279 278 278 278 277 276 276 275 274 274 273 273 272 272 272 271 271 271 270 270 269 268 268
281 283 283 283 282 280 278 277 277 278 279 279 280 282 280 277 276 277 277 279 280 281 282 280 280 280 281 281 280 280 279 279 278 276 276 276 275 275 274 273 273 273 272 272 271 271 271 270 270 270 269 269 268 268
282 282 282 282 280 278 278 281 281 281 281 281 280 279 278 281 280 276 279 279 279 279 279 280 279 278 279 279 280 280 279 278 276 276 275 275 274 274 273 273 272 272 272 271 271 271 270 270 269 269 269 268 268 268
280 281 281 281 280 281 279 281 282 281 282 282 281 281 280 282 280 275 278 278 278 278 278 279 280 280 280 279 279 278 277 276 275 274 274 274 273 273 272 272 272 272 271 271 270 270 270 270 269 269 269 268 268 267

GFSWCAN_850_thetae_099.txt.gz
Theta_e
298 297 297 297 297 296 295 294 294 293 293 293 294 294 292 294 295 296 297 296 297 297 297 298 300 299 299 299 295 299 299 301 299 301 302 304 307 307 308 305 306 303 306 304 305 304 303 295 297 298 298 295 293 292
297 297 297 296 296 295 294 294 294 293 293 293 293 292 294 295 295 296 297 296 296 295 296 298 296 298 295 298 299 299 301 301 300 298 300 301 306 305 306 306 304 303 305 301 301 299 295 293 293 292 292 292 291 291
297 296 296 295 295 295 294 293 293 293 294 291 292 291 293 294 294 295 297 297 296 296 297 299 301 298 298 298 298 299 301 299 300 300 301 301 306 303 305 303 302 299 299 299 299 295 293 293 292 290 290 290 289 289
296 295 295 294 293 293 293 293 293 294 294 291 291 291 292 293 293 294 296 296 296 297 296 299 299 300 299 298 298 298 299 299 300 301 301 302 304 303 302 301 297 296 297 299 297 294 292 290 290 290 289 288 288 287
295 293 292 293 293 293 293 293 293 293 294 294 292 292 291 292 292 293 295 297 296 297 296 297 298 299 299 299 299 299 299 299 300 299 298 302 302 302 300 299 296 295 294 297 294 293 291 290 289 289 288 288 287 287
295 293 293 293 292 293 293 293 293 293 293 293 292 291 291 292 294 295 296 297 297 297 297 294 298 300 300 300 300 300 300 300 300 300 300 302 303 301 300 296 295 294 294 295 293 292 290 288 288 287 287 287 286 286
294 293 293 292 292 292 292 293 293 293 292 291 291 291 293 294 295 297 297 298 297 297 297 297 297 301 300 300 300 300 300 299 301 300 301 303 302 302 295 294 294 294 294 293 292 290 289 290 287 287 286 286 285 285
294 293 292 291 292 292 292 292 293 292 291 290 293 293 293 294 294 296 297 297 296 296 298 298 296 299 300 301 301 301 301 301 299 300 302 302 301 300 295 294 293 293 293 292 292 292 290 289 289 288 286 285 284 283
293 293 291 290 291 292 292 293 292 291 290 292 293 293 293 294 295 295 296 296 296 297 298 298 298 300 301 301 301 301 301 294 301 298 301 301 302 295 295 293 293 293 293 293 291 290 289 289 288 287 286 285 284 283
292 291 290 290 290 292 293 293 292 289 290 291 294 294 295 295 296 297 297 296 296 297 298 297 298 296 301 301 301 301 301 297 299 300 303 299 294 293 293 292 292 292 292 292 291 290 289 287 287 286 285 284 283 283
291 291 290 289 290 292 292 291 289 289 291 294 295 295 296 297 297 297 296 296 297 297 297 297 298 296 301 297 296 302 296 297 299 301 302 303 296 292 291 290 290 292 291 291 291 290 288 287 286 285 284 283 283 282
291 290 289 290 291 292 292 289 290 291 293 294 296 296 296 297 297 297 294 296 299 297 299 299 299 299 301 302 301 301 299 296 299 302 301 300 294 290 290 289 289 289 289 288 288 287 286 285 285 284 284 283 282 281
291 290 289 289 291 292 291 289 291 292 294 295 296 296 296 297 298 297 294 297 294 300 301 299 294 300 301 301 300 299 299 299 302 299 300 296 292 290 289 288 288 288 287 287 286 286 285 285 284 284 283 282 281 280
290 289 289 289 291 292 291 289 290 292 295 296 296 297 297 297 297 294 294 295 302 301 301 299 299 300 301 298 299 300 298 301 302 298 301 293 291 289 288 287 287 286 286 286 285 285 285 284 284 283 281 280 280 280
290 290 290 290 291 291 291 289 290 291 293 295 297 298 293 299 299 299 301 301 301 300 299 299 301 301 297 299 298 300 300 301 298 302 296 292 290 288 287 287 286 285 285 285 284 284 284 283 282 281 280 280 279 279
289 290 291 291 291 291 290 289 290 291 294 295 296 299 300 299 297 298 299 298 300 299 299 301 297 295 296 298 300 298 300 297 298 294 291 290 289 288 287 286 285 284 284 284 284 283 283 282 281 281 280 280 279 278
289 290 291 292 291 289 288 289 291 293 294 295 297 296 298 299 299 297 298 297 299 300 298 299 298 298 300 300 301 301 297 296 292 291 290 290 289 287 286 285 284 284 284 283 283 283 281 281 281 281 280 279 279 279
289 290 291 291 290 289 289 290 292 294 295 296 296 295 296 296 297 297 297 297 299 300 300 299 301 299 298 299 297 296 293 292 291 290 289 288 287 286 285 284 283 283 283 283 283 282 282 281 282 281 281 280 280 280
290 291 290 290 289 289 290 290 292 295 295 294 294 294 295 295 296 296 296 297 298 299 300 301 297 298 298 298 296 294 292 291 288 288 287 286 285 284 283 283 282 282 283 283 282 282 282 282 281 281 280 279 280 280
291 291 290 289 289 292 293 293 293 294 293 293 294 294 294 294 294 293 294 296 296 298 299 295 293 297 297 296 295 294 292 290 288 286 285 283 282 281 282 281 281 283 282 282 282 282 282 281 280 280 280 279 278 278
291 291 289 288 291 292 293 293 294 295 294 294 294 294 293 292 292 292 294 295 296 297 298 298 296 297 295 293 293 292 292 290 288 287 285 282 281 282 281 282 282 282 282 282 282 282 282 281 281 280 280 278 277 277
290 291 290 290 291 291 292 293 295 293 293 293 293 293 293 293 293 293 294 295 296 297 298 297 296 295 292 291 291 290 290 288 287 286 284 283 282 282 282 283 282 282 283 283 283 283 281 281 281 280 279 277 276 276
290 290 292 291 293 292 293 294 294 293 292 293 294 295 294 295 294 294 294 294 295 296 296 296 295 293 291 290 289 288 288 288 288 286 285 283 283 283 284 283 283 283 283 283 282 282 282 281 280 279 277 276 275 275
292 292 294 293 293 292 292 293 294 294 294 294 293 295 294 294 293 293 294 295 294 294 293 293 291 290 288 288 288 288 288 288 287 286 284 284 284 284 284 283 283 283 283 283 282 281 280 279 278 277 276 275 275 274
294 294 294 294 293 293 293 292 292 293 290 291 294 294 293 292 292 293 292 293 292 291 290 289 289 289 289 287 287 287 287 287 286 285 286 285 285 284 283 283 283 282 282 282 281 280 278 277 277 276 275 274 273 273
293 291 293 294 293 292 292 292 291 292 294 295 295 294 292 292 293 294 291 292 291 290 290 289 288 287 287 287 286 287 287 287 286 285 285 284 284 283 282 282 282 281 280 279 279 278 278 277 276 276 274 273 273 272
292 291 290 292 294 295 294 295 295 292 292 294 294 290 293 294 292 288 287 288 289 289 289 288 288 288 288 287 286 286 286 285 285 285 284 284 283 282 282 281 280 280 279 278 277 276 276 275 274 273 273 272 272 272
289 290 289 291 291 292 294 294 293 293 292 295 293 292 293 288 285 284 285 286 287 287 287 288 289 289 288 287 286 286 285 285 284 284 283 282 282 282 281 280 280 280 278 276 275 275 274 274 273 272 272 272 271 271
288 288 289 289 290 289 290 290 290 287 287 289 290 287 284 281 281 281 283 285 285 286 286 287 287 287 286 286 285 285 285 284 284 283 282 282 281 280 280 279 278 276 276 275 274 274 273 273 272 272 272 271 271 270
286 288 286 286 284 287 284 283 283 283 284 285 284 281 280 278 279 281 283 284 284 285 285 286 286 286 285 285 283 282 282 283 283 282 281 280 279 278 277 276 276 275 275 274 274 273 273 273 272 272 271 271 270 270
286 287 287 286 284 282 281 282 281 282 283 284 285 283 279 278 279 280 281 282 283 283 283 283 283 284 283 283 282 282 281 281 280 280 279 279 278 277 276 275 275 274 274 273 273 273 272 272 271 271 270 270 270 269
286 287 286 283 281 280 281 282 282 283 282 282 281 281 280 281 279 279 281 282 283 282 282 282 282 281 281 281 281 281 281 280 279 279 278 277 276 276 275 274 274 273 273 273 273 272 272 271 271 270 270 269 269 268
285 284 283 282 280 281 281 283 284 284 284 284 282 281 282 282 279 279 280 280 281 281 281 280 280 280 280 280 281 281 280 279 278 276 275 275 275 274 274 273 273 273 273 272 272 272 271 270 270 270 269 269 268 267

GFSWCAN_850_thetae_102.txt.gz
Theta_e
297 296 296 295 293 292 294 294 293 293 292 293 294 293 295 296 297 297 295 295 295 296 297 298 300 298 296 298 294 298 298 299 298 298 301 302 306 306 305 304 305 303 304 302 302 302 302 293 295 297 295 293 291 289
298 297 297 296 295 295 295 295 293 293 292 293 294 292 294 294 295 296 296 296 296 295 297 298 296 297 295 295 298 299 300 298 299 297 299 300 303 302 303 304 302 301 301 299 299 297 293 291 291 291 291 291 290 288
297 297 297 297 296 294 294 294 293 292 293 293 293 293 294 295 295 296 296 296 296 297 298 300 298 298 298 297 297 299 300 299 299 300 299 300 305 301 305 299 298 296 298 297 296 294 293 292 290 289 289 289 288 287
297 296 296 295 294 294 294 294 294 293 292 292 291 293 294 295 295 296 296 296 297 297 295 299 299 299 299 298 297 297 298 299 299 300 300 300 302 302 302 298 294 295 295 296 294 292 291 290 289 288 288 287 287 286
296 295 295 295 294 293 293 294 293 294 291 291 291 291 293 294 293 294 296 296 296 296 295 296 298 299 299 298 298 298 298 299 299 298 296 301 301 301 298 296 294 295 294 294 294 292 290 289 288 288 287 287 286 286
295 293 292 292 293 293 293 292 293 294 293 293 292 291 291 292 293 294 296 296 296 296 296 291 297 298 299 299 300 300 299 299 299 299 298 300 302 300 298 295 294 293 294 293 291 292 289 288 287 287 287 286 286 285
293 293 293 292 293 293 293 293 293 294 293 292 292 291 292 293 295 296 297 297 297 296 296 296 295 300 300 300 300 300 300 299 300 300 299 301 301 299 289 287 294 294 292 291 290 290 288 288 287 286 286 285 285 285
293 293 292 292 293 293 293 293 293 292 292 291 291 293 293 294 296 296 296 296 296 296 297 292 294 297 300 300 300 301 300 300 299 299 300 300 300 295 288 292 293 293 292 292 291 291 289 287 287 286 285 285 284 283
294 293 293 292 292 292 293 293 293 292 290 293 293 293 294 294 295 296 296 296 296 297 297 296 292 296 301 301 301 301 300 292 299 296 299 300 299 293 289 292 292 292 292 290 289 289 289 288 286 285 285 284 284 283
293 292 291 292 292 292 292 293 291 290 292 293 293 294 294 295 296 296 296 296 296 297 297 295 297 294 301 300 299 299 300 295 299 298 301 296 294 293 293 293 293 292 292 292 290 289 288 287 286 285 285 284 284 284
293 291 290 291 292 293 293 292 290 290 292 294 294 295 295 295 297 296 296 296 295 295 296 296 296 293 299 295 294 300 293 295 298 299 301 300 295 292 292 292 292 292 292 292 290 290 289 289 287 286 285 284 284 282
291 291 290 290 292 293 293 291 289 290 292 294 296 296 296 297 296 296 295 294 296 295 296 298 297 298 300 301 299 300 296 295 298 301 302 300 292 291 291 290 291 291 291 291 291 289 288 287 286 286 285 284 281 280
291 290 289 290 292 292 291 289 289 292 294 296 296 296 296 295 296 296 293 295 290 297 299 299 293 300 300 300 298 295 298 293 301 300 302 294 290 290 289 289 289 289 289 289 288 288 287 286 285 285 283 281 280 280
291 290 290 291 292 292 289 290 291 293 294 295 296 295 295 294 296 291 290 289 299 301 300 298 298 300 300 296 293 298 295 300 301 297 297 291 289 289 288 288 288 288 288 287 287 286 285 285 284 283 282 281 281 280
290 289 289 291 292 290 289 290 291 293 294 294 296 295 294 296 297 299 300 301 300 300 299 299 299 300 292 297 298 299 299 301 296 294 292 291 289 289 288 288 287 287 286 286 286 285 285 284 283 282 281 281 280 279
289 290 289 291 292 291 290 289 290 291 293 294 295 298 298 297 297 298 299 299 299 299 299 301 293 291 292 292 299 296 298 295 295 293 292 291 290 289 288 287 287 286 286 285 285 285 284 283 282 282 282 280 279 278
290 290 290 291 292 291 289 289 290 292 292 294 297 296 297 297 297 297 298 297 298 298 296 295 295 294 296 297 297 294 292 293 293 292 292 291 291 289 288 287 286 286 285 284 284 283 282 282 282 282 280 279 279 280
291 291 291 292 291 289 288 289 292 293 292 294 294 295 296 296 297 296 296 297 298 300 300 296 299 296 298 297 293 295 293 292 292 293 292 291 289 288 288 287 286 285 285 284 284 282 282 282 282 281 280 280 280 280
289 290 291 291 290 289 288 289 292 293 294 294 294 295 295 295 296 296 296 296 298 299 299 300 295 293 288 297 296 295 294 293 289 290 290 289 288 287 286 285 285 284 284 284 283 282 282 282 282 281 281 280 279 279
290 291 291 290 290 290 291 291 291 293 292 293 293 293 294 294 294 294 295 295 296 297 298 294 291 295 298 298 297 296 295 293 291 288 287 286 286 285 285 284 284 284 283 282 281 281 282 281 281 281 280 279 279 279
291 291 290 289 290 292 292 292 292 294 294 293 293 294 293 293 292 292 293 294 296 297 296 298 298 298 296 297 295 294 294 292 291 290 289 285 284 284 283 283 283 283 283 282 282 282 282 281 281 281 280 280 279 277
291 291 290 289 290 291 291 293 294 293 293 294 294 293 292 292 293 293 293 294 295 296 297 297 297 298 297 295 294 293 292 291 289 288 287 286 284 283 282 282 282 283 282 282 282 282 281 281 281 281 280 279 278 276
290 289 289 289 291 291 292 293 293 293 290 293 293 293 293 294 294 293 294 294 294 295 295 296 296 296 295 292 291 291 290 289 288 287 286 285 284 284 283 283 283 283 283 282 282 282 282 281 281 280 280 279 277 275
290 291 291 290 291 289 292 293 293 294 293 293 293 292 293 294 294 293 293 294 295 295 295 295 295 295 292 290 290 289 288 288 288 287 285 284 283 283 283 283 283 283 283 283 283 282 282 281 280 279 278 276 275 275
291 290 293 293 293 290 289 291 291 292 288 288 289 288 292 293 290 292 291 293 294 292 293 293 293 292 292 290 289 288 288 288 288 287 284 284 283 283 283 283 283 283 283 283 282 282 281 280 279 277 276 275 274 273
293 292 291 292 289 289 289 289 288 289 289 291 288 292 292 291 292 289 289 291 292 291 291 291 290 289 289 289 288 288 288 287 287 286 284 284 284 284 283 283 283 282 282 282 281 281 279 278 277 276 276 274 273 273
291 290 291 292 292 294 289 292 293 288 285 288 289 284 291 292 292 287 288 289 290 290 291 290 290 289 289 288 287 287 287 287 286 285 285 285 285 284 284 283 283 282 281 280 278 278 277 277 276 275 273 273 272 271
289 290 287 291 292 293 286 286 285 285 284 293 291 290 290 289 284 285 286 287 288 289 289 288 288 288 288 287 287 286 286 286 285 285 285 284 283 283 282 281 281 280 279 279 277 275 275 274 273 273 272 272 271 271
287 289 290 287 289 290 288 288 289 288 288 290 284 280 281 282 282 283 284 286 286 287 287 287 288 288 288 287 286 286 286 285 285 284 284 283 282 281 281 281 280 280 278 276 275 274 274 273 273 272 272 272 271 271
287 288 286 286 284 284 284 285 285 285 286 286 286 283 281 281 281 283 284 285 285 285 286 286 287 287 287 286 285 285 285 285 284 284 284 283 282 281 281 280 278 276 275 275 274 274 273 273 272 272 272 271 270 269
287 287 286 285 283 282 283 283 283 283 284 284 284 283 281 280 280 282 282 283 284 284 285 286 286 286 286 286 285 284 284 283 283 283 282 281 280 279 277 276 275 275 274 274 273 273 273 272 272 271 270 270 270 269
286 287 284 282 281 281 281 282 282 282 283 282 281 281 279 279 279 280 281 282 282 283 283 284 284 284 284 284 283 283 282 282 282 281 280 279 278 276 276 275 274 274 274 273 273 272 272 271 271 270 270 270 269 268
285 284 282 280 280 280 281 283 284 283 282 283 282 281 281 281 279 279 280 281 282 282 282 282 282 282 282 282 281 281 281 281 280 279 277 276 275 275 274 274 273 273 273 272 272 272 271 271 271 270 270 269 268 267

GFSWCAN_850_thetae_105.txt.gz
Theta_e
296 296 295 294 294 294 294 295 294 291 291 292 295 296 296 296 295 296 296 297 297 298 298 299 299 297 296 297 293 297 296 297 297 298 301 301 302 304 303 302 303 301 302 301 302 303 303 291 294 297 294 291 289 287
296 295 294 293 294 294 295 295 293 291 293 293 294 296 296 296 297 296 295 295 296 297 297 298 296 296 295 295 298 299 298 297 298 297 299 300 300 300 299 299 300 300 298 298 297 295 291 290 290 291 292 289 288 287
296 294 293 294 294 294 293 293 292 292 293 293 293 294 295 296 296 296 295 295 296 298 299 299 298 298 298 296 298 299 300 298 299 299 298 299 302 301 303 298 297 296 296 295 294 292 292 290 289 289 289 288 287 286
297 296 295 295 295 295 294 294 293 293 293 293 292 293 294 295 296 296 296 296 297 297 296 298 299 298 298 298 297 297 297 298 299 299 298 297 302 301 301 296 294 294 294 294 293 291 290 289 288 288 287 287 287 286
297 296 296 295 294 294 294 292 293 291 292 292 294 294 294 295 296 296 296 296 296 296 294 296 298 299 299 297 297 298 298 298 299 297 296 301 301 301 295 294 292 295 293 291 293 291 290 289 288 287 287 286 286 285
296 296 295 295 293 294 294 294 292 291 291 291 292 294 294 294 294 296 296 296 295 296 295 291 297 298 298 299 299 299 299 299 299 299 297 299 302 299 297 294 294 293 293 293 291 291 290 288 288 287 287 286 285 285
295 295 294 294 293 293 294 294 293 293 292 292 291 291 292 293 294 296 296 296 296 295 296 292 295 298 299 299 299 300 300 299 299 299 298 300 300 297 292 292 294 291 291 291 290 289 287 287 286 286 286 285 285 284
293 292 293 293 293 293 293 294 294 294 292 291 291 292 294 296 296 296 296 296 296 296 297 290 294 298 299 299 299 300 299 300 299 298 299 299 298 292 291 292 292 291 290 290 291 291 289 287 286 286 285 284 284 283
293 292 293 293 293 293 293 293 292 292 291 292 293 294 295 296 295 296 296 295 296 296 296 293 292 298 300 300 300 300 300 292 298 295 297 300 297 293 288 292 291 292 291 290 289 288 287 286 285 285 284 283 284 283
292 292 292 293 293 293 293 293 291 292 293 293 294 294 295 295 295 295 296 296 296 297 296 293 295 293 300 299 297 298 298 294 298 297 299 295 293 292 292 293 292 292 290 289 288 288 287 286 285 284 284 284 285 284
293 292 292 292 292 292 293 291 291 293 293 293 294 295 295 296 296 296 295 295 295 294 296 296 296 292 298 294 293 299 292 293 297 299 300 298 294 292 292 292 292 292 290 290 290 289 288 288 286 286 284 284 284 283
291 291 292 292 293 293 292 290 291 293 294 294 296 295 296 296 296 296 294 294 295 295 295 296 296 296 298 300 298 298 295 293 296 300 301 298 290 292 291 292 292 292 292 291 290 289 288 287 287 286 286 285 283 282
291 290 291 292 293 293 291 289 291 292 295 296 296 295 295 296 295 295 292 295 289 296 297 298 291 298 299 299 297 294 293 291 298 298 301 293 291 290 291 291 291 291 291 291 289 289 288 287 286 286 285 283 282 281
290 290 290 292 293 293 290 290 290 293 295 295 294 295 295 293 296 288 289 288 297 299 299 298 298 299 299 295 288 291 293 298 294 296 297 288 290 290 290 290 290 289 289 289 289 288 287 286 285 284 282 281 281 280
290 289 290 292 292 291 290 290 291 293 294 294 295 294 293 294 295 296 299 300 299 299 298 298 298 298 291 296 297 296 297 298 293 292 287 290 290 289 289 289 289 289 288 288 287 287 286 285 284 283 282 281 280 280
289 289 291 293 292 290 290 291 291 293 293 293 294 295 296 296 297 298 299 299 299 299 300 299 293 292 294 290 298 293 294 293 290 286 293 291 290 290 289 289 288 288 287 287 286 286 285 284 283 282 282 281 280 279
289 289 290 292 291 289 289 289 290 292 292 293 296 295 296 296 297 297 298 298 298 298 291 295 291 293 293 295 297 292 289 290 293 293 294 293 292 290 289 288 287 287 286 286 286 285 283 282 281 282 281 280 279 279
290 290 291 292 292 290 289 289 291 292 292 292 293 295 296 296 296 296 296 297 297 299 298 295 298 298 298 296 291 287 294 294 294 293 293 292 292 290 289 288 287 286 286 285 285 284 282 282 282 281 280 279 280 280
290 290 291 291 291 290 288 289 292 292 292 293 293 294 294 295 295 295 295 296 297 299 298 299 294 293 289 294 295 297 296 295 293 291 291 290 290 289 288 287 287 286 285 284 284 283 282 282 281 281 280 280 280 280
291 291 291 291 289 289 289 290 291 292 292 293 293 293 293 294 294 294 294 295 296 297 297 293 289 296 298 299 299 297 297 295 293 290 289 289 288 288 287 287 286 285 284 283 283 281 282 282 282 281 281 280 280 280
290 291 291 290 290 291 291 291 291 292 293 293 292 293 293 293 292 292 293 294 295 296 295 297 297 298 298 298 298 296 295 294 294 292 292 288 287 286 286 285 284 284 284 283 282 282 282 282 281 281 281 280 280 279
291 291 290 289 290 290 291 292 292 293 293 293 292 293 292 292 292 293 293 294 295 295 296 296 297 297 297 298 297 295 294 293 292 290 289 288 287 285 284 284 284 283 283 283 282 282 282 281 281 281 280 280 280 279
290 290 289 289 289 289 290 292 292 293 288 293 293 292 291 293 293 293 293 294 294 294 295 295 295 296 296 295 294 293 292 292 291 290 288 287 286 286 285 284 284 284 283 282 282 282 282 281 281 281 280 279 279 278
290 289 289 290 289 288 291 292 293 293 292 292 293 292 291 294 293 293 292 293 294 294 294 294 294 295 294 293 292 292 291 290 289 288 287 286 285 284 284 284 283 283 283 282 282 282 282 282 281 280 279 278 276 275
290 290 290 289 289 289 288 288 290 290 285 291 292 288 292 293 287 291 290 292 293 294 294 294 294 294 294 293 291 290 289 289 289 288 286 285 284 283 283 283 282 282 283 283 283 282 282 281 280 279 278 277 275 274
286 290 290 291 288 288 288 286 286 287 289 288 285 291 292 291 291 288 288 291 290 292 291 291 292 292 291 290 290 289 288 288 288 287 285 284 284 284 283 283 282 282 282 283 282 282 281 280 279 278 277 275 274 273
291 289 291 291 291 292 288 290 291 289 290 290 289 285 284 288 286 287 289 288 290 291 290 291 291 291 290 290 289 288 288 287 287 286 285 284 284 284 284 284 283 283 282 282 281 281 280 278 277 276 275 273 273 272
291 291 288 291 291 292 286 283 285 284 283 291 289 285 288 288 285 286 286 286 288 289 290 290 289 289 289 288 288 288 287 287 286 285 285 284 284 284 284 283 282 282 281 280 278 278 277 276 275 274 273 273 272 272
288 289 290 286 289 290 291 286 287 291 289 291 285 280 284 287 285 285 285 286 286 286 287 288 288 288 288 287 287 286 286 286 286 285 285 284 283 283 282 281 281 280 279 279 276 275 274 274 273 273 273 272 272 271
287 288 288 286 286 287 287 287 286 286 287 288 288 286 286 285 284 284 284 285 285 286 286 285 287 287 288 287 286 286 286 285 285 285 284 284 283 283 282 281 280 279 278 276 275 274 274 273 273 272 272 271 271 270
287 288 286 285 282 283 284 284 284 284 285 285 285 285 284 283 283 283 283 284 285 285 285 285 286 287 287 287 286 286 285 284 284 284 283 283 282 282 281 280 278 276 275 274 274 273 273 273 272 272 271 271 270 270
286 287 284 281 281 281 282 283 283 283 283 283 283 282 282 282 282 282 281 282 283 284 284 285 286 286 285 285 285 285 284 284 283 283 283 281 280 280 278 276 275 274 274 274 273 273 272 272 271 271 271 270 269 269
284 283 282 281 280 280 281 282 282 282 282 282 282 281 281 282 281 280 280 281 282 283 283 283 283 284 284 283 283 283 282 282 282 281 279 278 277 276 275 274 274 274 273 273 273 272 272 271 271 271 270 269 268 268

GFSWCAN_850_thetae_108.txt.gz
Theta_e
297 296 296 296 297 296 295 293 292 291 292 296 297 298 298 298 297 298 298 299 299 298 298 299 298 297 296 296 292 296 295 296 296 297 300 300 301 300 303 301 301 300 301 300 301 303 302 291 294 297 292 289 288 286
296 296 296 294 294 295 294 292 291 292 295 296 296 296 296 295 295 296 297 297 299 298 298 297 296 295 295 295 298 298 296 296 297 297 299 298 300 301 297 298 298 300 296 297 295 294 291 289 290 291 291 288 286 286
295 294 294 295 295 294 292 292 292 293 295 296 296 296 296 296 295 295 295 297 297 297 297 298 297 296 295 298 298 299 298 298 298 298 298 297 301 302 301 297 297 296 295 294 293 292 290 289 288 289 289 288 287 286
294 295 295 295 295 294 293 291 293 293 293 294 295 295 296 296 296 295 295 296 297 298 296 297 298 298 298 296 296 297 297 298 298 299 297 298 299 301 297 295 294 293 294 294 292 291 289 288 287 287 287 287 287 286
294 295 295 294 294 293 292 292 293 293 292 292 294 294 295 296 296 295 295 297 297 297 295 297 298 298 298 297 297 297 298 298 298 297 295 301 300 299 293 294 291 294 294 290 288 289 288 288 287 287 287 286 286 286
296 295 294 294 294 293 292 293 292 293 292 294 294 294 295 296 296 295 295 295 296 297 298 292 297 298 298 299 299 299 299 299 298 298 296 299 301 298 289 293 293 292 292 292 291 290 289 288 287 287 287 286 285 285
296 295 294 294 294 293 293 292 292 291 292 294 294 294 294 295 295 296 296 295 295 296 297 292 296 298 298 298 299 299 299 298 299 298 297 300 299 297 286 290 292 289 290 292 291 289 287 287 286 287 286 285 285 285
295 295 294 293 294 294 293 292 292 292 291 291 292 292 294 295 296 296 296 295 295 296 295 290 295 299 298 299 298 299 299 299 298 297 298 299 297 292 291 291 290 290 290 289 290 291 289 287 287 286 286 285 285 284
294 293 293 293 293 294 294 294 294 292 291 291 294 296 296 296 296 296 295 295 296 296 295 292 294 297 299 298 299 299 299 292 297 294 296 300 296 291 288 292 291 290 290 290 289 289 288 287 286 285 285 284 284 283
293 293 293 293 293 294 294 293 292 292 293 293 294 294 295 296 296 295 295 296 296 296 296 292 294 298 299 298 296 297 297 293 298 299 298 295 291 292 292 292 292 291 291 290 287 286 286 286 285 285 285 284 284 284
293 293 293 293 293 293 292 290 292 293 293 294 295 295 295 295 296 295 295 293 294 292 295 295 295 294 298 293 297 297 294 294 296 297 299 296 293 292 292 292 292 292 290 290 289 289 288 288 287 286 285 284 284 283
292 292 293 293 293 293 291 292 293 293 293 295 295 295 295 295 295 294 294 293 294 294 294 295 296 296 298 300 297 297 294 292 295 298 299 298 290 292 292 292 292 291 290 290 290 289 288 288 287 286 285 284 283 281
292 292 292 292 293 292 290 292 293 294 295 295 295 295 295 295 294 290 291 294 289 294 295 297 291 297 299 298 295 293 290 290 296 299 300 292 292 291 292 292 292 291 291 291 290 289 288 287 286 285 285 283 281 281
290 292 293 293 293 291 290 291 292 295 295 294 294 294 292 292 295 288 289 287 295 296 298 298 297 298 297 294 286 290 290 294 290 294 296 288 291 291 291 292 292 291 291 292 290 289 288 287 286 284 283 281 281 280
290 290 292 293 293 293 290 290 291 293 294 294 295 295 293 294 295 296 297 298 297 297 298 297 296 296 292 294 293 291 294 292 291 292 286 291 291 291 291 291 291 290 290 289 289 288 287 286 285 283 281 281 281 279
290 290 291 293 292 291 290 291 292 293 293 293 294 295 295 295 296 298 298 298 298 298 299 298 295 293 294 289 297 291 294 292 289 286 293 291 291 291 290 290 289 289 288 288 287 286 286 285 283 282 281 281 280 279
290 291 292 292 291 290 290 291 292 293 292 293 294 295 296 296 296 297 298 298 298 298 289 294 291 292 292 295 295 291 288 285 294 293 294 292 292 290 289 289 288 288 287 286 286 285 284 283 282 282 281 279 279 279
289 291 292 292 290 289 289 289 291 292 292 292 292 294 295 296 296 296 297 297 297 298 296 294 296 297 295 293 290 285 291 293 294 294 293 293 291 290 289 289 288 287 287 286 285 285 284 283 282 281 280 279 279 280
290 290 292 291 290 290 289 290 292 292 292 293 293 294 295 295 295 295 295 296 296 298 298 298 294 292 289 291 296 297 295 295 294 292 292 291 291 290 289 288 287 287 286 285 285 284 283 282 282 281 280 280 280 279
290 291 292 291 289 289 289 289 291 291 292 293 293 293 293 294 294 294 294 295 296 297 297 291 288 296 297 298 299 297 296 295 294 291 290 290 290 289 288 288 287 286 285 284 284 283 281 282 282 281 281 280 280 280
291 291 291 290 290 291 291 290 289 290 292 292 292 292 292 292 293 293 293 294 295 296 294 296 297 297 297 298 298 297 296 295 294 293 292 290 289 288 288 287 286 286 285 284 283 282 282 282 282 281 280 280 280 280
291 291 291 290 289 290 291 290 291 292 292 292 292 292 292 291 291 292 293 293 294 295 296 296 296 296 296 297 297 296 295 294 293 292 291 290 289 288 287 287 286 285 285 284 284 283 282 282 281 281 280 280 279 279
291 290 289 289 289 289 290 291 292 292 290 292 292 292 289 292 292 292 293 293 293 294 294 295 295 295 295 296 296 295 294 293 292 291 290 289 288 287 287 286 286 285 284 283 282 281 282 282 281 281 280 279 279 278
290 289 289 289 289 286 289 291 292 292 291 291 288 287 288 291 292 293 287 292 294 294 294 294 294 294 295 295 294 294 292 291 291 289 288 288 287 286 285 285 284 283 283 283 282 282 282 281 281 280 280 279 278 277
289 289 289 288 287 288 288 287 290 289 288 290 286 284 286 293 288 284 287 291 292 293 293 293 294 294 294 293 293 292 290 290 289 289 288 286 285 284 283 283 282 282 282 281 282 282 282 281 280 280 279 278 277 275
283 288 287 287 287 288 288 285 283 283 282 284 284 290 292 291 291 286 288 291 290 290 291 290 291 292 292 292 291 291 290 288 288 288 287 285 284 285 284 283 282 281 282 282 282 282 281 280 280 279 278 277 275 274
288 284 290 290 290 290 287 289 290 287 289 288 285 284 283 286 286 287 288 288 288 290 290 291 291 291 290 290 290 289 288 288 287 287 285 284 283 283 284 284 283 283 282 282 282 281 281 280 279 278 277 275 273 273
289 290 287 290 290 291 281 280 280 284 286 290 289 287 286 285 286 288 288 288 289 289 290 290 290 289 289 288 288 288 288 287 286 285 284 284 283 283 283 283 283 282 282 281 281 280 278 277 277 276 274 273 273 272
289 289 290 288 290 290 291 288 287 290 289 290 285 282 286 289 288 288 288 287 287 286 287 288 289 288 288 287 287 287 287 287 286 285 284 284 283 283 283 282 282 281 280 279 278 277 276 275 274 273 273 273 272 271
288 288 289 286 283 286 289 289 287 287 288 289 289 288 288 288 288 288 287 287 286 286 286 286 286 287 287 287 286 286 286 286 285 285 285 284 284 283 283 282 281 280 279 277 276 275 274 274 274 273 273 272 271 271
287 287 287 286 283 285 286 286 285 286 286 286 286 286 287 286 286 286 286 286 285 285 285 285 285 286 287 287 286 286 286 285 285 284 284 284 283 283 282 281 280 279 276 275 274 274 274 273 273 272 272 271 271 270
286 287 284 279 281 282 282 283 284 284 283 283 284 284 284 284 285 284 283 283 284 284 284 285 285 286 286 285 286 285 285 285 284 283 283 283 282 281 281 280 277 275 274 274 274 274 273 272 272 272 271 271 270 269
284 284 282 281 280 280 281 282 282 282 282 282 282 281 282 283 283 282 282 281 283 283 283 284 284 284 284 284 284 284 284 283 282 282 282 280 280 280 278 276 274 274 274 274 273 273 272 272 272 271 270 270 269 268

GFSWCAN_850_thetae_111.txt.gz
Theta_e
297 297 296 295 295 293 294 294 294 295 296 297 298 299 299 299 298 299 299 298 299 297 298 298 298 298 296 296 297 295 298 297 298 300 302 302 302 302 303 300 302 301 301 301 303 303 303 291 295 299 293 289 287 286
297 297 296 295 293 292 291 293 296 297 298 298 298 298 298 298 298 298 298 299 299 299 297 296 296 296 294 295 298 297 296 297 297 299 300 300 301 301 300 302 298 301 297 298 296 296 291 290 291 291 290 288 286 285
296 296 295 294 293 293 292 293 296 297 297 297 297 297 296 296 297 298 298 298 298 296 297 296 295 294 297 298 298 297 297 298 298 298 300 301 301 302 302 299 299 297 295 294 294 291 290 289 288 288 288 287 286 286
295 295 294 293 292 292 293 295 296 296 296 296 296 295 295 295 295 297 298 298 297 297 296 297 298 297 296 296 296 297 298 298 298 299 299 301 301 300 298 297 296 295 295 294 292 290 289 288 288 286 287 287 286 285
296 295 294 293 292 293 293 293 295 295 295 295 296 296 295 295 295 297 297 297 297 296 297 297 298 298 297 296 296 298 298 298 298 298 299 301 300 298 295 295 295 295 294 294 295 290 290 288 287 287 287 286 286 286
294 294 294 293 292 292 293 292 292 293 294 294 295 296 295 295 295 296 296 296 297 297 297 297 297 297 297 298 298 298 298 298 298 297 297 299 299 298 296 297 293 292 292 292 290 290 289 288 287 286 286 285 285 285
295 294 294 293 292 292 293 293 293 294 294 294 295 296 296 296 295 296 295 296 297 297 298 296 297 298 298 298 299 299 299 298 298 297 298 301 298 296 293 297 292 290 290 290 290 288 287 286 286 286 286 285 285 285
294 294 293 293 292 292 292 291 293 294 294 294 294 295 295 296 296 295 295 295 295 296 297 295 297 298 298 298 298 298 298 298 297 296 297 299 296 294 296 290 289 289 289 289 289 290 288 287 286 285 286 285 285 284
294 294 294 294 292 292 292 291 291 292 292 293 295 296 296 296 295 295 295 295 295 295 294 293 298 297 298 297 298 298 298 298 296 298 298 299 299 298 293 291 289 289 290 290 289 288 287 286 285 285 285 285 286 284
293 293 294 294 294 294 293 292 291 291 294 296 295 296 295 295 295 295 296 296 295 295 296 294 294 298 298 296 296 297 296 298 300 299 298 299 298 293 292 291 291 290 291 290 288 286 286 285 285 285 285 286 285 284
293 293 293 294 294 292 292 292 292 294 295 294 295 295 295 295 295 295 294 293 293 294 295 294 295 298 298 298 299 296 298 297 299 300 300 300 298 293 292 292 292 291 291 290 289 288 288 288 286 286 285 285 285 283
293 293 293 293 292 291 292 293 293 294 294 295 295 295 295 295 295 293 293 293 294 295 293 295 295 296 298 299 299 297 297 296 298 298 301 301 294 291 292 292 292 291 290 289 289 289 288 287 287 286 285 286 284 282
293 293 293 293 292 292 293 293 293 294 295 295 295 295 295 294 292 290 291 295 294 293 295 295 295 297 298 297 294 295 295 296 295 298 300 297 292 291 291 292 292 290 290 290 289 288 288 287 286 286 286 285 283 281
293 293 293 292 291 291 292 293 294 295 295 294 294 293 290 293 293 291 292 291 293 295 296 297 295 297 296 295 291 295 293 296 296 297 298 294 292 292 292 292 292 291 290 290 290 289 288 287 286 285 285 283 281 281
293 293 293 292 291 290 291 292 293 295 294 294 295 294 293 293 294 295 296 296 296 296 297 297 296 296 294 294 294 293 296 296 295 297 294 292 291 292 292 292 292 292 291 291 290 289 288 287 286 285 282 281 281 280
292 293 292 293 292 290 290 290 292 294 293 293 294 295 294 295 296 298 297 296 297 298 298 297 297 294 294 293 297 293 295 296 296 291 293 292 291 291 291 292 292 291 290 290 289 288 288 287 286 284 282 281 280 279
290 293 292 292 291 290 290 291 293 292 292 293 293 295 296 296 296 297 297 297 297 298 295 295 292 294 294 294 295 293 296 294 292 293 293 292 292 291 291 291 290 289 289 288 288 287 286 285 283 282 282 281 279 279
292 292 292 291 290 290 290 291 292 292 292 293 293 294 295 296 296 296 297 297 297 297 295 296 295 296 295 295 296 292 291 291 293 293 293 292 291 290 290 290 289 289 288 287 286 286 285 283 282 281 281 280 279 279
292 292 290 289 289 289 289 290 292 291 292 293 293 294 295 295 295 295 296 296 296 297 298 296 295 295 295 291 294 295 295 293 292 292 292 292 291 290 289 288 288 288 287 286 286 285 284 282 281 282 281 279 279 279
291 291 289 290 289 288 289 289 291 291 292 292 293 293 293 294 294 294 294 295 296 296 296 294 293 295 296 298 298 297 296 295 294 292 291 291 291 290 289 288 288 287 286 285 285 283 282 281 281 281 280 280 280 279
290 291 290 290 290 291 290 289 289 291 291 292 291 292 292 292 293 293 294 294 295 295 293 296 296 296 297 297 297 297 295 295 295 293 293 291 290 289 289 288 287 286 286 285 284 283 282 282 282 281 281 280 280 280
290 291 290 290 289 290 291 290 291 291 292 292 292 291 291 291 291 292 293 293 294 294 295 295 296 296 296 296 296 296 295 294 293 292 292 291 291 289 288 288 287 286 285 285 284 284 282 281 281 281 280 280 280 279
290 290 290 289 289 289 289 290 291 291 291 292 292 291 289 290 291 291 292 292 293 293 294 294 294 294 295 295 295 295 294 293 292 292 291 290 289 289 288 287 287 286 285 284 283 282 281 281 281 280 280 280 279 279
290 290 289 289 288 286 288 291 291 291 291 290 290 288 287 289 291 291 289 291 293 293 293 293 293 294 294 294 294 293 292 292 291 290 289 288 288 287 287 286 286 285 284 284 282 281 281 281 281 281 280 279 279 278
290 289 289 284 287 287 288 284 288 288 285 288 287 284 288 291 288 287 289 290 291 292 292 292 293 293 293 293 292 292 291 290 289 289 288 287 286 286 285 284 283 283 283 282 281 281 281 281 281 280 280 279 278 276
282 288 285 285 287 287 287 288 287 284 281 283 285 288 291 288 289 287 287 290 290 290 290 290 290 291 292 292 291 291 290 289 288 287 287 286 285 285 285 284 283 282 282 282 281 282 282 281 280 280 279 278 276 275
283 283 288 288 289 288 286 287 288 285 283 284 283 286 284 287 288 286 289 289 290 289 290 290 290 290 290 290 290 290 289 288 287 287 286 285 284 283 284 284 283 283 282 282 282 282 282 281 280 279 278 276 275 273
287 289 286 289 289 290 284 279 280 283 285 290 288 287 285 286 287 289 289 289 289 289 290 290 290 289 289 289 288 288 288 287 287 286 284 284 283 283 282 282 282 282 282 282 282 281 280 280 279 277 276 274 273 273
288 289 289 288 289 289 289 288 287 291 290 290 286 285 286 290 289 290 289 289 288 288 287 288 288 288 288 288 287 287 287 287 286 285 284 283 283 283 283 282 282 282 282 281 281 279 278 277 276 275 273 273 273 272
288 288 288 286 283 287 290 291 289 289 290 290 290 289 289 290 290 289 289 289 288 288 287 287 286 287 287 287 287 286 286 286 285 285 285 284 283 283 282 282 282 281 280 279 278 277 275 274 274 273 273 272 272 272
288 287 287 286 284 286 287 287 287 287 287 288 287 287 288 288 288 289 288 288 287 287 286 286 285 285 286 286 286 286 285 285 285 284 284 284 284 283 282 281 280 279 278 276 275 274 274 274 273 273 272 272 271 270
286 286 285 280 282 283 284 284 284 284 283 284 285 285 285 285 286 285 285 285 284 284 285 285 285 285 286 285 285 285 285 285 284 284 284 283 283 282 281 280 279 276 275 274 274 274 273 273 272 272 272 271 270 269
284 284 283 283 280 280 281 282 282 282 281 281 281 281 282 283 283 282 282 282 282 283 283 284 284 284 285 284 284 284 284 284 283 283 283 282 282 281 280 278 275 274 274 274 274 273 273 273 272 271 271 270 269 269

GFSWCAN_850_thetae_114.txt.gz
Theta_e
296 296 297 297 298 297 297 298 298 298 299 299 298 298 299 300 299 299 298 299 300 300 299 299 299 299 299 300 302 300 301 301 302 305 306 306 305 305 305 303 304 305 307 308 307 308 307 294 297 302 296 292 291 291
295 295 296 296 297 297 298 298 298 299 300 299 299 299 299 299 299 299 298 298 299 300 297 298 297 297 298 298 300 300 301 302 303 305 304 304 303 303 304 305 300 304 302 304 301 301 293 293 294 293 293 291 290 289
295 295 295 295 296 296 296 297 298 299 299 298 298 298 298 298 299 299 298 298 298 297 297 297 297 297 298 298 300 301 300 301 301 302 303 303 303 303 304 303 301 299 296 298 298 294 293 291 291 292 291 290 289 287
294 294 294 295 297 297 297 296 296 296 297 297 298 298 298 298 298 298 299 298 298 298 299 297 297 297 296 297 297 299 300 299 301 302 303 303 303 303 303 302 302 299 297 297 294 292 291 291 290 289 288 287 286 285
292 291 292 295 296 296 296 296 296 296 296 295 295 295 296 298 298 298 297 297 297 299 299 298 297 296 297 298 298 299 300 300 301 303 303 302 300 301 300 300 301 297 298 299 302 294 295 291 289 288 287 286 286 285
293 293 293 294 295 295 295 295 296 296 296 295 295 295 296 297 298 298 297 297 297 298 298 300 297 298 298 299 299 299 299 299 301 302 302 301 301 302 303 304 295 294 293 294 294 292 292 289 288 288 287 286 286 286
292 292 293 293 293 293 294 295 295 296 295 295 295 296 296 297 297 296 298 297 297 297 299 299 299 298 299 299 299 299 299 299 300 301 302 302 302 300 303 304 294 292 291 292 291 290 289 288 288 288 287 286 286 285
293 292 293 293 292 293 294 294 294 295 295 295 295 295 295 295 295 296 296 297 297 297 299 300 299 299 298 299 300 299 300 300 299 300 301 302 301 301 302 294 292 291 291 291 291 291 290 289 288 287 287 286 285 284
293 292 292 291 292 293 293 294 294 294 295 295 296 295 295 295 296 295 295 295 295 297 299 299 300 301 299 299 300 300 300 301 299 301 302 301 302 303 300 293 292 291 292 291 290 290 289 288 288 287 286 285 285 283
293 292 292 292 291 291 292 293 294 295 296 296 296 296 295 295 295 295 295 296 296 297 298 300 298 300 300 301 301 301 301 301 302 302 301 302 302 296 295 294 293 292 292 290 290 289 289 288 287 287 286 286 284 282
294 294 294 292 292 291 291 292 294 295 295 295 296 295 295 295 295 296 297 298 297 299 298 298 299 301 299 302 302 301 302 301 301 302 301 302 303 298 294 293 292 292 291 291 291 290 289 288 287 286 285 284 283 281
294 294 292 292 292 292 292 294 295 294 295 295 296 295 295 296 296 297 296 296 299 299 297 300 299 300 300 300 302 300 301 301 302 300 302 302 301 295 294 293 292 292 290 290 290 289 289 287 286 286 284 283 283 283
293 292 291 291 293 293 293 294 295 295 295 296 296 295 296 295 298 298 297 298 299 298 297 298 300 300 300 300 300 300 300 301 299 300 302 302 296 294 294 293 292 291 290 289 288 288 287 286 286 286 286 285 283 283
293 293 291 292 293 293 293 294 295 295 296 295 296 296 296 297 297 298 299 299 295 297 298 300 299 301 299 300 299 300 299 299 301 301 302 301 295 293 292 292 291 290 289 289 288 288 287 287 286 286 285 285 283 282
293 292 291 290 292 292 293 295 295 295 295 296 297 297 297 296 296 295 296 296 295 297 299 299 299 299 299 299 299 299 299 300 301 302 302 297 294 292 292 292 291 290 289 290 289 288 287 287 286 285 284 282 281 281
293 293 292 290 290 291 292 294 294 294 294 295 296 297 296 299 298 297 297 297 296 297 298 299 299 298 297 299 299 299 300 301 303 300 296 292 291 292 292 292 292 291 290 290 290 288 288 287 286 285 282 281 281 280
292 293 293 291 291 291 291 293 293 293 294 295 296 295 296 297 297 297 297 297 297 299 300 299 300 298 297 298 299 299 302 302 297 295 293 291 291 291 292 292 292 291 291 290 289 288 287 286 285 283 282 281 280 279
292 292 291 290 291 291 292 292 292 293 294 294 297 295 295 296 296 297 297 297 297 298 298 299 298 299 300 301 301 301 297 293 292 292 291 291 291 291 291 291 291 290 289 289 288 287 286 285 284 281 281 281 279 279
292 290 289 289 290 290 290 291 292 293 293 293 294 294 295 295 295 295 296 296 297 297 298 297 299 300 301 300 301 297 295 293 292 291 292 291 291 290 290 290 289 289 288 288 287 287 286 284 282 281 282 280 279 279
291 290 290 290 289 289 289 290 291 293 294 293 293 294 293 294 294 294 295 296 296 297 298 299 300 300 300 298 298 297 296 295 294 291 290 291 290 290 289 289 288 288 287 286 285 285 284 282 281 281 281 279 280 279
291 290 290 290 290 290 290 290 291 292 292 293 292 292 293 293 294 294 294 295 295 297 298 297 296 296 296 297 297 297 296 295 294 293 293 290 290 289 289 288 288 287 287 286 285 284 283 281 281 281 280 279 280 279
291 291 290 290 289 290 291 290 292 291 293 292 292 292 292 293 293 293 293 294 295 296 296 295 295 296 296 296 296 296 295 295 294 293 292 291 291 290 289 288 287 286 285 285 285 284 282 281 281 281 280 280 280 280
290 290 290 289 289 290 289 290 292 291 292 293 292 292 293 293 292 291 293 294 295 293 294 294 294 295 294 294 295 295 294 293 293 292 291 291 290 289 288 288 287 286 285 284 283 283 282 281 281 281 281 280 280 279
290 290 289 288 289 289 289 291 292 291 291 292 293 292 293 292 291 292 294 295 293 293 293 293 293 293 293 294 294 293 293 292 292 291 290 290 289 288 287 287 287 286 285 285 284 282 281 281 281 281 280 280 279 279
290 289 289 287 288 289 290 292 292 292 292 291 291 293 292 291 293 293 294 294 291 291 291 292 292 292 292 292 292 292 291 291 290 290 289 288 287 287 286 286 286 285 285 284 282 282 281 281 281 281 281 280 279 278
289 287 289 288 288 289 289 290 291 292 292 292 292 291 291 293 293 294 294 291 290 289 290 290 290 290 291 292 291 291 291 290 289 288 288 287 286 285 285 285 284 284 284 283 283 281 281 281 281 281 280 279 278 276
289 289 288 288 289 288 289 288 289 291 291 292 293 292 293 293 294 293 289 289 289 289 290 290 290 290 290 291 290 290 290 289 288 288 287 286 285 284 283 284 283 283 283 282 281 281 282 282 281 280 279 278 277 275
288 288 290 289 289 290 291 291 292 292 294 292 292 292 293 293 295 290 290 290 290 290 290 290 290 290 290 289 289 289 288 287 287 286 285 284 284 283 283 283 283 282 282 281 281 282 282 281 280 279 278 277 275 273
288 288 289 288 290 291 291 292 293 292 290 291 294 294 292 290 290 290 290 290 289 289 287 288 288 288 288 288 288 287 287 287 286 285 284 283 283 283 283 282 282 282 282 282 282 281 281 280 279 278 276 274 273 272
288 288 289 287 289 292 292 291 290 290 289 289 289 290 290 291 291 290 290 289 288 288 287 286 286 287 287 287 287 286 286 286 285 284 284 283 283 283 283 282 282 282 282 282 281 280 279 277 276 274 273 273 272 272
287 286 288 288 289 287 288 288 288 288 288 288 288 287 288 289 289 289 289 289 288 287 286 286 286 286 286 286 286 286 285 285 285 284 284 284 283 283 282 282 281 281 280 279 278 277 276 274 274 273 272 272 272 271
286 288 288 288 287 285 285 284 284 284 283 283 285 285 285 285 286 286 286 285 284 284 284 285 285 285 285 285 285 285 285 285 285 284 284 284 283 282 282 281 280 278 276 275 275 274 274 273 273 273 272 271 270 270
284 284 284 285 284 284 282 283 284 284 282 283 282 280 280 283 285 282 282 282 283 282 283 283 284 284 285 285 284 284 284 284 284 284 283 283 282 281 281 280 277 275 274 274 274 273 273 273 273 272 271 270 270 269

GFSWCAN_850_thetae_117.txt.gz
Theta_e
297 297 301 305 304 306 305 301 300 300 300 300 300 304 304 303 302 302 302 303 304 303 302 302 303 303 303 303 304 303 303 303 304 305 308 308 309 308 309 308 308 309 310 310 308 311 311 298 300 303 299 297 297 297
297 298 298 301 303 303 303 302 302 303 303 302 302 302 302 301 300 302 301 302 301 302 302 301 301 302 302 303 303 302 304 304 304 306 308 308 307 306 308 308 304 307 306 307 304 303 296 296 298 297 296 296 295 293
297 298 298 297 297 298 298 298 298 299 299 299 299 300 300 300 301 299 300 301 300 300 300 301 300 299 300 302 303 303 303 304 305 306 306 306 305 306 308 307 305 302 300 304 301 297 295 295 295 296 295 294 293 291
297 298 298 298 298 298 298 298 299 299 299 299 299 298 298 298 299 299 300 301 300 300 301 299 299 299 300 300 302 304 304 303 304 305 304 305 305 305 306 306 305 303 301 301 298 295 294 294 294 293 292 291 290 289
296 297 297 297 297 298 298 297 297 298 298 298 298 298 298 299 299 299 300 300 300 300 300 299 299 299 300 301 301 302 304 304 305 305 304 304 303 303 303 305 305 301 303 302 305 296 297 294 292 291 290 289 289 288
296 296 296 296 296 296 297 296 296 296 296 297 298 298 298 298 298 299 299 300 299 298 298 301 298 299 299 300 301 302 303 303 304 305 303 303 302 303 304 306 299 297 296 297 297 296 294 291 291 291 290 289 289 288
294 295 295 296 296 296 295 295 295 295 295 297 297 298 298 298 299 300 301 299 300 300 299 300 300 299 300 300 300 300 301 302 303 304 304 303 303 302 304 305 297 295 294 296 295 293 291 291 291 290 290 289 289 288
293 293 294 295 295 296 295 295 296 296 296 297 297 297 297 297 298 298 298 298 300 300 301 302 301 300 300 300 301 301 301 301 301 302 303 304 303 303 303 298 295 294 294 294 293 294 292 292 290 290 290 289 288 288
293 293 293 294 294 295 295 295 295 295 295 296 296 296 296 299 298 297 296 296 298 301 301 301 302 302 301 301 301 301 301 303 301 303 303 303 305 304 303 296 294 294 294 293 293 293 292 291 291 290 290 289 288 287
291 292 293 293 294 294 295 295 296 295 295 295 296 296 296 298 295 296 300 297 301 301 300 303 301 302 301 301 302 302 301 303 304 303 302 303 305 300 299 297 295 294 295 294 293 293 292 291 291 290 289 289 288 286
292 291 291 292 293 294 295 295 296 296 296 299 299 298 296 296 299 300 301 301 301 301 300 300 300 303 301 303 303 302 303 302 301 304 302 303 304 301 298 297 296 295 294 293 293 293 292 291 291 290 289 288 286 284
292 292 292 291 291 292 294 295 295 296 296 297 297 298 298 299 299 301 300 300 301 301 300 302 301 301 302 302 303 303 302 303 304 302 302 303 302 298 297 296 295 294 293 293 293 292 291 291 290 289 288 287 284 283
291 293 293 293 293 294 295 295 295 296 297 298 299 297 299 298 301 302 300 301 301 300 301 301 303 302 302 302 302 302 302 303 302 302 303 304 300 298 296 295 294 293 292 291 292 291 290 289 288 287 286 284 285 284
292 293 293 293 293 294 295 296 296 296 299 299 299 298 300 300 299 300 303 302 299 300 302 302 302 302 301 302 302 302 301 301 302 303 304 304 298 296 295 294 293 292 290 290 289 289 288 287 287 286 286 286 284 283
291 291 292 293 294 294 295 295 296 296 298 298 298 299 299 298 297 296 297 298 300 301 301 301 301 301 301 301 301 301 300 302 302 304 303 298 296 294 294 293 292 291 289 289 288 287 287 287 286 286 285 284 283 281
292 291 291 291 293 295 295 295 296 296 297 297 297 300 299 299 298 298 298 299 300 301 301 301 301 300 299 301 301 302 302 302 304 301 296 294 294 293 293 292 291 290 290 289 289 288 287 287 286 286 285 283 281 281
293 292 291 291 291 294 294 294 294 295 296 297 297 296 298 298 298 297 299 300 301 301 302 301 302 299 300 300 301 302 303 301 297 295 294 293 292 292 292 291 291 290 290 290 289 288 287 286 286 285 283 281 281 280
292 291 291 291 292 294 293 293 295 296 296 297 298 296 296 297 297 298 299 300 300 300 300 300 300 300 302 302 303 303 298 294 294 293 293 292 292 291 292 292 291 290 290 290 289 288 287 286 285 283 282 281 280 279
291 290 290 291 291 292 293 293 295 295 295 296 296 296 296 296 297 297 298 299 299 299 300 300 302 302 302 302 300 297 297 296 294 293 291 291 291 291 291 291 291 290 290 290 289 288 287 286 283 281 281 281 280 279
290 290 290 290 290 292 293 293 294 295 295 295 295 295 296 295 296 295 297 297 298 299 299 301 302 301 301 300 300 299 297 295 295 294 292 289 290 290 290 290 289 289 288 287 286 286 285 282 282 281 281 281 282 281
290 290 290 291 293 293 293 293 293 293 294 294 294 295 295 295 296 296 297 296 297 299 300 300 299 296 296 297 296 296 295 296 297 297 296 291 289 289 289 287 287 287 285 285 284 283 282 283 282 281 281 282 282 282
291 290 290 290 292 292 292 292 293 293 294 293 294 293 294 295 295 295 295 296 298 299 298 298 298 297 296 296 295 295 295 294 294 293 292 292 289 289 288 287 286 286 286 285 284 283 283 283 282 282 282 282 281 281
290 290 290 291 291 292 291 292 293 293 294 294 293 294 294 294 293 293 295 297 298 296 295 295 294 295 295 294 294 295 294 293 293 292 291 292 291 289 288 287 287 287 286 285 285 284 284 283 282 282 282 280 280 279
290 290 289 291 291 291 291 292 292 292 293 294 295 294 294 293 292 294 297 298 297 293 293 293 293 293 293 294 294 292 293 292 291 291 290 290 289 287 287 286 286 286 286 285 285 284 283 282 281 281 280 280 279 279
291 290 291 291 290 292 292 293 293 293 294 293 294 295 293 292 295 296 297 298 295 293 292 292 292 292 293 293 292 291 291 291 291 290 290 288 288 286 285 285 285 285 285 284 283 283 282 282 281 280 280 280 279 278
291 289 291 291 291 292 292 293 293 293 294 294 294 293 292 295 295 296 296 293 293 291 291 291 291 291 292 292 292 291 291 291 290 289 286 286 286 286 285 284 283 282 283 283 283 282 282 280 280 280 280 279 279 278
291 291 291 289 291 291 292 291 292 293 293 294 295 293 294 294 296 296 292 290 290 290 290 290 290 290 290 290 291 290 290 289 288 287 286 285 284 284 285 285 284 284 283 282 282 282 281 280 280 280 279 279 278 276
291 290 292 291 290 291 293 293 293 294 295 294 294 294 295 295 297 292 290 290 290 290 290 290 290 290 289 289 289 289 289 288 287 287 286 285 285 284 284 284 283 283 282 281 281 281 281 281 281 280 279 279 277 275
290 290 291 291 291 292 292 294 294 294 293 294 295 296 295 292 290 290 290 291 290 290 289 289 289 289 289 288 288 288 287 287 285 284 285 283 282 283 283 282 282 282 281 281 281 281 281 281 280 280 279 278 276 274
290 290 291 291 291 292 293 292 292 291 290 290 290 291 291 290 291 291 290 290 289 288 287 287 286 286 286 286 287 286 286 286 284 285 285 284 283 283 282 282 282 282 282 282 282 281 281 280 280 278 277 274 273 273
289 289 290 291 292 291 288 288 289 289 289 288 288 288 291 290 289 290 289 289 288 287 287 286 285 285 285 285 285 285 285 285 285 285 284 284 283 283 282 282 282 282 282 281 281 280 279 278 276 275 274 273 273 272
289 290 291 291 291 287 287 286 288 288 289 288 289 286 285 286 289 286 286 285 284 284 283 284 284 284 285 284 284 285 285 285 285 284 284 284 283 283 282 282 281 281 280 279 278 277 275 274 274 273 273 273 272 271
288 288 288 288 289 288 287 286 288 288 287 287 287 285 285 286 288 281 282 283 283 282 280 281 283 284 284 284 284 284 285 285 284 284 284 283 283 282 281 281 279 278 276 276 275 274 274 273 273 273 272 271 270 270

GFSWCAN_850_thetae_120.txt.gz
Theta_e
298 302 303 303 304 301 298 299 299 299 298 297 297 296 296 298 297 297 303 305 306 307 307 308 308 307 305 305 306 305 304 304 305 306 306 306 310 311 310 309 307 307 307 308 307 309 310 301 301 303 301 300 300 298
298 301 302 304 308 307 301 299 299 299 299 299 298 297 298 297 298 300 304 304 305 305 304 304 304 304 304 304 305 304 304 304 305 305 307 310 310 309 309 309 308 309 308 308 303 304 298 299 300 300 299 299 297 294
298 300 300 301 307 307 302 298 299 299 300 299 298 298 298 298 299 302 302 304 305 302 301 302 302 303 304 304 304 304 305 304 305 305 309 308 308 307 308 308 308 305 303 305 302 298 297 297 298 298 297 295 294 292
297 298 300 300 301 300 299 300 300 300 299 299 299 299 300 299 301 302 303 304 304 302 302 300 301 301 303 304 304 305 304 305 306 307 307 307 308 306 308 308 307 305 302 303 299 297 295 296 296 295 293 293 291 291
298 298 297 299 300 300 300 300 300 300 300 300 301 301 301 301 302 302 302 301 303 301 301 300 300 301 301 301 304 304 304 305 305 306 306 306 305 305 305 306 307 303 304 303 305 298 298 296 294 293 292 291 290 290
296 297 298 298 298 298 298 299 300 300 300 300 300 300 300 301 301 301 301 301 301 300 300 301 300 301 302 303 303 304 305 306 305 306 305 304 303 304 306 306 301 299 298 300 300 297 296 294 292 292 291 291 290 290
295 295 296 297 297 298 298 298 299 299 299 299 299 300 299 300 300 300 301 301 300 300 300 301 300 301 301 302 302 303 303 304 305 305 305 303 304 303 305 305 299 296 296 298 296 294 293 292 292 291 291 291 290 289
295 296 296 296 296 296 297 297 298 298 298 299 299 300 300 300 300 300 300 300 300 301 301 304 301 301 301 301 301 301 302 302 303 304 304 305 303 303 303 300 296 295 297 296 295 295 293 292 292 291 291 290 289 288
295 295 295 296 296 296 296 297 297 298 298 298 299 299 299 299 299 300 300 301 302 302 303 302 303 302 301 302 301 303 302 305 302 304 304 304 306 306 304 299 296 295 296 295 295 294 293 292 292 291 291 291 289 288
294 295 296 295 295 295 296 296 296 297 298 297 298 297 298 298 298 298 300 297 303 301 302 304 301 303 303 302 302 302 302 304 303 304 304 303 305 302 302 299 296 296 296 295 295 294 293 292 292 291 291 291 289 287
293 294 295 295 295 295 295 295 296 296 297 297 299 298 299 299 301 301 302 303 302 302 302 303 302 304 302 306 304 303 304 303 302 304 303 303 304 302 300 298 297 297 296 295 295 294 293 292 292 291 291 290 289 286
291 292 293 294 295 296 296 296 296 297 299 299 297 298 300 301 301 301 301 302 303 301 301 304 303 302 304 303 303 303 302 303 303 304 303 302 302 301 299 298 296 296 295 295 295 293 293 292 292 291 290 289 287 285
293 293 294 294 295 295 295 296 297 297 298 299 299 299 300 300 302 302 300 302 302 302 303 302 304 302 303 303 302 303 303 304 302 302 303 304 300 299 298 296 295 295 294 294 293 293 292 291 291 290 289 287 286 285
293 293 294 294 295 296 296 296 298 299 301 300 300 299 302 300 299 301 304 303 301 302 303 303 303 302 302 302 304 302 302 302 302 303 304 303 300 297 296 295 294 293 292 292 292 291 291 290 289 289 288 287 286 284
293 293 294 294 295 295 296 296 297 297 299 299 299 300 300 297 297 298 300 302 302 302 302 303 303 302 303 301 302 300 300 301 302 304 302 298 297 296 295 294 293 292 291 291 291 290 290 289 288 288 287 286 284 283
291 292 293 295 295 295 296 296 297 298 298 298 298 300 298 299 299 300 301 302 302 302 302 301 302 300 301 302 301 302 302 303 303 299 296 295 295 295 294 294 293 292 290 290 289 289 288 288 287 287 286 285 283 282
292 291 292 294 294 295 295 296 296 297 297 298 298 297 298 297 298 299 301 302 302 302 303 302 302 300 301 301 301 303 303 300 297 295 294 294 294 294 293 293 292 291 289 289 289 288 287 287 287 286 285 283 282 281
293 291 291 293 295 295 296 297 297 297 297 297 299 297 297 297 298 298 300 300 300 300 301 301 301 301 303 302 303 301 296 294 294 293 292 292 293 292 292 292 291 290 290 290 289 288 287 287 286 285 284 282 281 280
290 290 291 292 294 295 295 296 297 297 297 296 297 298 297 297 297 298 299 299 300 300 301 301 302 303 303 301 299 296 295 295 293 292 291 291 291 291 290 291 290 290 290 290 289 289 288 286 285 284 283 281 281 280
291 290 290 291 294 295 295 295 296 296 296 296 297 296 296 296 297 297 298 298 299 300 301 302 302 300 300 299 298 297 296 295 293 292 290 291 290 290 290 290 290 290 289 289 288 288 286 284 282 282 282 281 281 280
290 291 292 294 294 294 294 295 294 295 295 295 295 296 296 297 297 298 298 297 299 300 301 300 298 297 297 297 297 297 296 296 296 296 294 290 289 289 289 289 289 289 289 288 287 287 286 283 282 282 281 281 282 282
290 290 293 291 293 293 293 294 294 294 295 295 295 294 295 296 296 296 296 297 299 298 298 298 298 298 296 296 296 296 295 295 295 294 294 292 290 289 289 288 287 287 286 286 286 285 284 283 282 282 281 283 283 282
290 291 292 292 292 292 292 294 294 294 296 295 294 295 295 294 294 294 296 298 298 296 296 296 295 295 295 294 294 294 294 294 294 292 292 292 291 290 289 288 288 287 287 286 285 285 284 283 282 282 283 283 282 281
290 290 290 292 292 292 292 293 293 293 294 295 296 295 294 294 293 296 298 300 297 295 295 294 295 295 294 294 294 292 292 293 292 292 291 291 290 289 288 288 287 287 287 287 286 285 285 283 283 283 283 282 281 279
291 290 292 292 292 293 293 294 294 294 295 294 295 296 294 293 297 298 298 298 295 293 292 292 294 293 293 293 292 291 291 291 291 291 290 290 290 288 287 287 286 286 287 286 285 285 284 284 283 283 282 281 280 279
292 291 292 292 292 293 293 293 294 294 295 295 295 294 293 296 296 297 297 293 293 291 291 291 291 292 292 292 292 291 291 291 290 290 288 288 287 287 286 285 285 285 285 285 285 284 284 283 282 282 281 281 280 279
292 292 291 291 292 292 293 293 293 294 294 294 295 294 294 295 296 297 293 291 290 290 290 290 290 290 290 290 290 290 290 290 289 288 287 286 286 286 286 285 285 284 284 284 284 284 283 282 282 281 281 280 279 278
291 292 293 291 292 292 293 293 293 294 295 295 294 294 294 296 297 292 291 290 290 290 290 290 290 289 289 289 289 289 289 288 288 287 287 286 285 284 284 285 285 284 283 283 283 283 282 282 281 281 280 279 278 277
291 291 291 291 292 292 293 294 295 295 293 295 295 296 296 293 291 290 290 290 290 289 289 289 289 289 289 288 288 288 288 286 285 284 285 283 282 282 283 283 282 282 282 282 282 281 281 281 280 280 279 279 278 277
291 291 292 291 292 293 294 292 292 291 291 291 292 293 292 291 291 290 290 290 289 288 288 287 287 286 287 286 286 286 285 285 285 286 286 284 284 282 282 282 281 281 281 281 281 281 281 281 280 280 279 278 276 274
290 290 291 292 292 292 290 289 289 289 289 290 290 290 292 290 289 289 289 289 288 288 287 286 286 286 285 286 285 285 284 285 285 285 285 285 284 283 282 282 282 282 281 281 281 281 280 280 279 278 276 274 274 273
290 291 292 292 293 289 288 288 289 289 290 289 290 289 288 288 290 284 284 285 283 283 284 284 285 285 285 285 285 285 285 285 285 284 284 284 283 283 282 282 282 281 281 281 280 280 279 278 276 274 274 273 273 272
290 289 290 290 290 289 289 288 289 289 290 289 289 288 287 287 287 281 281 282 282 282 282 282 283 283 283 283 283 284 284 284 284 284 284 283 283 282 282 281 281 280 279 278 277 276 275 274 274 274 273 273 272 271

GFSWCAN_850_thetae_123.txt.gz
Theta_e
298 299 300 300 299 299 298 297 297 297 297 296 296 295 294 295 295 296 298 300 304 305 306 307 308 307 308 305 303 304 303 303 304 304 305 305 305 304 309 308 305 306 304 304 304 307 307 301 301 303 300 301 300 297
300 300 300 300 300 301 301 298 298 298 298 297 296 295 295 295 296 296 298 299 303 305 304 305 304 307 308 306 305 304 304 304 304 304 304 304 305 305 307 310 306 306 304 303 303 301 298 299 300 300 300 299 297 298
300 302 306 305 307 302 301 298 298 299 298 297 296 295 294 294 295 296 297 300 302 304 302 304 304 305 305 305 305 304 304 303 304 304 305 306 306 306 307 306 305 303 303 300 298 297 297 298 298 298 299 298 297 297
300 301 303 304 303 301 299 299 298 298 297 297 297 295 295 295 295 296 297 302 303 302 301 301 302 303 304 304 305 304 304 304 304 305 305 303 305 306 303 304 304 301 301 299 297 296 296 296 297 296 296 296 294 293
299 299 299 299 299 299 300 299 298 298 298 297 296 296 295 295 296 297 298 302 304 303 301 300 301 301 304 305 305 304 305 305 306 304 303 303 303 302 300 301 299 301 296 297 295 296 296 295 295 295 294 292 291 290
299 300 300 299 299 300 300 299 299 298 298 297 297 296 296 297 298 299 301 302 302 302 300 299 300 301 302 303 304 304 304 305 305 305 303 304 303 303 299 300 300 299 298 300 299 299 297 295 294 293 293 291 290 289
298 299 299 300 299 300 300 300 299 299 299 298 298 298 298 298 299 301 301 302 301 301 300 300 300 301 302 303 304 304 305 305 305 305 303 303 303 302 301 297 298 298 297 298 298 296 293 293 292 292 292 291 290 289
298 298 298 300 300 299 299 299 299 299 299 298 298 299 300 300 301 301 300 300 301 300 300 300 301 301 302 302 302 303 302 303 303 304 303 302 302 302 295 298 297 296 296 296 296 295 294 293 292 291 291 290 289 289
297 298 298 298 299 300 300 300 301 300 300 301 300 299 299 300 300 300 300 300 301 301 301 300 300 300 301 302 301 302 301 298 301 300 301 302 298 298 297 298 296 296 296 295 295 294 292 292 291 291 291 289 288 287
295 296 298 298 298 299 299 299 299 300 300 299 299 299 299 300 300 301 301 301 301 302 301 300 301 301 301 301 301 301 302 300 299 299 303 298 296 302 302 300 297 296 296 295 294 293 292 292 291 291 290 289 288 287
295 295 296 297 298 298 299 299 299 299 299 298 298 299 300 300 299 298 301 301 302 300 302 301 301 302 302 299 298 302 297 297 300 300 299 298 298 298 300 298 296 296 296 295 295 293 293 292 291 291 291 290 288 287
295 295 295 296 296 297 298 298 299 299 297 298 299 300 300 301 301 300 299 300 301 300 301 300 301 303 303 303 300 301 299 297 299 300 296 296 300 300 298 297 296 296 295 295 295 294 292 292 292 291 291 290 288 286
295 295 295 296 296 296 297 297 297 297 298 298 298 300 299 299 297 298 297 300 298 301 302 303 300 303 303 302 301 298 297 296 301 292 296 298 300 299 298 297 296 295 295 295 294 293 293 292 292 291 291 289 288 286
294 295 296 296 297 298 298 299 298 297 298 299 299 295 297 298 297 301 300 298 301 302 302 302 302 300 302 297 296 295 297 297 295 295 302 299 299 298 297 296 295 294 294 293 293 293 293 292 291 291 290 289 288 286
294 295 295 296 296 296 297 297 297 297 298 299 299 297 296 297 298 300 302 302 302 302 302 301 300 301 296 296 296 296 297 295 296 298 299 298 298 297 296 295 295 294 293 292 292 292 292 291 291 290 289 288 288 286
294 295 295 295 296 296 296 297 297 298 298 298 298 297 298 299 300 301 301 302 302 302 301 300 297 294 297 297 298 296 299 299 300 297 297 296 296 295 295 294 294 293 292 292 291 291 290 290 290 289 288 288 287 284
294 292 293 295 296 296 297 297 297 298 298 298 298 298 298 298 299 300 301 301 302 301 296 298 297 299 297 297 299 298 298 298 296 295 294 294 294 294 294 294 293 292 291 290 290 290 289 289 288 288 287 286 284 283
291 291 294 294 296 296 297 296 297 297 297 297 297 297 297 298 299 299 299 300 300 300 300 299 300 300 295 299 296 297 295 294 294 292 292 292 293 294 293 292 292 291 290 289 289 288 288 287 287 286 285 284 282 280
291 291 292 294 295 295 296 296 297 297 297 297 297 297 297 297 297 298 299 299 300 300 301 301 299 297 298 298 297 295 294 294 292 291 290 291 292 292 292 291 291 291 290 290 290 289 287 286 286 286 284 283 282 280
290 291 293 293 294 295 295 294 295 296 296 296 296 296 296 296 298 298 298 299 299 300 300 298 299 299 298 298 297 295 294 293 292 291 290 290 290 290 290 290 290 290 290 289 289 288 287 285 284 285 284 283 281 280
291 291 293 294 293 294 294 295 294 295 295 295 295 296 296 296 297 297 296 298 300 300 296 298 297 297 297 297 296 295 295 295 295 295 294 290 290 289 289 289 289 289 289 289 288 288 287 286 285 284 283 281 281 280
290 291 291 291 292 293 293 294 294 295 295 295 294 295 296 296 296 295 296 298 298 297 298 297 296 296 295 296 296 296 296 296 295 295 293 292 289 289 288 288 288 288 288 288 288 288 287 285 284 283 282 281 281 280
290 289 291 292 291 292 292 294 294 295 294 294 294 295 294 294 294 295 296 298 296 295 296 296 296 296 295 294 294 294 294 294 293 292 292 291 290 289 289 288 287 287 287 286 286 286 285 283 283 282 281 283 282 282
289 290 291 292 292 290 292 293 293 293 294 295 294 294 293 294 294 296 298 297 295 294 295 295 294 294 294 293 292 292 293 293 292 291 291 291 290 289 289 288 287 287 288 287 286 285 284 283 283 282 282 283 283 282
290 290 292 286 292 291 289 290 290 292 291 294 292 292 293 293 293 292 295 295 294 292 292 293 293 293 293 292 292 291 291 291 291 290 290 290 290 289 288 287 287 287 287 287 286 285 284 284 283 283 283 283 282 281
286 291 289 292 289 290 292 288 289 290 290 289 291 293 293 292 290 293 294 292 291 290 290 290 291 291 291 292 292 291 290 290 290 290 289 288 288 288 287 287 286 286 287 287 286 285 285 284 283 283 283 282 281 280
286 288 291 292 292 292 290 293 293 290 289 288 289 289 288 288 290 293 291 289 289 289 289 289 290 290 290 290 290 290 290 289 289 289 288 287 287 287 287 286 285 285 285 286 285 285 284 284 283 283 282 281 280 280
291 292 287 291 291 292 288 288 288 288 290 295 293 288 289 290 292 291 289 289 289 289 288 289 288 288 288 288 288 289 289 288 288 287 287 286 285 285 285 285 285 285 284 284 284 284 284 283 282 282 281 281 280 279
291 290 291 290 291 292 293 290 292 293 293 294 289 292 294 290 290 289 288 289 289 288 288 288 288 288 288 288 287 287 287 286 285 285 285 284 284 283 283 283 284 283 283 283 283 283 282 282 282 281 281 280 279 279
291 290 292 291 285 289 291 290 291 290 290 291 292 292 291 290 289 289 288 288 287 287 288 288 287 287 286 286 286 285 285 285 286 286 286 285 284 282 282 282 282 282 282 282 282 282 281 281 281 280 280 279 278 278
289 289 290 291 291 291 290 289 289 288 289 289 290 290 291 290 287 287 288 287 286 285 286 286 286 286 286 286 286 284 284 284 285 285 285 285 284 284 283 282 281 281 281 281 281 281 281 280 280 279 279 278 275 274
289 290 292 291 292 289 288 288 288 289 290 290 289 289 289 288 287 284 283 284 283 284 284 284 286 286 285 285 285 285 285 285 285 285 285 284 284 283 282 282 281 281 281 281 280 280 280 280 279 278 275 274 273 273
290 289 289 290 290 290 289 288 289 290 290 289 289 287 287 287 283 281 281 282 282 282 282 283 283 283 284 284 284 284 284 284 284 284 284 283 283 282 282 282 281 281 280 280 280 279 278 276 275 274 273 273 272 271

GFSWCAN_850_thetae_126.txt.gz
Theta_e
297 297 297 297 296 295 294 294 294 293 293 293 293 292 294 295 294 294 295 296 297 302 304 304 305 305 305 305 301 303 303 303 300 303 303 303 304 306 307 307 306 306 305 305 305 305 304 301 302 302 299 299 297 295
299 299 299 297 297 297 297 297 295 294 294 294 293 292 293 295 295 295 296 296 298 298 303 304 305 306 305 306 305 304 303 302 302 301 302 304 304 304 305 307 306 306 303 301 301 301 297 299 300 300 300 299 297 296
299 300 301 301 300 300 298 297 298 296 295 294 294 294 295 295 295 295 296 297 298 299 302 303 304 305 306 307 307 304 303 304 304 304 304 305 305 303 306 306 305 303 302 301 300 298 297 299 299 299 300 300 298 298
299 301 303 305 306 300 300 299 298 298 297 295 295 294 295 295 295 295 296 298 298 299 300 301 303 304 305 305 305 305 304 304 304 303 304 304 304 304 302 304 305 300 301 299 297 294 296 297 298 298 299 298 298 296
300 299 301 303 303 300 300 300 298 298 297 297 295 295 295 295 295 296 296 298 298 301 300 301 302 304 304 305 304 304 304 303 304 303 301 302 302 301 298 301 300 299 297 297 297 296 296 295 296 297 298 297 296 295
299 300 299 299 299 299 299 298 298 297 298 297 296 296 296 295 295 296 297 297 300 301 300 300 301 303 305 304 304 303 304 304 305 304 301 303 303 301 295 298 298 299 300 299 299 299 297 297 296 296 296 295 294 293
299 299 298 298 298 299 299 298 298 297 297 297 297 296 295 295 296 297 298 298 298 300 299 299 300 301 303 304 304 305 305 305 305 304 302 301 302 302 295 294 297 299 298 298 299 297 294 295 293 294 294 293 291 290
299 299 299 298 298 298 297 297 298 297 297 296 296 294 295 295 296 297 300 300 299 299 300 296 300 301 301 302 301 303 303 304 303 304 302 300 301 300 295 294 298 297 297 297 297 296 296 295 293 292 292 291 290 289
298 299 299 298 297 297 297 297 297 296 296 295 295 296 297 297 298 299 300 301 301 301 299 298 299 300 302 302 302 302 301 301 302 299 300 300 295 298 296 297 297 296 297 296 295 295 294 293 292 291 291 290 289 288
300 300 299 299 298 297 297 297 296 296 296 297 298 298 299 298 299 300 300 300 301 302 300 298 300 298 301 300 300 300 300 299 299 298 302 297 296 301 302 302 300 297 296 295 294 292 291 291 291 291 290 290 289 288
299 299 300 299 299 298 298 298 298 299 299 299 299 299 299 300 299 298 299 300 300 299 300 300 301 301 301 301 300 300 297 297 300 299 299 296 296 296 300 299 298 296 296 296 295 295 293 292 291 291 290 289 288 287
297 298 299 299 299 299 299 299 299 299 299 300 299 300 299 301 300 298 296 298 299 300 300 299 301 301 302 302 299 299 299 296 298 296 295 294 295 299 298 297 296 296 296 295 295 294 293 292 291 291 290 289 287 286
296 297 298 298 298 299 299 299 300 300 300 299 299 300 299 298 295 295 296 298 296 298 301 302 299 303 301 302 298 297 295 295 296 289 295 294 298 298 298 296 296 296 295 295 295 294 293 292 292 291 290 289 288 287
296 296 296 297 298 299 299 299 299 298 297 299 297 295 296 293 296 298 299 298 300 301 301 302 300 300 300 297 293 293 295 295 291 293 298 293 298 299 298 296 296 295 295 295 294 294 293 292 292 291 291 290 289 288
296 297 297 298 298 298 299 298 298 298 298 299 298 295 294 296 298 298 300 301 301 302 301 300 298 299 294 294 294 294 293 292 294 295 299 297 298 298 297 296 296 295 294 294 294 293 293 292 292 291 291 290 289 288
296 296 296 296 297 297 297 297 297 298 298 297 297 296 298 300 300 300 301 301 301 300 299 299 294 292 294 295 297 293 297 295 294 296 297 297 297 296 296 295 295 295 294 293 292 292 292 292 291 291 290 289 288 288
296 294 296 296 296 296 297 297 298 298 297 297 296 297 297 299 298 299 301 301 301 301 293 296 294 296 294 295 298 299 293 289 295 296 295 294 295 295 295 294 294 293 292 292 292 291 291 290 290 289 288 287 287 286
294 294 295 296 297 297 297 296 297 297 297 296 296 297 297 298 298 298 300 300 300 300 300 297 298 298 293 298 297 293 294 294 293 292 292 293 293 294 294 293 293 292 291 291 291 290 290 289 289 288 287 287 286 285
292 293 294 296 296 297 296 296 296 296 296 296 296 296 297 297 297 298 299 299 300 300 301 300 297 299 298 296 293 295 294 293 292 291 292 292 293 293 293 292 292 292 290 290 289 289 289 288 287 287 287 286 286 283
292 293 294 295 296 295 294 294 295 296 295 296 296 296 296 297 297 297 298 299 300 300 298 298 298 297 298 297 296 294 294 293 291 290 291 291 291 292 291 290 290 290 290 289 289 289 288 287 286 286 286 285 283 282
292 293 294 295 294 294 294 294 295 295 295 295 295 295 296 296 296 296 297 298 298 297 297 297 296 296 296 296 295 294 294 294 294 294 293 290 290 290 290 289 289 289 289 289 289 288 288 287 287 285 284 283 282 281
290 291 291 292 293 294 294 294 294 294 294 294 294 294 294 295 295 294 296 297 296 296 297 296 296 296 295 295 294 294 294 294 294 294 292 291 289 289 288 288 288 288 288 289 289 288 288 287 286 285 284 283 280 280
290 290 290 291 292 293 292 293 294 295 292 293 294 294 293 293 293 295 296 296 295 295 296 296 296 295 295 295 294 294 294 293 293 292 291 290 289 288 288 288 287 287 287 287 287 287 286 286 285 283 282 280 280 279
290 290 291 292 291 288 293 293 293 293 294 294 292 293 293 293 294 295 297 295 293 294 294 294 294 293 292 293 292 293 292 292 291 291 291 290 290 289 289 288 288 287 287 287 287 286 285 284 283 282 281 281 281 281
290 290 291 282 292 288 283 284 285 289 287 289 289 288 287 293 292 289 296 294 292 292 293 293 293 293 292 291 291 291 290 290 290 290 290 290 290 289 289 288 288 287 287 287 287 286 284 284 283 282 281 283 283 282
282 291 287 287 285 286 287 284 284 285 284 284 287 292 293 286 285 293 293 291 291 290 289 290 290 291 291 291 291 290 290 290 290 289 289 288 289 289 288 288 287 287 287 287 287 286 285 284 283 283 282 282 282 282
282 283 291 291 292 292 287 291 291 285 283 284 283 282 280 282 286 291 290 289 288 288 288 289 289 290 290 290 289 289 289 289 288 289 289 288 287 287 287 287 286 286 286 286 287 286 285 284 284 283 282 282 282 282
290 291 283 291 291 292 281 280 281 284 287 293 290 283 284 288 288 289 289 287 287 288 288 288 288 288 288 287 287 288 289 288 287 287 287 286 286 286 286 286 285 285 285 285 285 285 285 284 284 283 282 282 281 280
290 290 290 284 290 291 291 286 289 290 290 292 282 287 291 289 288 287 287 287 287 287 286 287 287 287 286 286 286 285 286 286 286 285 285 285 285 284 284 284 284 284 284 284 284 284 284 283 283 282 282 282 281 280
290 289 290 288 279 287 289 289 290 289 289 290 291 291 290 287 286 286 286 287 287 286 287 287 287 286 286 286 285 285 284 285 285 285 286 286 285 284 283 283 283 283 283 283 283 283 283 282 282 281 281 280 279 279
288 289 290 290 288 289 288 289 288 287 288 288 289 289 289 287 286 286 285 285 285 285 286 286 286 286 286 286 286 286 285 285 284 285 285 286 285 284 283 282 282 282 282 282 282 282 281 281 281 280 280 279 278 277
289 289 291 286 289 289 288 287 288 288 289 289 289 289 289 288 285 283 283 282 283 283 283 284 285 286 285 285 285 286 285 285 285 285 285 285 284 283 282 282 281 281 281 281 281 281 280 280 280 279 279 278 275 273
289 289 289 289 289 289 288 288 289 289 290 288 288 287 286 286 282 281 281 281 282 282 282 283 283 283 284 284 284 284 284 284 284 284 283 283 283 282 282 281 281 280 280 280 280 280 279 279 278 277 274 273 273 272

GFSWCAN_850_thetae_129.txt.gz
Theta_e
293 293 293 292 292 291 291 290 291 292 292 293 293 292 292 293 294 295 295 295 296 298 301 302 303 303 302 302 299 302 304 304 302 304 304 302 301 303 303 304 304 304 303 303 304 304 304 302 301 302 299 299 298 295
297 296 295 294 293 293 292 292 291 291 292 292 292 291 292 292 294 295 295 295 295 296 298 301 303 304 303 303 303 305 303 301 302 303 301 302 304 300 301 302 305 306 304 303 303 303 298 300 299 300 300 300 298 296
299 298 298 297 296 295 293 293 293 292 292 292 292 291 292 293 294 295 295 295 295 297 296 297 301 304 304 305 304 304 302 303 302 303 299 301 300 302 305 303 305 304 302 302 303 300 298 299 299 300 300 300 299 298
299 299 299 299 299 297 296 295 294 294 293 293 293 292 292 294 295 295 295 295 296 297 298 301 302 303 304 305 305 305 305 303 304 303 302 301 305 304 302 304 304 301 302 302 300 295 297 298 299 299 299 299 298 297
299 300 302 303 300 299 298 297 295 294 294 293 293 293 293 294 294 295 295 295 296 297 298 301 302 304 304 304 305 304 305 304 304 302 303 305 303 303 299 301 301 300 301 300 300 298 299 298 299 298 298 299 298 297
299 300 305 304 302 300 299 297 297 296 295 294 294 293 293 293 294 297 296 295 296 297 297 300 301 303 304 304 304 304 305 304 304 303 301 302 303 301 296 299 299 301 300 300 300 300 298 297 297 297 297 297 297 296
299 300 300 302 301 299 299 298 297 296 295 295 294 294 293 294 296 296 296 296 297 298 298 299 301 302 304 304 304 304 304 304 304 303 301 301 301 301 294 297 298 300 300 299 299 299 296 296 297 296 296 296 295 293
299 298 300 300 300 299 299 298 297 296 295 295 294 294 294 296 296 295 297 297 298 299 299 299 300 302 302 302 302 303 303 304 303 303 301 300 300 298 296 295 299 299 298 298 297 296 297 297 295 294 294 293 292 291
298 298 298 298 298 298 298 298 297 296 295 295 294 295 296 296 296 297 299 297 298 299 299 298 298 300 301 301 301 302 301 299 300 299 300 300 296 298 296 298 299 300 299 298 295 295 295 295 294 293 292 291 290 288
297 298 297 297 297 297 297 297 296 295 295 297 296 296 296 296 296 299 298 298 298 299 299 296 299 299 301 300 300 300 299 299 300 299 300 297 296 300 301 301 301 300 298 296 295 292 292 292 292 291 290 291 290 288
297 297 297 297 297 296 296 296 296 296 296 296 297 298 296 298 298 299 298 299 299 299 299 299 299 300 301 301 300 300 298 298 300 298 298 297 297 296 300 300 300 298 297 296 295 295 294 293 291 291 290 290 289 288
297 296 296 296 296 296 296 295 295 296 298 299 298 298 299 298 299 299 298 296 297 300 299 297 300 301 301 301 300 299 300 296 298 294 295 294 292 298 299 298 297 296 296 295 295 294 294 293 291 291 291 290 289 288
298 298 297 297 296 296 296 296 298 299 299 299 299 299 299 296 291 295 293 297 294 297 299 300 299 301 301 301 297 297 295 294 294 294 296 293 296 298 297 296 296 295 295 295 295 294 293 292 291 291 291 290 289 288
298 298 299 299 299 299 299 299 300 299 299 298 296 291 295 291 294 295 297 296 298 300 300 300 298 301 299 297 291 294 293 295 291 292 296 289 298 298 297 296 296 295 295 295 294 294 293 292 292 291 291 290 289 288
299 299 299 299 299 299 299 299 298 298 298 297 296 293 293 296 297 298 299 299 300 301 301 299 297 298 295 294 294 294 295 293 293 293 293 295 297 298 297 296 296 296 295 294 294 294 293 292 292 291 291 290 290 288
297 298 299 299 299 299 298 298 297 297 297 297 297 297 298 299 299 299 299 299 300 301 300 298 294 292 293 294 295 292 296 294 290 289 296 296 296 297 296 296 296 295 295 294 293 293 293 292 292 291 291 290 289 289
297 296 296 298 299 298 297 297 298 297 296 296 295 297 297 298 298 298 300 300 300 300 294 295 293 295 294 293 297 296 290 287 294 294 296 296 296 296 295 295 295 295 294 293 292 292 292 291 291 290 290 289 288 287
295 295 296 296 297 297 297 297 297 296 296 296 296 296 296 297 298 299 300 300 300 300 299 297 297 296 290 296 297 295 293 293 294 293 293 293 293 294 294 294 294 293 292 291 291 291 291 290 290 289 289 288 287 286
294 294 295 296 296 296 296 296 296 295 295 296 296 296 297 297 297 299 300 300 300 300 300 299 296 297 295 295 294 295 294 293 292 291 292 293 293 293 293 293 292 292 291 290 290 290 290 289 289 288 288 287 286 286
294 294 295 296 296 296 295 295 295 295 294 295 296 296 296 296 297 298 299 299 299 298 297 297 297 296 295 295 295 294 293 292 291 291 292 292 293 293 292 292 291 291 290 289 289 289 288 288 287 287 287 286 286 285
293 294 295 296 295 294 294 294 294 294 295 295 295 295 296 296 296 296 297 297 297 297 296 296 295 295 295 295 294 293 293 294 293 292 292 291 291 291 291 290 290 289 289 289 289 289 288 288 287 286 286 285 285 285
291 292 293 294 293 294 294 294 294 294 294 294 294 294 294 292 293 294 295 296 295 295 296 296 295 295 294 294 294 293 293 293 293 293 291 291 290 290 289 289 289 288 288 289 289 288 288 288 287 286 286 284 282 281
290 290 291 292 293 293 292 293 294 294 289 292 294 293 292 292 293 295 295 294 294 295 295 295 295 294 294 294 294 294 293 292 292 291 290 289 289 288 288 288 287 287 287 288 287 287 287 286 286 285 285 284 281 279
290 290 291 292 292 287 292 292 293 293 293 293 293 293 291 292 294 296 294 294 293 293 294 294 294 293 293 293 293 293 292 291 291 290 290 290 289 289 288 288 288 287 287 287 287 286 286 286 285 284 282 281 280 279
291 289 290 282 290 286 283 282 283 288 286 289 287 290 285 292 293 291 294 292 292 292 292 293 292 293 292 291 290 291 291 290 290 290 290 290 290 289 289 288 288 287 287 287 287 286 285 284 284 282 282 281 281 280
283 290 286 284 284 285 286 285 283 284 282 284 285 289 291 286 285 293 292 291 290 291 291 291 291 291 291 290 290 289 289 289 289 289 289 288 288 289 289 288 288 287 287 287 287 286 285 284 283 283 282 281 282 282
285 282 290 291 291 290 285 289 289 283 281 284 282 279 278 281 289 290 289 289 289 288 288 289 289 290 290 290 290 289 289 289 288 288 288 288 288 287 287 287 287 286 286 286 287 287 286 285 284 283 282 282 282 282
290 290 283 289 290 289 279 278 279 284 285 290 287 281 284 286 288 288 288 287 286 286 287 287 288 288 288 288 287 287 286 287 287 286 287 286 286 286 286 286 286 285 285 285 286 286 285 285 284 283 283 282 282 281
290 290 290 281 288 290 289 285 290 289 289 290 282 284 288 287 287 287 286 286 286 286 286 286 287 286 286 286 286 286 285 284 285 285 285 285 285 285 284 285 285 285 284 284 285 285 285 284 284 283 283 282 281 281
288 289 289 284 284 286 288 288 289 287 288 288 289 289 288 286 286 286 286 286 286 286 287 287 287 287 286 286 286 285 285 285 285 285 285 285 285 284 284 283 283 284 284 284 284 284 284 283 283 282 282 281 280 280
288 289 289 287 288 288 287 287 287 287 287 287 288 289 289 287 286 286 286 286 286 286 286 286 286 286 286 286 286 286 285 285 285 284 284 285 285 284 283 283 282 282 283 283 283 283 282 282 282 281 281 280 279 278
288 289 289 282 287 288 287 287 287 287 288 288 288 288 287 287 286 284 283 283 283 283 283 284 284 285 285 285 285 285 285 285 285 285 285 285 284 283 282 282 282 282 282 282 281 281 281 281 280 280 279 278 278 277
288 288 288 288 288 288 288 287 288 288 288 288 287 287 286 286 284 282 282 282 282 282 282 282 283 283 284 284 284 284 284 284 284 284 283 283 282 282 281 281 281 281 281 280 280 280 279 279 279 279 278 277 274 273